<?xml version="1.0" encoding="UTF-8" standalone="no" ?>
<gpx xmlns="http://www.topografix.com/GPX/1/1" xmlns:xsi="http://www.w3.org/2001/XMLSchema-instance" xsi:schemaLocation="http://www.topografix.com/GPX/1/1 http://www.topografix.com/GPX/1/1/gpx.xsd" version="1.1" creator="VisuGPX - https://www.visugpx.com">
  <metadata>
    <name>lundi 2015 07 20</name>
    <desc><![CDATA[rando du lundi]]></desc>
  </metadata>
  <trk>
    <name><![CDATA[2 Place du Châtelet]]></name>
    <desc><![CDATA[]]></desc>
    <trkseg>
      <trkpt lat="48.85742" lon="2.34752">
        <ele>91.2</ele>
        <time>2015-07-20T18:18:33.502Z</time>
      </trkpt>
      <trkpt lat="48.85742" lon="2.34752">
        <ele>91.2</ele>
        <time>2015-07-20T18:19:15.641Z</time>
      </trkpt>
      <trkpt lat="48.85746" lon="2.34733">
        <ele>91.1</ele>
        <time>2015-07-20T18:19:16.574Z</time>
      </trkpt>
      <trkpt lat="48.85746" lon="2.34733">
        <ele>91.3</ele>
        <time>2015-07-20T18:19:17.595Z</time>
      </trkpt>
      <trkpt lat="48.85745" lon="2.34734">
        <ele>91.5</ele>
        <time>2015-07-20T18:19:19.563Z</time>
      </trkpt>
      <trkpt lat="48.85745" lon="2.34735">
        <ele>91.5</ele>
        <time>2015-07-20T18:19:20.565Z</time>
      </trkpt>
      <trkpt lat="48.85745" lon="2.34737">
        <ele>91.5</ele>
        <time>2015-07-20T18:19:23.546Z</time>
      </trkpt>
      <trkpt lat="48.85745" lon="2.34737">
        <ele>91.7</ele>
        <time>2015-07-20T18:19:24.751Z</time>
      </trkpt>
      <trkpt lat="48.85744" lon="2.34737">
        <ele>91.6</ele>
        <time>2015-07-20T18:19:49.581Z</time>
      </trkpt>
      <trkpt lat="48.85746" lon="2.34743">
        <ele>91.1</ele>
        <time>2015-07-20T18:19:50.555Z</time>
      </trkpt>
      <trkpt lat="48.85745" lon="2.34743">
        <ele>90.8</ele>
        <time>2015-07-20T18:19:51.567Z</time>
      </trkpt>
      <trkpt lat="48.85744" lon="2.34743">
        <ele>90.7</ele>
        <time>2015-07-20T18:20:00.615Z</time>
      </trkpt>
      <trkpt lat="48.85742" lon="2.34745">
        <ele>91</ele>
        <time>2015-07-20T18:20:01.534Z</time>
      </trkpt>
      <trkpt lat="48.85741" lon="2.34746">
        <ele>91.3</ele>
        <time>2015-07-20T18:20:05.588Z</time>
      </trkpt>
      <trkpt lat="48.8574" lon="2.34746">
        <ele>91</ele>
        <time>2015-07-20T18:20:06.598Z</time>
      </trkpt>
      <trkpt lat="48.8574" lon="2.34746">
        <ele>90.8</ele>
        <time>2015-07-20T18:20:30.622Z</time>
      </trkpt>
      <trkpt lat="48.85739" lon="2.34744">
        <ele>89.8</ele>
        <time>2015-07-20T18:20:31.617Z</time>
      </trkpt>
      <trkpt lat="48.8574" lon="2.34732">
        <ele>90.4</ele>
        <time>2015-07-20T18:20:35.611Z</time>
      </trkpt>
      <trkpt lat="48.85739" lon="2.34729">
        <ele>90.5</ele>
        <time>2015-07-20T18:20:36.675Z</time>
      </trkpt>
      <trkpt lat="48.85738" lon="2.34717">
        <ele>91.1</ele>
        <time>2015-07-20T18:20:40.575Z</time>
      </trkpt>
      <trkpt lat="48.85738" lon="2.34714">
        <ele>91.4</ele>
        <time>2015-07-20T18:20:41.586Z</time>
      </trkpt>
      <trkpt lat="48.85732" lon="2.34708">
        <ele>91.4</ele>
        <time>2015-07-20T18:20:44.599Z</time>
      </trkpt>
      <trkpt lat="48.85729" lon="2.34706">
        <ele>91.5</ele>
        <time>2015-07-20T18:20:45.636Z</time>
      </trkpt>
      <trkpt lat="48.85723" lon="2.34703">
        <ele>91.8</ele>
        <time>2015-07-20T18:20:47.542Z</time>
      </trkpt>
      <trkpt lat="48.85719" lon="2.34702">
        <ele>92.1</ele>
        <time>2015-07-20T18:20:48.621Z</time>
      </trkpt>
      <trkpt lat="48.85713" lon="2.347">
        <ele>92.3</ele>
        <time>2015-07-20T18:20:50.579Z</time>
      </trkpt>
      <trkpt lat="48.8571" lon="2.34698">
        <ele>92.5</ele>
        <time>2015-07-20T18:20:51.605Z</time>
      </trkpt>
      <trkpt lat="48.85701" lon="2.34693">
        <ele>92.5</ele>
        <time>2015-07-20T18:20:54.631Z</time>
      </trkpt>
      <trkpt lat="48.85698" lon="2.34691">
        <ele>92.4</ele>
        <time>2015-07-20T18:20:55.515Z</time>
      </trkpt>
      <trkpt lat="48.8569" lon="2.34686">
        <ele>92.2</ele>
        <time>2015-07-20T18:20:58.658Z</time>
      </trkpt>
      <trkpt lat="48.85687" lon="2.34684">
        <ele>92.1</ele>
        <time>2015-07-20T18:20:59.910Z</time>
      </trkpt>
      <trkpt lat="48.8568" lon="2.34678">
        <ele>91.3</ele>
        <time>2015-07-20T18:21:02.528Z</time>
      </trkpt>
      <trkpt lat="48.85677" lon="2.34677">
        <ele>91.1</ele>
        <time>2015-07-20T18:21:03.541Z</time>
      </trkpt>
      <trkpt lat="48.85669" lon="2.34671">
        <ele>90.9</ele>
        <time>2015-07-20T18:21:06.608Z</time>
      </trkpt>
      <trkpt lat="48.85666" lon="2.34669">
        <ele>90.9</ele>
        <time>2015-07-20T18:21:07.539Z</time>
      </trkpt>
      <trkpt lat="48.85661" lon="2.34666">
        <ele>90.9</ele>
        <time>2015-07-20T18:21:09.560Z</time>
      </trkpt>
      <trkpt lat="48.85658" lon="2.34664">
        <ele>90.8</ele>
        <time>2015-07-20T18:21:10.527Z</time>
      </trkpt>
      <trkpt lat="48.85652" lon="2.34659">
        <ele>90.8</ele>
        <time>2015-07-20T18:21:12.587Z</time>
      </trkpt>
      <trkpt lat="48.85649" lon="2.34657">
        <ele>90.8</ele>
        <time>2015-07-20T18:21:13.593Z</time>
      </trkpt>
      <trkpt lat="48.85641" lon="2.34651">
        <ele>91.2</ele>
        <time>2015-07-20T18:21:16.565Z</time>
      </trkpt>
      <trkpt lat="48.85639" lon="2.34649">
        <ele>91.3</ele>
        <time>2015-07-20T18:21:17.519Z</time>
      </trkpt>
      <trkpt lat="48.85632" lon="2.34642">
        <ele>90.5</ele>
        <time>2015-07-20T18:21:22.579Z</time>
      </trkpt>
      <trkpt lat="48.85631" lon="2.34641">
        <ele>90</ele>
        <time>2015-07-20T18:21:23.591Z</time>
      </trkpt>
      <trkpt lat="48.85627" lon="2.34642">
        <ele>87.5</ele>
        <time>2015-07-20T18:21:29.601Z</time>
      </trkpt>
      <trkpt lat="48.85626" lon="2.34642">
        <ele>87.3</ele>
        <time>2015-07-20T18:21:30.614Z</time>
      </trkpt>
      <trkpt lat="48.85626" lon="2.34642">
        <ele>86.9</ele>
        <time>2015-07-20T18:21:40.555Z</time>
      </trkpt>
      <trkpt lat="48.85626" lon="2.34643">
        <ele>86.1</ele>
        <time>2015-07-20T18:21:41.565Z</time>
      </trkpt>
      <trkpt lat="48.85618" lon="2.34639">
        <ele>86.3</ele>
        <time>2015-07-20T18:21:46.521Z</time>
      </trkpt>
      <trkpt lat="48.85614" lon="2.34637">
        <ele>86.4</ele>
        <time>2015-07-20T18:21:47.532Z</time>
      </trkpt>
      <trkpt lat="48.85608" lon="2.34632">
        <ele>86.5</ele>
        <time>2015-07-20T18:21:49.583Z</time>
      </trkpt>
      <trkpt lat="48.85604" lon="2.34629">
        <ele>86.6</ele>
        <time>2015-07-20T18:21:50.599Z</time>
      </trkpt>
      <trkpt lat="48.85597" lon="2.34624">
        <ele>86.7</ele>
        <time>2015-07-20T18:21:52.544Z</time>
      </trkpt>
      <trkpt lat="48.85593" lon="2.34622">
        <ele>86.7</ele>
        <time>2015-07-20T18:21:53.573Z</time>
      </trkpt>
      <trkpt lat="48.85585" lon="2.34618">
        <ele>86.9</ele>
        <time>2015-07-20T18:21:55.590Z</time>
      </trkpt>
      <trkpt lat="48.8558" lon="2.34617">
        <ele>86.8</ele>
        <time>2015-07-20T18:21:56.601Z</time>
      </trkpt>
      <trkpt lat="48.85575" lon="2.34615">
        <ele>86.6</ele>
        <time>2015-07-20T18:21:57.630Z</time>
      </trkpt>
      <trkpt lat="48.8557" lon="2.34613">
        <ele>86.5</ele>
        <time>2015-07-20T18:21:58.543Z</time>
      </trkpt>
      <trkpt lat="48.85565" lon="2.34611">
        <ele>86.3</ele>
        <time>2015-07-20T18:21:59.516Z</time>
      </trkpt>
      <trkpt lat="48.85558" lon="2.34608">
        <ele>86</ele>
        <time>2015-07-20T18:22:00.596Z</time>
      </trkpt>
      <trkpt lat="48.85553" lon="2.34605">
        <ele>86.1</ele>
        <time>2015-07-20T18:22:01.534Z</time>
      </trkpt>
      <trkpt lat="48.85548" lon="2.34601">
        <ele>86.2</ele>
        <time>2015-07-20T18:22:02.567Z</time>
      </trkpt>
      <trkpt lat="48.85543" lon="2.34598">
        <ele>86.2</ele>
        <time>2015-07-20T18:22:03.579Z</time>
      </trkpt>
      <trkpt lat="48.85539" lon="2.34594">
        <ele>86.2</ele>
        <time>2015-07-20T18:22:04.585Z</time>
      </trkpt>
      <trkpt lat="48.85534" lon="2.34589">
        <ele>86.8</ele>
        <time>2015-07-20T18:22:05.538Z</time>
      </trkpt>
      <trkpt lat="48.8553" lon="2.34585">
        <ele>87.1</ele>
        <time>2015-07-20T18:22:06.582Z</time>
      </trkpt>
      <trkpt lat="48.85526" lon="2.34582">
        <ele>87.4</ele>
        <time>2015-07-20T18:22:07.591Z</time>
      </trkpt>
      <trkpt lat="48.85521" lon="2.3458">
        <ele>87.7</ele>
        <time>2015-07-20T18:22:08.613Z</time>
      </trkpt>
      <trkpt lat="48.85517" lon="2.34577">
        <ele>87.9</ele>
        <time>2015-07-20T18:22:09.534Z</time>
      </trkpt>
      <trkpt lat="48.85512" lon="2.34574">
        <ele>88.3</ele>
        <time>2015-07-20T18:22:10.540Z</time>
      </trkpt>
      <trkpt lat="48.85507" lon="2.34571">
        <ele>88.5</ele>
        <time>2015-07-20T18:22:11.572Z</time>
      </trkpt>
      <trkpt lat="48.85502" lon="2.34568">
        <ele>88.7</ele>
        <time>2015-07-20T18:22:12.666Z</time>
      </trkpt>
      <trkpt lat="48.85497" lon="2.34565">
        <ele>88.6</ele>
        <time>2015-07-20T18:22:13.536Z</time>
      </trkpt>
      <trkpt lat="48.85493" lon="2.34562">
        <ele>88.6</ele>
        <time>2015-07-20T18:22:14.543Z</time>
      </trkpt>
      <trkpt lat="48.85488" lon="2.34559">
        <ele>88.6</ele>
        <time>2015-07-20T18:22:15.580Z</time>
      </trkpt>
      <trkpt lat="48.85484" lon="2.34555">
        <ele>88.8</ele>
        <time>2015-07-20T18:22:16.581Z</time>
      </trkpt>
      <trkpt lat="48.85479" lon="2.34552">
        <ele>88.9</ele>
        <time>2015-07-20T18:22:17.583Z</time>
      </trkpt>
      <trkpt lat="48.85475" lon="2.3455">
        <ele>88.8</ele>
        <time>2015-07-20T18:22:18.590Z</time>
      </trkpt>
      <trkpt lat="48.8547" lon="2.34547">
        <ele>88.8</ele>
        <time>2015-07-20T18:22:19.596Z</time>
      </trkpt>
      <trkpt lat="48.85466" lon="2.34546">
        <ele>88.8</ele>
        <time>2015-07-20T18:22:20.604Z</time>
      </trkpt>
      <trkpt lat="48.85458" lon="2.34542">
        <ele>88.8</ele>
        <time>2015-07-20T18:22:22.525Z</time>
      </trkpt>
      <trkpt lat="48.85455" lon="2.3454">
        <ele>89</ele>
        <time>2015-07-20T18:22:23.556Z</time>
      </trkpt>
      <trkpt lat="48.85449" lon="2.34535">
        <ele>89.2</ele>
        <time>2015-07-20T18:22:25.529Z</time>
      </trkpt>
      <trkpt lat="48.85447" lon="2.34531">
        <ele>89.3</ele>
        <time>2015-07-20T18:22:26.571Z</time>
      </trkpt>
      <trkpt lat="48.85441" lon="2.34524">
        <ele>89.2</ele>
        <time>2015-07-20T18:22:29.615Z</time>
      </trkpt>
      <trkpt lat="48.85438" lon="2.34522">
        <ele>89.2</ele>
        <time>2015-07-20T18:22:30.645Z</time>
      </trkpt>
      <trkpt lat="48.85436" lon="2.34514">
        <ele>89.8</ele>
        <time>2015-07-20T18:22:32.533Z</time>
      </trkpt>
      <trkpt lat="48.85435" lon="2.34509">
        <ele>90.2</ele>
        <time>2015-07-20T18:22:33.590Z</time>
      </trkpt>
      <trkpt lat="48.85431" lon="2.34502">
        <ele>90.7</ele>
        <time>2015-07-20T18:22:35.546Z</time>
      </trkpt>
      <trkpt lat="48.85429" lon="2.34498">
        <ele>90.8</ele>
        <time>2015-07-20T18:22:36.560Z</time>
      </trkpt>
      <trkpt lat="48.85423" lon="2.34489">
        <ele>90.9</ele>
        <time>2015-07-20T18:22:38.565Z</time>
      </trkpt>
      <trkpt lat="48.8542" lon="2.34484">
        <ele>90.7</ele>
        <time>2015-07-20T18:22:39.568Z</time>
      </trkpt>
      <trkpt lat="48.85414" lon="2.34476">
        <ele>90.4</ele>
        <time>2015-07-20T18:22:41.610Z</time>
      </trkpt>
      <trkpt lat="48.85411" lon="2.34473">
        <ele>90.4</ele>
        <time>2015-07-20T18:22:42.620Z</time>
      </trkpt>
      <trkpt lat="48.85406" lon="2.34467">
        <ele>90</ele>
        <time>2015-07-20T18:22:44.554Z</time>
      </trkpt>
      <trkpt lat="48.85404" lon="2.34464">
        <ele>89.8</ele>
        <time>2015-07-20T18:22:45.559Z</time>
      </trkpt>
      <trkpt lat="48.85397" lon="2.34456">
        <ele>89.4</ele>
        <time>2015-07-20T18:22:49.545Z</time>
      </trkpt>
      <trkpt lat="48.85395" lon="2.34453">
        <ele>89.5</ele>
        <time>2015-07-20T18:22:50.537Z</time>
      </trkpt>
      <trkpt lat="48.85389" lon="2.34445">
        <ele>89.4</ele>
        <time>2015-07-20T18:22:54.673Z</time>
      </trkpt>
      <trkpt lat="48.85388" lon="2.34442">
        <ele>89.1</ele>
        <time>2015-07-20T18:22:55.687Z</time>
      </trkpt>
      <trkpt lat="48.85383" lon="2.34441">
        <ele>88.8</ele>
        <time>2015-07-20T18:22:59.628Z</time>
      </trkpt>
      <trkpt lat="48.85382" lon="2.34441">
        <ele>88.6</ele>
        <time>2015-07-20T18:23:00.627Z</time>
      </trkpt>
      <trkpt lat="48.85381" lon="2.34442">
        <ele>88.8</ele>
        <time>2015-07-20T18:23:01.786Z</time>
      </trkpt>
      <trkpt lat="48.85376" lon="2.34433">
        <ele>88.6</ele>
        <time>2015-07-20T18:23:05.590Z</time>
      </trkpt>
      <trkpt lat="48.85373" lon="2.34429">
        <ele>88.7</ele>
        <time>2015-07-20T18:23:06.605Z</time>
      </trkpt>
      <trkpt lat="48.85368" lon="2.34423">
        <ele>88.9</ele>
        <time>2015-07-20T18:23:08.529Z</time>
      </trkpt>
      <trkpt lat="48.85364" lon="2.34421">
        <ele>88.7</ele>
        <time>2015-07-20T18:23:09.557Z</time>
      </trkpt>
      <trkpt lat="48.85357" lon="2.34418">
        <ele>88.7</ele>
        <time>2015-07-20T18:23:11.593Z</time>
      </trkpt>
      <trkpt lat="48.85353" lon="2.34416">
        <ele>88.9</ele>
        <time>2015-07-20T18:23:12.663Z</time>
      </trkpt>
      <trkpt lat="48.85345" lon="2.34415">
        <ele>89.7</ele>
        <time>2015-07-20T18:23:14.537Z</time>
      </trkpt>
      <trkpt lat="48.85341" lon="2.34414">
        <ele>90.1</ele>
        <time>2015-07-20T18:23:15.569Z</time>
      </trkpt>
      <trkpt lat="48.85336" lon="2.34413">
        <ele>90.2</ele>
        <time>2015-07-20T18:23:16.577Z</time>
      </trkpt>
      <trkpt lat="48.85332" lon="2.34412">
        <ele>90.4</ele>
        <time>2015-07-20T18:23:17.578Z</time>
      </trkpt>
      <trkpt lat="48.85323" lon="2.34408">
        <ele>90.6</ele>
        <time>2015-07-20T18:23:19.617Z</time>
      </trkpt>
      <trkpt lat="48.8532" lon="2.34405">
        <ele>90.8</ele>
        <time>2015-07-20T18:23:20.510Z</time>
      </trkpt>
      <trkpt lat="48.85312" lon="2.34399">
        <ele>91.2</ele>
        <time>2015-07-20T18:23:21.699Z</time>
      </trkpt>
      <trkpt lat="48.85307" lon="2.34396">
        <ele>91.2</ele>
        <time>2015-07-20T18:23:23.562Z</time>
      </trkpt>
      <trkpt lat="48.85299" lon="2.34391">
        <ele>91.2</ele>
        <time>2015-07-20T18:23:26.115Z</time>
      </trkpt>
      <trkpt lat="48.85295" lon="2.34389">
        <ele>91.2</ele>
        <time>2015-07-20T18:23:26.510Z</time>
      </trkpt>
      <trkpt lat="48.8529" lon="2.34388">
        <ele>91.2</ele>
        <time>2015-07-20T18:23:27.553Z</time>
      </trkpt>
      <trkpt lat="48.85285" lon="2.34386">
        <ele>91.1</ele>
        <time>2015-07-20T18:23:28.566Z</time>
      </trkpt>
      <trkpt lat="48.85277" lon="2.34383">
        <ele>91.4</ele>
        <time>2015-07-20T18:23:30.624Z</time>
      </trkpt>
      <trkpt lat="48.85273" lon="2.34381">
        <ele>91.6</ele>
        <time>2015-07-20T18:23:31.563Z</time>
      </trkpt>
      <trkpt lat="48.85265" lon="2.34376">
        <ele>91.7</ele>
        <time>2015-07-20T18:23:33.597Z</time>
      </trkpt>
      <trkpt lat="48.85261" lon="2.34374">
        <ele>91.6</ele>
        <time>2015-07-20T18:23:34.579Z</time>
      </trkpt>
      <trkpt lat="48.85253" lon="2.34369">
        <ele>91.8</ele>
        <time>2015-07-20T18:23:36.645Z</time>
      </trkpt>
      <trkpt lat="48.85249" lon="2.34366">
        <ele>91.9</ele>
        <time>2015-07-20T18:23:37.547Z</time>
      </trkpt>
      <trkpt lat="48.85244" lon="2.34364">
        <ele>91.9</ele>
        <time>2015-07-20T18:23:38.617Z</time>
      </trkpt>
      <trkpt lat="48.8524" lon="2.34362">
        <ele>91.8</ele>
        <time>2015-07-20T18:23:39.524Z</time>
      </trkpt>
      <trkpt lat="48.85235" lon="2.3436">
        <ele>91.8</ele>
        <time>2015-07-20T18:23:40.532Z</time>
      </trkpt>
      <trkpt lat="48.85231" lon="2.34358">
        <ele>91.8</ele>
        <time>2015-07-20T18:23:41.545Z</time>
      </trkpt>
      <trkpt lat="48.85226" lon="2.34357">
        <ele>91.8</ele>
        <time>2015-07-20T18:23:42.577Z</time>
      </trkpt>
      <trkpt lat="48.85221" lon="2.34355">
        <ele>91.8</ele>
        <time>2015-07-20T18:23:43.571Z</time>
      </trkpt>
      <trkpt lat="48.85213" lon="2.3435">
        <ele>91.8</ele>
        <time>2015-07-20T18:23:45.597Z</time>
      </trkpt>
      <trkpt lat="48.8521" lon="2.34348">
        <ele>91.9</ele>
        <time>2015-07-20T18:23:46.601Z</time>
      </trkpt>
      <trkpt lat="48.85202" lon="2.34343">
        <ele>92</ele>
        <time>2015-07-20T18:23:48.566Z</time>
      </trkpt>
      <trkpt lat="48.85199" lon="2.34339">
        <ele>91.9</ele>
        <time>2015-07-20T18:23:49.571Z</time>
      </trkpt>
      <trkpt lat="48.85192" lon="2.34335">
        <ele>92.1</ele>
        <time>2015-07-20T18:23:51.540Z</time>
      </trkpt>
      <trkpt lat="48.85187" lon="2.34335">
        <ele>92.5</ele>
        <time>2015-07-20T18:23:52.574Z</time>
      </trkpt>
      <trkpt lat="48.8518" lon="2.34331">
        <ele>92.5</ele>
        <time>2015-07-20T18:23:54.607Z</time>
      </trkpt>
      <trkpt lat="48.85177" lon="2.34329">
        <ele>92.6</ele>
        <time>2015-07-20T18:23:55.537Z</time>
      </trkpt>
      <trkpt lat="48.8517" lon="2.34327">
        <ele>92.6</ele>
        <time>2015-07-20T18:23:57.697Z</time>
      </trkpt>
      <trkpt lat="48.85166" lon="2.34325">
        <ele>92.5</ele>
        <time>2015-07-20T18:23:58.575Z</time>
      </trkpt>
      <trkpt lat="48.85158" lon="2.3432">
        <ele>92.5</ele>
        <time>2015-07-20T18:24:01.662Z</time>
      </trkpt>
      <trkpt lat="48.85156" lon="2.34318">
        <ele>92.4</ele>
        <time>2015-07-20T18:24:02.565Z</time>
      </trkpt>
      <trkpt lat="48.85148" lon="2.34318">
        <ele>91.8</ele>
        <time>2015-07-20T18:24:06.579Z</time>
      </trkpt>
      <trkpt lat="48.85146" lon="2.34317">
        <ele>91.7</ele>
        <time>2015-07-20T18:24:07.581Z</time>
      </trkpt>
      <trkpt lat="48.8514" lon="2.34312">
        <ele>91.5</ele>
        <time>2015-07-20T18:24:12.672Z</time>
      </trkpt>
      <trkpt lat="48.85138" lon="2.34311">
        <ele>91.5</ele>
        <time>2015-07-20T18:24:13.559Z</time>
      </trkpt>
      <trkpt lat="48.8513" lon="2.34305">
        <ele>90.9</ele>
        <time>2015-07-20T18:24:17.557Z</time>
      </trkpt>
      <trkpt lat="48.85128" lon="2.34303">
        <ele>90.7</ele>
        <time>2015-07-20T18:24:18.556Z</time>
      </trkpt>
      <trkpt lat="48.85121" lon="2.34299">
        <ele>90.2</ele>
        <time>2015-07-20T18:24:21.524Z</time>
      </trkpt>
      <trkpt lat="48.85118" lon="2.34298">
        <ele>90</ele>
        <time>2015-07-20T18:24:22.516Z</time>
      </trkpt>
      <trkpt lat="48.8511" lon="2.34295">
        <ele>89.3</ele>
        <time>2015-07-20T18:24:25.840Z</time>
      </trkpt>
      <trkpt lat="48.85107" lon="2.34294">
        <ele>89.2</ele>
        <time>2015-07-20T18:24:26.525Z</time>
      </trkpt>
      <trkpt lat="48.85101" lon="2.34291">
        <ele>89</ele>
        <time>2015-07-20T18:24:28.583Z</time>
      </trkpt>
      <trkpt lat="48.85097" lon="2.3429">
        <ele>89</ele>
        <time>2015-07-20T18:24:29.516Z</time>
      </trkpt>
      <trkpt lat="48.85091" lon="2.34287">
        <ele>88.8</ele>
        <time>2015-07-20T18:24:31.550Z</time>
      </trkpt>
      <trkpt lat="48.85088" lon="2.34286">
        <ele>88.9</ele>
        <time>2015-07-20T18:24:32.557Z</time>
      </trkpt>
      <trkpt lat="48.8508" lon="2.34283">
        <ele>89.4</ele>
        <time>2015-07-20T18:24:34.584Z</time>
      </trkpt>
      <trkpt lat="48.85076" lon="2.34281">
        <ele>89.3</ele>
        <time>2015-07-20T18:24:35.593Z</time>
      </trkpt>
      <trkpt lat="48.8507" lon="2.34275">
        <ele>89.5</ele>
        <time>2015-07-20T18:24:37.619Z</time>
      </trkpt>
      <trkpt lat="48.85066" lon="2.34273">
        <ele>89.8</ele>
        <time>2015-07-20T18:24:38.636Z</time>
      </trkpt>
      <trkpt lat="48.85059" lon="2.34268">
        <ele>90.2</ele>
        <time>2015-07-20T18:24:40.570Z</time>
      </trkpt>
      <trkpt lat="48.85054" lon="2.34267">
        <ele>90.2</ele>
        <time>2015-07-20T18:24:41.577Z</time>
      </trkpt>
      <trkpt lat="48.85045" lon="2.34264">
        <ele>90.7</ele>
        <time>2015-07-20T18:24:43.573Z</time>
      </trkpt>
      <trkpt lat="48.85041" lon="2.34263">
        <ele>90.8</ele>
        <time>2015-07-20T18:24:44.580Z</time>
      </trkpt>
      <trkpt lat="48.85034" lon="2.34258">
        <ele>91.3</ele>
        <time>2015-07-20T18:24:46.520Z</time>
      </trkpt>
      <trkpt lat="48.85031" lon="2.34257">
        <ele>91.5</ele>
        <time>2015-07-20T18:24:47.626Z</time>
      </trkpt>
      <trkpt lat="48.85024" lon="2.34253">
        <ele>92.2</ele>
        <time>2015-07-20T18:24:49.594Z</time>
      </trkpt>
      <trkpt lat="48.8502" lon="2.3425">
        <ele>92.3</ele>
        <time>2015-07-20T18:24:50.609Z</time>
      </trkpt>
      <trkpt lat="48.85015" lon="2.34244">
        <ele>92.7</ele>
        <time>2015-07-20T18:24:52.869Z</time>
      </trkpt>
      <trkpt lat="48.85013" lon="2.34241">
        <ele>92.9</ele>
        <time>2015-07-20T18:24:53.537Z</time>
      </trkpt>
      <trkpt lat="48.85007" lon="2.34236">
        <ele>93.2</ele>
        <time>2015-07-20T18:24:55.570Z</time>
      </trkpt>
      <trkpt lat="48.85004" lon="2.34233">
        <ele>93.5</ele>
        <time>2015-07-20T18:24:56.572Z</time>
      </trkpt>
      <trkpt lat="48.84997" lon="2.34226">
        <ele>93.6</ele>
        <time>2015-07-20T18:24:58.599Z</time>
      </trkpt>
      <trkpt lat="48.84993" lon="2.34223">
        <ele>93.6</ele>
        <time>2015-07-20T18:24:59.618Z</time>
      </trkpt>
      <trkpt lat="48.84989" lon="2.3422">
        <ele>93.6</ele>
        <time>2015-07-20T18:25:00.635Z</time>
      </trkpt>
      <trkpt lat="48.84985" lon="2.34217">
        <ele>93.6</ele>
        <time>2015-07-20T18:25:01.534Z</time>
      </trkpt>
      <trkpt lat="48.84977" lon="2.34209">
        <ele>94.1</ele>
        <time>2015-07-20T18:25:03.536Z</time>
      </trkpt>
      <trkpt lat="48.84973" lon="2.34205">
        <ele>94.2</ele>
        <time>2015-07-20T18:25:04.552Z</time>
      </trkpt>
      <trkpt lat="48.84967" lon="2.34199">
        <ele>94.6</ele>
        <time>2015-07-20T18:25:06.559Z</time>
      </trkpt>
      <trkpt lat="48.84963" lon="2.34196">
        <ele>94.8</ele>
        <time>2015-07-20T18:25:07.574Z</time>
      </trkpt>
      <trkpt lat="48.84956" lon="2.34191">
        <ele>95.1</ele>
        <time>2015-07-20T18:25:09.604Z</time>
      </trkpt>
      <trkpt lat="48.84953" lon="2.3419">
        <ele>95.3</ele>
        <time>2015-07-20T18:25:10.556Z</time>
      </trkpt>
      <trkpt lat="48.84948" lon="2.34187">
        <ele>95.3</ele>
        <time>2015-07-20T18:25:11.575Z</time>
      </trkpt>
      <trkpt lat="48.84943" lon="2.34185">
        <ele>95.6</ele>
        <time>2015-07-20T18:25:12.579Z</time>
      </trkpt>
      <trkpt lat="48.84938" lon="2.34182">
        <ele>95.7</ele>
        <time>2015-07-20T18:25:13.613Z</time>
      </trkpt>
      <trkpt lat="48.84934" lon="2.3418">
        <ele>95.9</ele>
        <time>2015-07-20T18:25:14.542Z</time>
      </trkpt>
      <trkpt lat="48.84926" lon="2.34174">
        <ele>96.3</ele>
        <time>2015-07-20T18:25:16.559Z</time>
      </trkpt>
      <trkpt lat="48.84923" lon="2.34171">
        <ele>96.5</ele>
        <time>2015-07-20T18:25:17.577Z</time>
      </trkpt>
      <trkpt lat="48.84918" lon="2.3417">
        <ele>96.3</ele>
        <time>2015-07-20T18:25:18.571Z</time>
      </trkpt>
      <trkpt lat="48.84911" lon="2.3417">
        <ele>95.9</ele>
        <time>2015-07-20T18:25:19.598Z</time>
      </trkpt>
      <trkpt lat="48.84903" lon="2.34168">
        <ele>95.7</ele>
        <time>2015-07-20T18:25:21.533Z</time>
      </trkpt>
      <trkpt lat="48.84898" lon="2.34169">
        <ele>95.8</ele>
        <time>2015-07-20T18:25:22.542Z</time>
      </trkpt>
      <trkpt lat="48.84889" lon="2.34166">
        <ele>95.9</ele>
        <time>2015-07-20T18:25:24.570Z</time>
      </trkpt>
      <trkpt lat="48.84885" lon="2.34163">
        <ele>95.9</ele>
        <time>2015-07-20T18:25:25.579Z</time>
      </trkpt>
      <trkpt lat="48.84878" lon="2.34158">
        <ele>96.4</ele>
        <time>2015-07-20T18:25:28.177Z</time>
      </trkpt>
      <trkpt lat="48.84875" lon="2.34155">
        <ele>96.6</ele>
        <time>2015-07-20T18:25:28.567Z</time>
      </trkpt>
      <trkpt lat="48.84869" lon="2.3415">
        <ele>97</ele>
        <time>2015-07-20T18:25:30.609Z</time>
      </trkpt>
      <trkpt lat="48.84865" lon="2.34147">
        <ele>97.3</ele>
        <time>2015-07-20T18:25:31.619Z</time>
      </trkpt>
      <trkpt lat="48.84859" lon="2.34145">
        <ele>97.1</ele>
        <time>2015-07-20T18:25:33.230Z</time>
      </trkpt>
      <trkpt lat="48.84853" lon="2.34143">
        <ele>97</ele>
        <time>2015-07-20T18:25:33.516Z</time>
      </trkpt>
      <trkpt lat="48.84848" lon="2.3414">
        <ele>97</ele>
        <time>2015-07-20T18:25:34.615Z</time>
      </trkpt>
      <trkpt lat="48.84843" lon="2.34137">
        <ele>97.2</ele>
        <time>2015-07-20T18:25:35.623Z</time>
      </trkpt>
      <trkpt lat="48.84835" lon="2.34131">
        <ele>97.7</ele>
        <time>2015-07-20T18:25:37.574Z</time>
      </trkpt>
      <trkpt lat="48.84831" lon="2.34127">
        <ele>98.1</ele>
        <time>2015-07-20T18:25:38.603Z</time>
      </trkpt>
      <trkpt lat="48.84826" lon="2.34122">
        <ele>98.1</ele>
        <time>2015-07-20T18:25:39.613Z</time>
      </trkpt>
      <trkpt lat="48.84822" lon="2.34118">
        <ele>98.3</ele>
        <time>2015-07-20T18:25:40.619Z</time>
      </trkpt>
      <trkpt lat="48.84818" lon="2.34114">
        <ele>98.6</ele>
        <time>2015-07-20T18:25:41.502Z</time>
      </trkpt>
      <trkpt lat="48.84814" lon="2.34111">
        <ele>98.8</ele>
        <time>2015-07-20T18:25:42.592Z</time>
      </trkpt>
      <trkpt lat="48.84806" lon="2.34107">
        <ele>99.4</ele>
        <time>2015-07-20T18:25:44.587Z</time>
      </trkpt>
      <trkpt lat="48.84802" lon="2.34106">
        <ele>99.6</ele>
        <time>2015-07-20T18:25:45.594Z</time>
      </trkpt>
      <trkpt lat="48.84793" lon="2.34106">
        <ele>100</ele>
        <time>2015-07-20T18:25:47.634Z</time>
      </trkpt>
      <trkpt lat="48.8479" lon="2.34105">
        <ele>100.1</ele>
        <time>2015-07-20T18:25:48.652Z</time>
      </trkpt>
      <trkpt lat="48.84782" lon="2.341">
        <ele>100.5</ele>
        <time>2015-07-20T18:25:51.545Z</time>
      </trkpt>
      <trkpt lat="48.8478" lon="2.341">
        <ele>100.6</ele>
        <time>2015-07-20T18:25:52.555Z</time>
      </trkpt>
      <trkpt lat="48.84771" lon="2.34096">
        <ele>101.4</ele>
        <time>2015-07-20T18:25:55.569Z</time>
      </trkpt>
      <trkpt lat="48.84769" lon="2.34095">
        <ele>101.4</ele>
        <time>2015-07-20T18:25:56.583Z</time>
      </trkpt>
      <trkpt lat="48.84761" lon="2.3409">
        <ele>102.1</ele>
        <time>2015-07-20T18:25:59.551Z</time>
      </trkpt>
      <trkpt lat="48.84759" lon="2.34089">
        <ele>102.2</ele>
        <time>2015-07-20T18:26:00.657Z</time>
      </trkpt>
      <trkpt lat="48.84751" lon="2.34085">
        <ele>103.1</ele>
        <time>2015-07-20T18:26:06.631Z</time>
      </trkpt>
      <trkpt lat="48.84751" lon="2.34086">
        <ele>102.9</ele>
        <time>2015-07-20T18:26:07.535Z</time>
      </trkpt>
      <trkpt lat="48.84752" lon="2.34088">
        <ele>102.6</ele>
        <time>2015-07-20T18:26:30.656Z</time>
      </trkpt>
      <trkpt lat="48.84751" lon="2.3409">
        <ele>103.7</ele>
        <time>2015-07-20T18:26:31.543Z</time>
      </trkpt>
      <trkpt lat="48.84743" lon="2.34087">
        <ele>104.2</ele>
        <time>2015-07-20T18:26:35.520Z</time>
      </trkpt>
      <trkpt lat="48.8474" lon="2.34086">
        <ele>104.3</ele>
        <time>2015-07-20T18:26:36.576Z</time>
      </trkpt>
      <trkpt lat="48.84735" lon="2.3408">
        <ele>104.6</ele>
        <time>2015-07-20T18:26:38.696Z</time>
      </trkpt>
      <trkpt lat="48.84732" lon="2.34077">
        <ele>104.7</ele>
        <time>2015-07-20T18:26:39.623Z</time>
      </trkpt>
      <trkpt lat="48.84727" lon="2.34073">
        <ele>104.7</ele>
        <time>2015-07-20T18:26:41.583Z</time>
      </trkpt>
      <trkpt lat="48.84723" lon="2.34071">
        <ele>104.8</ele>
        <time>2015-07-20T18:26:42.677Z</time>
      </trkpt>
      <trkpt lat="48.84716" lon="2.34067">
        <ele>105.1</ele>
        <time>2015-07-20T18:26:44.551Z</time>
      </trkpt>
      <trkpt lat="48.84712" lon="2.34066">
        <ele>105.1</ele>
        <time>2015-07-20T18:26:45.596Z</time>
      </trkpt>
      <trkpt lat="48.84705" lon="2.34062">
        <ele>104.6</ele>
        <time>2015-07-20T18:26:47.535Z</time>
      </trkpt>
      <trkpt lat="48.84701" lon="2.3406">
        <ele>104.4</ele>
        <time>2015-07-20T18:26:48.596Z</time>
      </trkpt>
      <trkpt lat="48.84694" lon="2.34055">
        <ele>104.4</ele>
        <time>2015-07-20T18:26:50.500Z</time>
      </trkpt>
      <trkpt lat="48.8469" lon="2.34053">
        <ele>104.5</ele>
        <time>2015-07-20T18:26:51.566Z</time>
      </trkpt>
      <trkpt lat="48.84682" lon="2.34047">
        <ele>104.8</ele>
        <time>2015-07-20T18:26:54.276Z</time>
      </trkpt>
      <trkpt lat="48.84678" lon="2.34046">
        <ele>104.7</ele>
        <time>2015-07-20T18:26:54.649Z</time>
      </trkpt>
      <trkpt lat="48.84673" lon="2.34043">
        <ele>104.7</ele>
        <time>2015-07-20T18:26:55.525Z</time>
      </trkpt>
      <trkpt lat="48.84669" lon="2.34041">
        <ele>104.9</ele>
        <time>2015-07-20T18:26:56.561Z</time>
      </trkpt>
      <trkpt lat="48.84664" lon="2.34038">
        <ele>105.2</ele>
        <time>2015-07-20T18:26:57.709Z</time>
      </trkpt>
      <trkpt lat="48.8466" lon="2.34036">
        <ele>105.4</ele>
        <time>2015-07-20T18:26:58.588Z</time>
      </trkpt>
      <trkpt lat="48.84652" lon="2.34031">
        <ele>105.8</ele>
        <time>2015-07-20T18:27:00.616Z</time>
      </trkpt>
      <trkpt lat="48.84648" lon="2.34028">
        <ele>105.8</ele>
        <time>2015-07-20T18:27:01.681Z</time>
      </trkpt>
      <trkpt lat="48.8464" lon="2.34026">
        <ele>106.1</ele>
        <time>2015-07-20T18:27:04.369Z</time>
      </trkpt>
      <trkpt lat="48.84635" lon="2.34024">
        <ele>106.4</ele>
        <time>2015-07-20T18:27:04.677Z</time>
      </trkpt>
      <trkpt lat="48.84628" lon="2.34021">
        <ele>106.5</ele>
        <time>2015-07-20T18:27:06.591Z</time>
      </trkpt>
      <trkpt lat="48.84624" lon="2.34017">
        <ele>106.7</ele>
        <time>2015-07-20T18:27:07.606Z</time>
      </trkpt>
      <trkpt lat="48.8462" lon="2.34014">
        <ele>106.9</ele>
        <time>2015-07-20T18:27:08.528Z</time>
      </trkpt>
      <trkpt lat="48.84616" lon="2.34011">
        <ele>107.2</ele>
        <time>2015-07-20T18:27:09.530Z</time>
      </trkpt>
      <trkpt lat="48.84612" lon="2.34007">
        <ele>107.5</ele>
        <time>2015-07-20T18:27:10.530Z</time>
      </trkpt>
      <trkpt lat="48.84608" lon="2.34003">
        <ele>107.8</ele>
        <time>2015-07-20T18:27:11.533Z</time>
      </trkpt>
      <trkpt lat="48.84603" lon="2.34">
        <ele>108.1</ele>
        <time>2015-07-20T18:27:12.597Z</time>
      </trkpt>
      <trkpt lat="48.84598" lon="2.33997">
        <ele>108.4</ele>
        <time>2015-07-20T18:27:13.607Z</time>
      </trkpt>
      <trkpt lat="48.84593" lon="2.33993">
        <ele>108.8</ele>
        <time>2015-07-20T18:27:14.657Z</time>
      </trkpt>
      <trkpt lat="48.84587" lon="2.3399">
        <ele>109.3</ele>
        <time>2015-07-20T18:27:15.560Z</time>
      </trkpt>
      <trkpt lat="48.84581" lon="2.33987">
        <ele>110.1</ele>
        <time>2015-07-20T18:27:16.551Z</time>
      </trkpt>
      <trkpt lat="48.84574" lon="2.33985">
        <ele>110.8</ele>
        <time>2015-07-20T18:27:17.593Z</time>
      </trkpt>
      <trkpt lat="48.84568" lon="2.33982">
        <ele>111.2</ele>
        <time>2015-07-20T18:27:18.601Z</time>
      </trkpt>
      <trkpt lat="48.84562" lon="2.33979">
        <ele>111.5</ele>
        <time>2015-07-20T18:27:19.546Z</time>
      </trkpt>
      <trkpt lat="48.84556" lon="2.33975">
        <ele>111.9</ele>
        <time>2015-07-20T18:27:20.524Z</time>
      </trkpt>
      <trkpt lat="48.8455" lon="2.33973">
        <ele>112.5</ele>
        <time>2015-07-20T18:27:21.522Z</time>
      </trkpt>
      <trkpt lat="48.84544" lon="2.3397">
        <ele>112.8</ele>
        <time>2015-07-20T18:27:22.533Z</time>
      </trkpt>
      <trkpt lat="48.84538" lon="2.33969">
        <ele>113.1</ele>
        <time>2015-07-20T18:27:23.543Z</time>
      </trkpt>
      <trkpt lat="48.84532" lon="2.33968">
        <ele>113.2</ele>
        <time>2015-07-20T18:27:24.591Z</time>
      </trkpt>
      <trkpt lat="48.84526" lon="2.33966">
        <ele>113.4</ele>
        <time>2015-07-20T18:27:25.544Z</time>
      </trkpt>
      <trkpt lat="48.84521" lon="2.33963">
        <ele>113.6</ele>
        <time>2015-07-20T18:27:26.519Z</time>
      </trkpt>
      <trkpt lat="48.84516" lon="2.3396">
        <ele>113.5</ele>
        <time>2015-07-20T18:27:27.533Z</time>
      </trkpt>
      <trkpt lat="48.84511" lon="2.33958">
        <ele>113.5</ele>
        <time>2015-07-20T18:27:28.542Z</time>
      </trkpt>
      <trkpt lat="48.84506" lon="2.33955">
        <ele>113.4</ele>
        <time>2015-07-20T18:27:29.552Z</time>
      </trkpt>
      <trkpt lat="48.84501" lon="2.33952">
        <ele>113.5</ele>
        <time>2015-07-20T18:27:30.596Z</time>
      </trkpt>
      <trkpt lat="48.84496" lon="2.3395">
        <ele>113.5</ele>
        <time>2015-07-20T18:27:31.593Z</time>
      </trkpt>
      <trkpt lat="48.84491" lon="2.33947">
        <ele>113.5</ele>
        <time>2015-07-20T18:27:32.518Z</time>
      </trkpt>
      <trkpt lat="48.84486" lon="2.33944">
        <ele>113.3</ele>
        <time>2015-07-20T18:27:33.508Z</time>
      </trkpt>
      <trkpt lat="48.84481" lon="2.33942">
        <ele>112.8</ele>
        <time>2015-07-20T18:27:34.516Z</time>
      </trkpt>
      <trkpt lat="48.84476" lon="2.33939">
        <ele>112.2</ele>
        <time>2015-07-20T18:27:35.534Z</time>
      </trkpt>
      <trkpt lat="48.84471" lon="2.33936">
        <ele>111.9</ele>
        <time>2015-07-20T18:27:36.547Z</time>
      </trkpt>
      <trkpt lat="48.84466" lon="2.33933">
        <ele>111.6</ele>
        <time>2015-07-20T18:27:37.550Z</time>
      </trkpt>
      <trkpt lat="48.84461" lon="2.33931">
        <ele>110.7</ele>
        <time>2015-07-20T18:27:38.565Z</time>
      </trkpt>
      <trkpt lat="48.84457" lon="2.33928">
        <ele>110.6</ele>
        <time>2015-07-20T18:27:39.572Z</time>
      </trkpt>
      <trkpt lat="48.84453" lon="2.33924">
        <ele>110.5</ele>
        <time>2015-07-20T18:27:40.582Z</time>
      </trkpt>
      <trkpt lat="48.84449" lon="2.3392">
        <ele>110.5</ele>
        <time>2015-07-20T18:27:41.598Z</time>
      </trkpt>
      <trkpt lat="48.84445" lon="2.33917">
        <ele>110.7</ele>
        <time>2015-07-20T18:27:42.601Z</time>
      </trkpt>
      <trkpt lat="48.84441" lon="2.33914">
        <ele>110.5</ele>
        <time>2015-07-20T18:27:43.524Z</time>
      </trkpt>
      <trkpt lat="48.84437" lon="2.33912">
        <ele>110.5</ele>
        <time>2015-07-20T18:27:44.519Z</time>
      </trkpt>
      <trkpt lat="48.84432" lon="2.33909">
        <ele>110.4</ele>
        <time>2015-07-20T18:27:45.527Z</time>
      </trkpt>
      <trkpt lat="48.84427" lon="2.33908">
        <ele>110.3</ele>
        <time>2015-07-20T18:27:46.533Z</time>
      </trkpt>
      <trkpt lat="48.84422" lon="2.33907">
        <ele>110.1</ele>
        <time>2015-07-20T18:27:47.539Z</time>
      </trkpt>
      <trkpt lat="48.84418" lon="2.33905">
        <ele>109.9</ele>
        <time>2015-07-20T18:27:48.566Z</time>
      </trkpt>
      <trkpt lat="48.84414" lon="2.33902">
        <ele>109.5</ele>
        <time>2015-07-20T18:27:49.562Z</time>
      </trkpt>
      <trkpt lat="48.84409" lon="2.339">
        <ele>109.1</ele>
        <time>2015-07-20T18:27:50.566Z</time>
      </trkpt>
      <trkpt lat="48.84405" lon="2.33898">
        <ele>108.4</ele>
        <time>2015-07-20T18:27:51.572Z</time>
      </trkpt>
      <trkpt lat="48.84396" lon="2.33893">
        <ele>108</ele>
        <time>2015-07-20T18:27:53.593Z</time>
      </trkpt>
      <trkpt lat="48.84392" lon="2.3389">
        <ele>108.2</ele>
        <time>2015-07-20T18:27:54.609Z</time>
      </trkpt>
      <trkpt lat="48.84384" lon="2.33883">
        <ele>108.4</ele>
        <time>2015-07-20T18:27:56.561Z</time>
      </trkpt>
      <trkpt lat="48.84381" lon="2.3388">
        <ele>108.6</ele>
        <time>2015-07-20T18:27:57.643Z</time>
      </trkpt>
      <trkpt lat="48.84373" lon="2.33874">
        <ele>108.7</ele>
        <time>2015-07-20T18:27:59.522Z</time>
      </trkpt>
      <trkpt lat="48.84369" lon="2.3387">
        <ele>108.6</ele>
        <time>2015-07-20T18:28:00.666Z</time>
      </trkpt>
      <trkpt lat="48.84363" lon="2.33863">
        <ele>108.7</ele>
        <time>2015-07-20T18:28:02.538Z</time>
      </trkpt>
      <trkpt lat="48.8436" lon="2.3386">
        <ele>108.7</ele>
        <time>2015-07-20T18:28:03.516Z</time>
      </trkpt>
      <trkpt lat="48.84354" lon="2.33857">
        <ele>109</ele>
        <time>2015-07-20T18:28:05.554Z</time>
      </trkpt>
      <trkpt lat="48.84351" lon="2.33855">
        <ele>109.2</ele>
        <time>2015-07-20T18:28:06.568Z</time>
      </trkpt>
      <trkpt lat="48.84344" lon="2.33851">
        <ele>109.5</ele>
        <time>2015-07-20T18:28:08.591Z</time>
      </trkpt>
      <trkpt lat="48.8434" lon="2.3385">
        <ele>109.8</ele>
        <time>2015-07-20T18:28:09.553Z</time>
      </trkpt>
      <trkpt lat="48.84336" lon="2.33848">
        <ele>110.1</ele>
        <time>2015-07-20T18:28:10.517Z</time>
      </trkpt>
      <trkpt lat="48.84331" lon="2.33846">
        <ele>110.4</ele>
        <time>2015-07-20T18:28:11.533Z</time>
      </trkpt>
      <trkpt lat="48.84326" lon="2.33843">
        <ele>110.6</ele>
        <time>2015-07-20T18:28:12.566Z</time>
      </trkpt>
      <trkpt lat="48.8432" lon="2.3384">
        <ele>110.9</ele>
        <time>2015-07-20T18:28:13.576Z</time>
      </trkpt>
      <trkpt lat="48.84314" lon="2.33837">
        <ele>111</ele>
        <time>2015-07-20T18:28:14.590Z</time>
      </trkpt>
      <trkpt lat="48.84308" lon="2.33833">
        <ele>111.2</ele>
        <time>2015-07-20T18:28:15.607Z</time>
      </trkpt>
      <trkpt lat="48.84303" lon="2.33831">
        <ele>111.3</ele>
        <time>2015-07-20T18:28:16.511Z</time>
      </trkpt>
      <trkpt lat="48.84298" lon="2.33829">
        <ele>111.4</ele>
        <time>2015-07-20T18:28:17.518Z</time>
      </trkpt>
      <trkpt lat="48.84292" lon="2.33829">
        <ele>111.8</ele>
        <time>2015-07-20T18:28:18.588Z</time>
      </trkpt>
      <trkpt lat="48.84287" lon="2.33827">
        <ele>111.7</ele>
        <time>2015-07-20T18:28:19.565Z</time>
      </trkpt>
      <trkpt lat="48.84283" lon="2.33825">
        <ele>111.7</ele>
        <time>2015-07-20T18:28:20.587Z</time>
      </trkpt>
      <trkpt lat="48.84277" lon="2.33822">
        <ele>111.9</ele>
        <time>2015-07-20T18:28:21.592Z</time>
      </trkpt>
      <trkpt lat="48.84272" lon="2.3382">
        <ele>112.1</ele>
        <time>2015-07-20T18:28:22.599Z</time>
      </trkpt>
      <trkpt lat="48.84267" lon="2.3382">
        <ele>112.2</ele>
        <time>2015-07-20T18:28:23.521Z</time>
      </trkpt>
      <trkpt lat="48.84262" lon="2.33819">
        <ele>112.4</ele>
        <time>2015-07-20T18:28:24.624Z</time>
      </trkpt>
      <trkpt lat="48.84258" lon="2.3382">
        <ele>112.5</ele>
        <time>2015-07-20T18:28:25.527Z</time>
      </trkpt>
      <trkpt lat="48.8425" lon="2.33815">
        <ele>112.4</ele>
        <time>2015-07-20T18:28:27.548Z</time>
      </trkpt>
      <trkpt lat="48.84246" lon="2.33813">
        <ele>112.4</ele>
        <time>2015-07-20T18:28:28.558Z</time>
      </trkpt>
      <trkpt lat="48.84238" lon="2.33808">
        <ele>112.6</ele>
        <time>2015-07-20T18:28:30.564Z</time>
      </trkpt>
      <trkpt lat="48.84234" lon="2.33805">
        <ele>112.7</ele>
        <time>2015-07-20T18:28:31.572Z</time>
      </trkpt>
      <trkpt lat="48.84228" lon="2.33799">
        <ele>112.9</ele>
        <time>2015-07-20T18:28:33.521Z</time>
      </trkpt>
      <trkpt lat="48.84225" lon="2.33796">
        <ele>113</ele>
        <time>2015-07-20T18:28:34.633Z</time>
      </trkpt>
      <trkpt lat="48.84218" lon="2.3379">
        <ele>113.1</ele>
        <time>2015-07-20T18:28:36.557Z</time>
      </trkpt>
      <trkpt lat="48.84215" lon="2.33787">
        <ele>113.2</ele>
        <time>2015-07-20T18:28:37.584Z</time>
      </trkpt>
      <trkpt lat="48.84208" lon="2.33781">
        <ele>113.6</ele>
        <time>2015-07-20T18:28:39.606Z</time>
      </trkpt>
      <trkpt lat="48.84203" lon="2.33779">
        <ele>113.6</ele>
        <time>2015-07-20T18:28:40.549Z</time>
      </trkpt>
      <trkpt lat="48.84198" lon="2.33778">
        <ele>113.2</ele>
        <time>2015-07-20T18:28:41.528Z</time>
      </trkpt>
      <trkpt lat="48.84193" lon="2.33778">
        <ele>112.6</ele>
        <time>2015-07-20T18:28:42.535Z</time>
      </trkpt>
      <trkpt lat="48.84188" lon="2.33775">
        <ele>112.6</ele>
        <time>2015-07-20T18:28:43.523Z</time>
      </trkpt>
      <trkpt lat="48.84184" lon="2.33772">
        <ele>112.5</ele>
        <time>2015-07-20T18:28:44.516Z</time>
      </trkpt>
      <trkpt lat="48.84177" lon="2.33766">
        <ele>112.5</ele>
        <time>2015-07-20T18:28:46.531Z</time>
      </trkpt>
      <trkpt lat="48.84173" lon="2.33762">
        <ele>112.7</ele>
        <time>2015-07-20T18:28:47.521Z</time>
      </trkpt>
      <trkpt lat="48.84169" lon="2.33758">
        <ele>112.9</ele>
        <time>2015-07-20T18:28:48.550Z</time>
      </trkpt>
      <trkpt lat="48.84165" lon="2.33754">
        <ele>113.1</ele>
        <time>2015-07-20T18:28:49.556Z</time>
      </trkpt>
      <trkpt lat="48.84161" lon="2.33751">
        <ele>113.2</ele>
        <time>2015-07-20T18:28:50.576Z</time>
      </trkpt>
      <trkpt lat="48.84157" lon="2.33749">
        <ele>113.5</ele>
        <time>2015-07-20T18:28:51.521Z</time>
      </trkpt>
      <trkpt lat="48.84152" lon="2.33748">
        <ele>113.7</ele>
        <time>2015-07-20T18:28:52.520Z</time>
      </trkpt>
      <trkpt lat="48.84147" lon="2.33746">
        <ele>113.8</ele>
        <time>2015-07-20T18:28:53.531Z</time>
      </trkpt>
      <trkpt lat="48.84142" lon="2.33744">
        <ele>114.1</ele>
        <time>2015-07-20T18:28:53.379Z</time>
      </trkpt>
      <trkpt lat="48.84138" lon="2.33742">
        <ele>114</ele>
        <time>2015-07-20T18:28:55.545Z</time>
      </trkpt>
      <trkpt lat="48.84133" lon="2.33739">
        <ele>113.9</ele>
        <time>2015-07-20T18:28:56.556Z</time>
      </trkpt>
      <trkpt lat="48.84129" lon="2.33736">
        <ele>113.8</ele>
        <time>2015-07-20T18:28:57.563Z</time>
      </trkpt>
      <trkpt lat="48.84125" lon="2.33734">
        <ele>113.8</ele>
        <time>2015-07-20T18:28:58.582Z</time>
      </trkpt>
      <trkpt lat="48.8412" lon="2.33731">
        <ele>113.8</ele>
        <time>2015-07-20T18:28:59.596Z</time>
      </trkpt>
      <trkpt lat="48.84115" lon="2.33727">
        <ele>114.2</ele>
        <time>2015-07-20T18:29:00.728Z</time>
      </trkpt>
      <trkpt lat="48.8411" lon="2.33723">
        <ele>114.5</ele>
        <time>2015-07-20T18:29:01.612Z</time>
      </trkpt>
      <trkpt lat="48.84105" lon="2.3372">
        <ele>114.5</ele>
        <time>2015-07-20T18:29:02.643Z</time>
      </trkpt>
      <trkpt lat="48.841" lon="2.33717">
        <ele>114.6</ele>
        <time>2015-07-20T18:29:03.720Z</time>
      </trkpt>
      <trkpt lat="48.84096" lon="2.33713">
        <ele>114.7</ele>
        <time>2015-07-20T18:29:04.547Z</time>
      </trkpt>
      <trkpt lat="48.84092" lon="2.3371">
        <ele>114.5</ele>
        <time>2015-07-20T18:29:05.570Z</time>
      </trkpt>
      <trkpt lat="48.84087" lon="2.33709">
        <ele>113.3</ele>
        <time>2015-07-20T18:29:06.575Z</time>
      </trkpt>
      <trkpt lat="48.84083" lon="2.33706">
        <ele>113.2</ele>
        <time>2015-07-20T18:29:07.597Z</time>
      </trkpt>
      <trkpt lat="48.84079" lon="2.33703">
        <ele>112.9</ele>
        <time>2015-07-20T18:29:08.784Z</time>
      </trkpt>
      <trkpt lat="48.84075" lon="2.337">
        <ele>112.5</ele>
        <time>2015-07-20T18:29:09.535Z</time>
      </trkpt>
      <trkpt lat="48.8407" lon="2.33697">
        <ele>112.3</ele>
        <time>2015-07-20T18:29:10.817Z</time>
      </trkpt>
      <trkpt lat="48.84066" lon="2.33694">
        <ele>112.1</ele>
        <time>2015-07-20T18:29:11.551Z</time>
      </trkpt>
      <trkpt lat="48.84061" lon="2.3369">
        <ele>112.1</ele>
        <time>2015-07-20T18:29:12.592Z</time>
      </trkpt>
      <trkpt lat="48.84057" lon="2.33688">
        <ele>112.2</ele>
        <time>2015-07-20T18:29:13.603Z</time>
      </trkpt>
      <trkpt lat="48.8405" lon="2.33681">
        <ele>112.2</ele>
        <time>2015-07-20T18:29:15.530Z</time>
      </trkpt>
      <trkpt lat="48.84047" lon="2.33677">
        <ele>112.2</ele>
        <time>2015-07-20T18:29:16.573Z</time>
      </trkpt>
      <trkpt lat="48.8404" lon="2.3367">
        <ele>112.1</ele>
        <time>2015-07-20T18:29:19.042Z</time>
      </trkpt>
      <trkpt lat="48.84035" lon="2.33668">
        <ele>111.9</ele>
        <time>2015-07-20T18:29:19.529Z</time>
      </trkpt>
      <trkpt lat="48.8403" lon="2.33664">
        <ele>112</ele>
        <time>2015-07-20T18:29:21.562Z</time>
      </trkpt>
      <trkpt lat="48.84027" lon="2.33663">
        <ele>112</ele>
        <time>2015-07-20T18:29:22.568Z</time>
      </trkpt>
      <trkpt lat="48.84019" lon="2.3366">
        <ele>112.2</ele>
        <time>2015-07-20T18:29:24.579Z</time>
      </trkpt>
      <trkpt lat="48.84016" lon="2.33658">
        <ele>112.2</ele>
        <time>2015-07-20T18:29:25.583Z</time>
      </trkpt>
      <trkpt lat="48.84009" lon="2.33654">
        <ele>112.3</ele>
        <time>2015-07-20T18:29:27.601Z</time>
      </trkpt>
      <trkpt lat="48.84006" lon="2.33652">
        <ele>112.6</ele>
        <time>2015-07-20T18:29:28.607Z</time>
      </trkpt>
      <trkpt lat="48.83999" lon="2.33649">
        <ele>113.1</ele>
        <time>2015-07-20T18:29:31.530Z</time>
      </trkpt>
      <trkpt lat="48.83996" lon="2.33648">
        <ele>113.3</ele>
        <time>2015-07-20T18:29:32.582Z</time>
      </trkpt>
      <trkpt lat="48.83988" lon="2.33648">
        <ele>114.2</ele>
        <time>2015-07-20T18:29:36.564Z</time>
      </trkpt>
      <trkpt lat="48.83987" lon="2.33649">
        <ele>114.2</ele>
        <time>2015-07-20T18:29:37.574Z</time>
      </trkpt>
      <trkpt lat="48.83981" lon="2.33657">
        <ele>114.5</ele>
        <time>2015-07-20T18:29:42.580Z</time>
      </trkpt>
      <trkpt lat="48.83979" lon="2.33659">
        <ele>114.5</ele>
        <time>2015-07-20T18:29:43.649Z</time>
      </trkpt>
      <trkpt lat="48.8397" lon="2.33661">
        <ele>115.4</ele>
        <time>2015-07-20T18:29:49.540Z</time>
      </trkpt>
      <trkpt lat="48.8397" lon="2.3366">
        <ele>115.4</ele>
        <time>2015-07-20T18:29:50.564Z</time>
      </trkpt>
      <trkpt lat="48.83972" lon="2.33658">
        <ele>114.9</ele>
        <time>2015-07-20T18:29:59.239Z</time>
      </trkpt>
      <trkpt lat="48.83972" lon="2.33659">
        <ele>114.7</ele>
        <time>2015-07-20T18:29:59.524Z</time>
      </trkpt>
      <trkpt lat="48.83971" lon="2.3366">
        <ele>114.8</ele>
        <time>2015-07-20T18:30:01.583Z</time>
      </trkpt>
      <trkpt lat="48.8397" lon="2.3366">
        <ele>114.9</ele>
        <time>2015-07-20T18:30:02.612Z</time>
      </trkpt>
      <trkpt lat="48.83963" lon="2.3366">
        <ele>115.1</ele>
        <time>2015-07-20T18:30:06.615Z</time>
      </trkpt>
      <trkpt lat="48.8396" lon="2.33661">
        <ele>115.1</ele>
        <time>2015-07-20T18:30:07.586Z</time>
      </trkpt>
      <trkpt lat="48.83954" lon="2.33662">
        <ele>114.4</ele>
        <time>2015-07-20T18:30:09.530Z</time>
      </trkpt>
      <trkpt lat="48.8395" lon="2.33663">
        <ele>114.3</ele>
        <time>2015-07-20T18:30:10.568Z</time>
      </trkpt>
      <trkpt lat="48.83943" lon="2.33664">
        <ele>114.2</ele>
        <time>2015-07-20T18:30:12.559Z</time>
      </trkpt>
      <trkpt lat="48.83939" lon="2.33664">
        <ele>114.3</ele>
        <time>2015-07-20T18:30:13.563Z</time>
      </trkpt>
      <trkpt lat="48.8393" lon="2.33665">
        <ele>114.8</ele>
        <time>2015-07-20T18:30:15.607Z</time>
      </trkpt>
      <trkpt lat="48.83926" lon="2.33666">
        <ele>115.1</ele>
        <time>2015-07-20T18:30:16.483Z</time>
      </trkpt>
      <trkpt lat="48.83921" lon="2.33666">
        <ele>115</ele>
        <time>2015-07-20T18:30:17.533Z</time>
      </trkpt>
      <trkpt lat="48.83916" lon="2.33667">
        <ele>115.2</ele>
        <time>2015-07-20T18:30:18.696Z</time>
      </trkpt>
      <trkpt lat="48.83912" lon="2.33667">
        <ele>115.1</ele>
        <time>2015-07-20T18:30:19.665Z</time>
      </trkpt>
      <trkpt lat="48.83907" lon="2.33667">
        <ele>115.2</ele>
        <time>2015-07-20T18:30:20.529Z</time>
      </trkpt>
      <trkpt lat="48.83902" lon="2.33668">
        <ele>115.9</ele>
        <time>2015-07-20T18:30:21.538Z</time>
      </trkpt>
      <trkpt lat="48.83897" lon="2.33669">
        <ele>116.2</ele>
        <time>2015-07-20T18:30:22.552Z</time>
      </trkpt>
      <trkpt lat="48.83891" lon="2.33671">
        <ele>117.8</ele>
        <time>2015-07-20T18:30:23.562Z</time>
      </trkpt>
      <trkpt lat="48.83885" lon="2.33672">
        <ele>118.7</ele>
        <time>2015-07-20T18:30:24.579Z</time>
      </trkpt>
      <trkpt lat="48.83879" lon="2.33671">
        <ele>118.6</ele>
        <time>2015-07-20T18:30:25.595Z</time>
      </trkpt>
      <trkpt lat="48.83873" lon="2.3367">
        <ele>118.6</ele>
        <time>2015-07-20T18:30:26.601Z</time>
      </trkpt>
      <trkpt lat="48.83867" lon="2.33668">
        <ele>118.6</ele>
        <time>2015-07-20T18:30:27.521Z</time>
      </trkpt>
      <trkpt lat="48.83862" lon="2.33665">
        <ele>118.6</ele>
        <time>2015-07-20T18:30:28.528Z</time>
      </trkpt>
      <trkpt lat="48.83856" lon="2.3366">
        <ele>118.6</ele>
        <time>2015-07-20T18:30:29.712Z</time>
      </trkpt>
      <trkpt lat="48.83849" lon="2.33656">
        <ele>118.7</ele>
        <time>2015-07-20T18:30:30.566Z</time>
      </trkpt>
      <trkpt lat="48.83843" lon="2.33651">
        <ele>118.8</ele>
        <time>2015-07-20T18:30:31.587Z</time>
      </trkpt>
      <trkpt lat="48.83837" lon="2.33646">
        <ele>119</ele>
        <time>2015-07-20T18:30:32.596Z</time>
      </trkpt>
      <trkpt lat="48.8383" lon="2.3364">
        <ele>118.8</ele>
        <time>2015-07-20T18:30:33.517Z</time>
      </trkpt>
      <trkpt lat="48.83824" lon="2.33635">
        <ele>119.1</ele>
        <time>2015-07-20T18:30:34.522Z</time>
      </trkpt>
      <trkpt lat="48.83817" lon="2.33629">
        <ele>119.5</ele>
        <time>2015-07-20T18:30:35.558Z</time>
      </trkpt>
      <trkpt lat="48.83811" lon="2.33623">
        <ele>119.8</ele>
        <time>2015-07-20T18:30:36.567Z</time>
      </trkpt>
      <trkpt lat="48.83804" lon="2.33618">
        <ele>120</ele>
        <time>2015-07-20T18:30:37.585Z</time>
      </trkpt>
      <trkpt lat="48.83797" lon="2.33614">
        <ele>120</ele>
        <time>2015-07-20T18:30:38.623Z</time>
      </trkpt>
      <trkpt lat="48.83788" lon="2.33611">
        <ele>121.8</ele>
        <time>2015-07-20T18:30:39.546Z</time>
      </trkpt>
      <trkpt lat="48.83782" lon="2.33605">
        <ele>121.6</ele>
        <time>2015-07-20T18:30:40.626Z</time>
      </trkpt>
      <trkpt lat="48.83775" lon="2.33597">
        <ele>121.4</ele>
        <time>2015-07-20T18:30:41.644Z</time>
      </trkpt>
      <trkpt lat="48.83769" lon="2.33588">
        <ele>121.5</ele>
        <time>2015-07-20T18:30:42.670Z</time>
      </trkpt>
      <trkpt lat="48.83763" lon="2.33581">
        <ele>122.1</ele>
        <time>2015-07-20T18:30:43.527Z</time>
      </trkpt>
      <trkpt lat="48.83757" lon="2.33573">
        <ele>123</ele>
        <time>2015-07-20T18:30:44.518Z</time>
      </trkpt>
      <trkpt lat="48.83751" lon="2.33566">
        <ele>123.5</ele>
        <time>2015-07-20T18:30:45.547Z</time>
      </trkpt>
      <trkpt lat="48.83745" lon="2.33558">
        <ele>123.8</ele>
        <time>2015-07-20T18:30:46.566Z</time>
      </trkpt>
      <trkpt lat="48.83738" lon="2.33551">
        <ele>124.4</ele>
        <time>2015-07-20T18:30:47.586Z</time>
      </trkpt>
      <trkpt lat="48.83732" lon="2.33543">
        <ele>124.6</ele>
        <time>2015-07-20T18:30:48.582Z</time>
      </trkpt>
      <trkpt lat="48.83726" lon="2.33536">
        <ele>124.6</ele>
        <time>2015-07-20T18:30:49.591Z</time>
      </trkpt>
      <trkpt lat="48.83719" lon="2.33528">
        <ele>124.6</ele>
        <time>2015-07-20T18:30:50.498Z</time>
      </trkpt>
      <trkpt lat="48.83713" lon="2.33521">
        <ele>124.2</ele>
        <time>2015-07-20T18:30:51.530Z</time>
      </trkpt>
      <trkpt lat="48.83707" lon="2.33514">
        <ele>124</ele>
        <time>2015-07-20T18:30:52.538Z</time>
      </trkpt>
      <trkpt lat="48.837" lon="2.33507">
        <ele>123.5</ele>
        <time>2015-07-20T18:30:53.544Z</time>
      </trkpt>
      <trkpt lat="48.83694" lon="2.335">
        <ele>123.7</ele>
        <time>2015-07-20T18:30:54.564Z</time>
      </trkpt>
      <trkpt lat="48.83688" lon="2.33494">
        <ele>124</ele>
        <time>2015-07-20T18:30:55.588Z</time>
      </trkpt>
      <trkpt lat="48.83682" lon="2.33487">
        <ele>123.7</ele>
        <time>2015-07-20T18:30:56.590Z</time>
      </trkpt>
      <trkpt lat="48.83676" lon="2.3348">
        <ele>123.2</ele>
        <time>2015-07-20T18:30:57.521Z</time>
      </trkpt>
      <trkpt lat="48.83669" lon="2.33474">
        <ele>122.9</ele>
        <time>2015-07-20T18:30:58.518Z</time>
      </trkpt>
      <trkpt lat="48.83662" lon="2.33468">
        <ele>122.6</ele>
        <time>2015-07-20T18:30:59.554Z</time>
      </trkpt>
      <trkpt lat="48.83655" lon="2.33462">
        <ele>122.7</ele>
        <time>2015-07-20T18:31:00.553Z</time>
      </trkpt>
      <trkpt lat="48.83649" lon="2.33456">
        <ele>123.2</ele>
        <time>2015-07-20T18:31:01.566Z</time>
      </trkpt>
      <trkpt lat="48.83643" lon="2.33449">
        <ele>123.5</ele>
        <time>2015-07-20T18:31:02.585Z</time>
      </trkpt>
      <trkpt lat="48.83637" lon="2.33442">
        <ele>123.7</ele>
        <time>2015-07-20T18:31:03.590Z</time>
      </trkpt>
      <trkpt lat="48.8363" lon="2.33435">
        <ele>123.9</ele>
        <time>2015-07-20T18:31:04.496Z</time>
      </trkpt>
      <trkpt lat="48.83624" lon="2.33428">
        <ele>124</ele>
        <time>2015-07-20T18:31:05.556Z</time>
      </trkpt>
      <trkpt lat="48.83617" lon="2.33422">
        <ele>124.4</ele>
        <time>2015-07-20T18:31:06.588Z</time>
      </trkpt>
      <trkpt lat="48.8361" lon="2.33415">
        <ele>124.8</ele>
        <time>2015-07-20T18:31:07.582Z</time>
      </trkpt>
      <trkpt lat="48.83602" lon="2.33411">
        <ele>126.9</ele>
        <time>2015-07-20T18:31:08.590Z</time>
      </trkpt>
      <trkpt lat="48.83595" lon="2.33406">
        <ele>127.6</ele>
        <time>2015-07-20T18:31:09.521Z</time>
      </trkpt>
      <trkpt lat="48.83588" lon="2.334">
        <ele>128.5</ele>
        <time>2015-07-20T18:31:10.520Z</time>
      </trkpt>
      <trkpt lat="48.83581" lon="2.33395">
        <ele>128.7</ele>
        <time>2015-07-20T18:31:11.519Z</time>
      </trkpt>
      <trkpt lat="48.83574" lon="2.3339">
        <ele>128.4</ele>
        <time>2015-07-20T18:31:12.586Z</time>
      </trkpt>
      <trkpt lat="48.83568" lon="2.33384">
        <ele>129.1</ele>
        <time>2015-07-20T18:31:13.575Z</time>
      </trkpt>
      <trkpt lat="48.83562" lon="2.33378">
        <ele>129.3</ele>
        <time>2015-07-20T18:31:14.584Z</time>
      </trkpt>
      <trkpt lat="48.83555" lon="2.33372">
        <ele>129.9</ele>
        <time>2015-07-20T18:31:15.590Z</time>
      </trkpt>
      <trkpt lat="48.83548" lon="2.33367">
        <ele>130.3</ele>
        <time>2015-07-20T18:31:16.596Z</time>
      </trkpt>
      <trkpt lat="48.83543" lon="2.3336">
        <ele>130.4</ele>
        <time>2015-07-20T18:31:17.604Z</time>
      </trkpt>
      <trkpt lat="48.83538" lon="2.33353">
        <ele>130.5</ele>
        <time>2015-07-20T18:31:18.619Z</time>
      </trkpt>
      <trkpt lat="48.83532" lon="2.33348">
        <ele>130.8</ele>
        <time>2015-07-20T18:31:19.518Z</time>
      </trkpt>
      <trkpt lat="48.83526" lon="2.33343">
        <ele>130.8</ele>
        <time>2015-07-20T18:31:20.523Z</time>
      </trkpt>
      <trkpt lat="48.83521" lon="2.33339">
        <ele>131.2</ele>
        <time>2015-07-20T18:31:21.542Z</time>
      </trkpt>
      <trkpt lat="48.83516" lon="2.33334">
        <ele>130.8</ele>
        <time>2015-07-20T18:31:22.568Z</time>
      </trkpt>
      <trkpt lat="48.8351" lon="2.33331">
        <ele>130.9</ele>
        <time>2015-07-20T18:31:23.588Z</time>
      </trkpt>
      <trkpt lat="48.83505" lon="2.33327">
        <ele>130.9</ele>
        <time>2015-07-20T18:31:24.615Z</time>
      </trkpt>
      <trkpt lat="48.835" lon="2.33323">
        <ele>130.8</ele>
        <time>2015-07-20T18:31:25.547Z</time>
      </trkpt>
      <trkpt lat="48.83496" lon="2.3332">
        <ele>130.8</ele>
        <time>2015-07-20T18:31:26.543Z</time>
      </trkpt>
      <trkpt lat="48.83491" lon="2.33316">
        <ele>130.7</ele>
        <time>2015-07-20T18:31:27.581Z</time>
      </trkpt>
      <trkpt lat="48.83486" lon="2.33313">
        <ele>130.6</ele>
        <time>2015-07-20T18:31:28.600Z</time>
      </trkpt>
      <trkpt lat="48.83481" lon="2.33311">
        <ele>130.5</ele>
        <time>2015-07-20T18:31:29.520Z</time>
      </trkpt>
      <trkpt lat="48.83477" lon="2.33308">
        <ele>130.4</ele>
        <time>2015-07-20T18:31:30.564Z</time>
      </trkpt>
      <trkpt lat="48.83471" lon="2.33301">
        <ele>130.7</ele>
        <time>2015-07-20T18:31:32.575Z</time>
      </trkpt>
      <trkpt lat="48.83469" lon="2.33296">
        <ele>131.2</ele>
        <time>2015-07-20T18:31:33.613Z</time>
      </trkpt>
      <trkpt lat="48.83465" lon="2.33287">
        <ele>131.2</ele>
        <time>2015-07-20T18:31:35.536Z</time>
      </trkpt>
      <trkpt lat="48.83464" lon="2.33284">
        <ele>131.1</ele>
        <time>2015-07-20T18:31:36.590Z</time>
      </trkpt>
      <trkpt lat="48.83463" lon="2.33279">
        <ele>131.4</ele>
        <time>2015-07-20T18:32:25.500Z</time>
      </trkpt>
      <trkpt lat="48.83477" lon="2.33264">
        <ele>123.4</ele>
        <time>2015-07-20T18:32:26.561Z</time>
      </trkpt>
      <trkpt lat="48.83471" lon="2.33259">
        <ele>122.8</ele>
        <time>2015-07-20T18:32:28.515Z</time>
      </trkpt>
      <trkpt lat="48.83467" lon="2.33255">
        <ele>122.4</ele>
        <time>2015-07-20T18:32:29.576Z</time>
      </trkpt>
      <trkpt lat="48.8346" lon="2.33248">
        <ele>122</ele>
        <time>2015-07-20T18:32:31.517Z</time>
      </trkpt>
      <trkpt lat="48.83455" lon="2.33245">
        <ele>121.8</ele>
        <time>2015-07-20T18:32:32.555Z</time>
      </trkpt>
      <trkpt lat="48.83448" lon="2.33239">
        <ele>121.4</ele>
        <time>2015-07-20T18:32:34.479Z</time>
      </trkpt>
      <trkpt lat="48.83444" lon="2.33237">
        <ele>121.3</ele>
        <time>2015-07-20T18:32:35.537Z</time>
      </trkpt>
      <trkpt lat="48.83436" lon="2.33234">
        <ele>120.8</ele>
        <time>2015-07-20T18:32:37.485Z</time>
      </trkpt>
      <trkpt lat="48.83433" lon="2.33232">
        <ele>120.3</ele>
        <time>2015-07-20T18:32:38.485Z</time>
      </trkpt>
      <trkpt lat="48.83426" lon="2.33229">
        <ele>120.2</ele>
        <time>2015-07-20T18:32:40.557Z</time>
      </trkpt>
      <trkpt lat="48.83423" lon="2.33227">
        <ele>120.2</ele>
        <time>2015-07-20T18:32:41.583Z</time>
      </trkpt>
      <trkpt lat="48.83418" lon="2.33223">
        <ele>120.4</ele>
        <time>2015-07-20T18:32:44.021Z</time>
      </trkpt>
      <trkpt lat="48.83415" lon="2.33221">
        <ele>120</ele>
        <time>2015-07-20T18:32:44.574Z</time>
      </trkpt>
      <trkpt lat="48.83409" lon="2.33216">
        <ele>119.2</ele>
        <time>2015-07-20T18:32:46.538Z</time>
      </trkpt>
      <trkpt lat="48.83405" lon="2.33214">
        <ele>119.1</ele>
        <time>2015-07-20T18:32:47.566Z</time>
      </trkpt>
      <trkpt lat="48.83398" lon="2.33209">
        <ele>118.9</ele>
        <time>2015-07-20T18:32:49.597Z</time>
      </trkpt>
      <trkpt lat="48.83395" lon="2.33206">
        <ele>118.8</ele>
        <time>2015-07-20T18:32:50.526Z</time>
      </trkpt>
      <trkpt lat="48.83388" lon="2.33202">
        <ele>118.6</ele>
        <time>2015-07-20T18:32:54.157Z</time>
      </trkpt>
      <trkpt lat="48.83386" lon="2.332">
        <ele>118.5</ele>
        <time>2015-07-20T18:32:54.603Z</time>
      </trkpt>
      <trkpt lat="48.8338" lon="2.33191">
        <ele>117.7</ele>
        <time>2015-07-20T18:32:59.236Z</time>
      </trkpt>
      <trkpt lat="48.83379" lon="2.33189">
        <ele>117.4</ele>
        <time>2015-07-20T18:32:59.609Z</time>
      </trkpt>
      <trkpt lat="48.83373" lon="2.33182">
        <ele>115.7</ele>
        <time>2015-07-20T18:33:18.651Z</time>
      </trkpt>
      <trkpt lat="48.83371" lon="2.33182">
        <ele>115.9</ele>
        <time>2015-07-20T18:33:19.515Z</time>
      </trkpt>
      <trkpt lat="48.83363" lon="2.33176">
        <ele>115.6</ele>
        <time>2015-07-20T18:33:23.596Z</time>
      </trkpt>
      <trkpt lat="48.8336" lon="2.33175">
        <ele>115.9</ele>
        <time>2015-07-20T18:33:24.596Z</time>
      </trkpt>
      <trkpt lat="48.83355" lon="2.33171">
        <ele>116.4</ele>
        <time>2015-07-20T18:33:26.517Z</time>
      </trkpt>
      <trkpt lat="48.83352" lon="2.33169">
        <ele>116.5</ele>
        <time>2015-07-20T18:33:27.576Z</time>
      </trkpt>
      <trkpt lat="48.83346" lon="2.33164">
        <ele>116.8</ele>
        <time>2015-07-20T18:33:29.484Z</time>
      </trkpt>
      <trkpt lat="48.83343" lon="2.33162">
        <ele>116.8</ele>
        <time>2015-07-20T18:33:30.556Z</time>
      </trkpt>
      <trkpt lat="48.83336" lon="2.33158">
        <ele>116.9</ele>
        <time>2015-07-20T18:33:32.573Z</time>
      </trkpt>
      <trkpt lat="48.83332" lon="2.33157">
        <ele>117.2</ele>
        <time>2015-07-20T18:33:33.495Z</time>
      </trkpt>
      <trkpt lat="48.83325" lon="2.33151">
        <ele>118.3</ele>
        <time>2015-07-20T18:33:35.554Z</time>
      </trkpt>
      <trkpt lat="48.83321" lon="2.33148">
        <ele>119.2</ele>
        <time>2015-07-20T18:33:36.596Z</time>
      </trkpt>
      <trkpt lat="48.83314" lon="2.33143">
        <ele>120.9</ele>
        <time>2015-07-20T18:33:38.537Z</time>
      </trkpt>
      <trkpt lat="48.8331" lon="2.33141">
        <ele>121.5</ele>
        <time>2015-07-20T18:33:39.592Z</time>
      </trkpt>
      <trkpt lat="48.83304" lon="2.33136">
        <ele>121.8</ele>
        <time>2015-07-20T18:33:41.561Z</time>
      </trkpt>
      <trkpt lat="48.83301" lon="2.33134">
        <ele>121.7</ele>
        <time>2015-07-20T18:33:42.613Z</time>
      </trkpt>
      <trkpt lat="48.83294" lon="2.33129">
        <ele>121.5</ele>
        <time>2015-07-20T18:33:44.529Z</time>
      </trkpt>
      <trkpt lat="48.8329" lon="2.33126">
        <ele>121.1</ele>
        <time>2015-07-20T18:33:45.593Z</time>
      </trkpt>
      <trkpt lat="48.83286" lon="2.33123">
        <ele>121.2</ele>
        <time>2015-07-20T18:33:46.555Z</time>
      </trkpt>
      <trkpt lat="48.83282" lon="2.33119">
        <ele>121.4</ele>
        <time>2015-07-20T18:33:47.555Z</time>
      </trkpt>
      <trkpt lat="48.83277" lon="2.33115">
        <ele>121.4</ele>
        <time>2015-07-20T18:33:48.577Z</time>
      </trkpt>
      <trkpt lat="48.83272" lon="2.33112">
        <ele>121.3</ele>
        <time>2015-07-20T18:33:49.614Z</time>
      </trkpt>
      <trkpt lat="48.83268" lon="2.33108">
        <ele>121.3</ele>
        <time>2015-07-20T18:33:50.516Z</time>
      </trkpt>
      <trkpt lat="48.83264" lon="2.33105">
        <ele>121.2</ele>
        <time>2015-07-20T18:33:51.522Z</time>
      </trkpt>
      <trkpt lat="48.83259" lon="2.33102">
        <ele>121.2</ele>
        <time>2015-07-20T18:33:52.552Z</time>
      </trkpt>
      <trkpt lat="48.83254" lon="2.33099">
        <ele>121.2</ele>
        <time>2015-07-20T18:33:53.581Z</time>
      </trkpt>
      <trkpt lat="48.83247" lon="2.33093">
        <ele>121.5</ele>
        <time>2015-07-20T18:33:55.514Z</time>
      </trkpt>
      <trkpt lat="48.83243" lon="2.33089">
        <ele>122.1</ele>
        <time>2015-07-20T18:33:56.545Z</time>
      </trkpt>
      <trkpt lat="48.83238" lon="2.33084">
        <ele>122.7</ele>
        <time>2015-07-20T18:33:58.533Z</time>
      </trkpt>
      <trkpt lat="48.83236" lon="2.33082">
        <ele>122.6</ele>
        <time>2015-07-20T18:33:59.541Z</time>
      </trkpt>
      <trkpt lat="48.83228" lon="2.33076">
        <ele>122.4</ele>
        <time>2015-07-20T18:34:03.537Z</time>
      </trkpt>
      <trkpt lat="48.83226" lon="2.33071">
        <ele>121.9</ele>
        <time>2015-07-20T18:34:04.547Z</time>
      </trkpt>
      <trkpt lat="48.83224" lon="2.33058">
        <ele>120.7</ele>
        <time>2015-07-20T18:34:06.586Z</time>
      </trkpt>
      <trkpt lat="48.83224" lon="2.33051">
        <ele>119.9</ele>
        <time>2015-07-20T18:34:07.598Z</time>
      </trkpt>
      <trkpt lat="48.83225" lon="2.3304">
        <ele>119.7</ele>
        <time>2015-07-20T18:34:09.531Z</time>
      </trkpt>
      <trkpt lat="48.83226" lon="2.33036">
        <ele>120</ele>
        <time>2015-07-20T18:34:10.539Z</time>
      </trkpt>
      <trkpt lat="48.83229" lon="2.33027">
        <ele>119.5</ele>
        <time>2015-07-20T18:34:12.546Z</time>
      </trkpt>
      <trkpt lat="48.83231" lon="2.33023">
        <ele>119</ele>
        <time>2015-07-20T18:34:13.574Z</time>
      </trkpt>
      <trkpt lat="48.83235" lon="2.33015">
        <ele>118.6</ele>
        <time>2015-07-20T18:34:15.506Z</time>
      </trkpt>
      <trkpt lat="48.83237" lon="2.33011">
        <ele>118.4</ele>
        <time>2015-07-20T18:34:16.522Z</time>
      </trkpt>
      <trkpt lat="48.83238" lon="2.33001">
        <ele>118.2</ele>
        <time>2015-07-20T18:34:18.557Z</time>
      </trkpt>
      <trkpt lat="48.83238" lon="2.32995">
        <ele>118.2</ele>
        <time>2015-07-20T18:34:19.567Z</time>
      </trkpt>
      <trkpt lat="48.83237" lon="2.32982">
        <ele>118.3</ele>
        <time>2015-07-20T18:34:21.497Z</time>
      </trkpt>
      <trkpt lat="48.83239" lon="2.32976">
        <ele>118.5</ele>
        <time>2015-07-20T18:34:22.586Z</time>
      </trkpt>
      <trkpt lat="48.83244" lon="2.32965">
        <ele>117.9</ele>
        <time>2015-07-20T18:34:24.549Z</time>
      </trkpt>
      <trkpt lat="48.83244" lon="2.32958">
        <ele>117.7</ele>
        <time>2015-07-20T18:34:25.476Z</time>
      </trkpt>
      <trkpt lat="48.83245" lon="2.32946">
        <ele>117.2</ele>
        <time>2015-07-20T18:34:27.518Z</time>
      </trkpt>
      <trkpt lat="48.83247" lon="2.3294">
        <ele>116.9</ele>
        <time>2015-07-20T18:34:28.520Z</time>
      </trkpt>
      <trkpt lat="48.8325" lon="2.32929">
        <ele>116.4</ele>
        <time>2015-07-20T18:34:30.568Z</time>
      </trkpt>
      <trkpt lat="48.83251" lon="2.32924">
        <ele>116.2</ele>
        <time>2015-07-20T18:34:31.562Z</time>
      </trkpt>
      <trkpt lat="48.83251" lon="2.32913">
        <ele>115.9</ele>
        <time>2015-07-20T18:34:33.519Z</time>
      </trkpt>
      <trkpt lat="48.83252" lon="2.32909">
        <ele>116</ele>
        <time>2015-07-20T18:34:34.534Z</time>
      </trkpt>
      <trkpt lat="48.83257" lon="2.32899">
        <ele>115.8</ele>
        <time>2015-07-20T18:34:36.555Z</time>
      </trkpt>
      <trkpt lat="48.83259" lon="2.32894">
        <ele>115.6</ele>
        <time>2015-07-20T18:34:37.567Z</time>
      </trkpt>
      <trkpt lat="48.83262" lon="2.32883">
        <ele>115.5</ele>
        <time>2015-07-20T18:34:39.502Z</time>
      </trkpt>
      <trkpt lat="48.83263" lon="2.32877">
        <ele>115.7</ele>
        <time>2015-07-20T18:34:40.538Z</time>
      </trkpt>
      <trkpt lat="48.83267" lon="2.32868">
        <ele>115.6</ele>
        <time>2015-07-20T18:34:42.554Z</time>
      </trkpt>
      <trkpt lat="48.83271" lon="2.32862">
        <ele>114.6</ele>
        <time>2015-07-20T18:34:43.568Z</time>
      </trkpt>
      <trkpt lat="48.83274" lon="2.32856">
        <ele>113.8</ele>
        <time>2015-07-20T18:34:44.579Z</time>
      </trkpt>
      <trkpt lat="48.83278" lon="2.32851">
        <ele>113.5</ele>
        <time>2015-07-20T18:34:45.592Z</time>
      </trkpt>
      <trkpt lat="48.83281" lon="2.32845">
        <ele>113.3</ele>
        <time>2015-07-20T18:34:46.507Z</time>
      </trkpt>
      <trkpt lat="48.83285" lon="2.3284">
        <ele>113.6</ele>
        <time>2015-07-20T18:34:47.502Z</time>
      </trkpt>
      <trkpt lat="48.83288" lon="2.32828">
        <ele>114.1</ele>
        <time>2015-07-20T18:34:49.662Z</time>
      </trkpt>
      <trkpt lat="48.83289" lon="2.32822">
        <ele>114.5</ele>
        <time>2015-07-20T18:34:50.546Z</time>
      </trkpt>
      <trkpt lat="48.83291" lon="2.32813">
        <ele>115.5</ele>
        <time>2015-07-20T18:34:52.563Z</time>
      </trkpt>
      <trkpt lat="48.83291" lon="2.32807">
        <ele>115.7</ele>
        <time>2015-07-20T18:34:53.578Z</time>
      </trkpt>
      <trkpt lat="48.83291" lon="2.32795">
        <ele>116.4</ele>
        <time>2015-07-20T18:34:56.525Z</time>
      </trkpt>
      <trkpt lat="48.83293" lon="2.32793">
        <ele>116.3</ele>
        <time>2015-07-20T18:34:57.533Z</time>
      </trkpt>
      <trkpt lat="48.83298" lon="2.32783">
        <ele>116.6</ele>
        <time>2015-07-20T18:35:00.593Z</time>
      </trkpt>
      <trkpt lat="48.83299" lon="2.32779">
        <ele>116.8</ele>
        <time>2015-07-20T18:35:01.524Z</time>
      </trkpt>
      <trkpt lat="48.83302" lon="2.32769">
        <ele>116.9</ele>
        <time>2015-07-20T18:35:04.538Z</time>
      </trkpt>
      <trkpt lat="48.83303" lon="2.32765">
        <ele>117.2</ele>
        <time>2015-07-20T18:35:05.541Z</time>
      </trkpt>
      <trkpt lat="48.833" lon="2.32755">
        <ele>117.7</ele>
        <time>2015-07-20T18:35:08.762Z</time>
      </trkpt>
      <trkpt lat="48.83297" lon="2.32752">
        <ele>117.9</ele>
        <time>2015-07-20T18:35:09.601Z</time>
      </trkpt>
      <trkpt lat="48.8329" lon="2.32746">
        <ele>118.4</ele>
        <time>2015-07-20T18:35:11.584Z</time>
      </trkpt>
      <trkpt lat="48.83286" lon="2.32743">
        <ele>118.6</ele>
        <time>2015-07-20T18:35:12.599Z</time>
      </trkpt>
      <trkpt lat="48.83281" lon="2.32733">
        <ele>119</ele>
        <time>2015-07-20T18:35:14.531Z</time>
      </trkpt>
      <trkpt lat="48.8328" lon="2.32727">
        <ele>119.1</ele>
        <time>2015-07-20T18:35:15.532Z</time>
      </trkpt>
      <trkpt lat="48.83281" lon="2.32719">
        <ele>117.1</ele>
        <time>2015-07-20T18:36:12.599Z</time>
      </trkpt>
      <trkpt lat="48.83277" lon="2.32705">
        <ele>113.7</ele>
        <time>2015-07-20T18:36:13.515Z</time>
      </trkpt>
      <trkpt lat="48.83278" lon="2.32715">
        <ele>112.6</ele>
        <time>2015-07-20T18:36:16.511Z</time>
      </trkpt>
      <trkpt lat="48.83279" lon="2.32719">
        <ele>112.7</ele>
        <time>2015-07-20T18:36:17.581Z</time>
      </trkpt>
      <trkpt lat="48.83283" lon="2.3273">
        <ele>112.4</ele>
        <time>2015-07-20T18:36:20.521Z</time>
      </trkpt>
      <trkpt lat="48.83284" lon="2.32733">
        <ele>112.5</ele>
        <time>2015-07-20T18:36:21.531Z</time>
      </trkpt>
      <trkpt lat="48.83289" lon="2.32744">
        <ele>112.4</ele>
        <time>2015-07-20T18:36:29.588Z</time>
      </trkpt>
      <trkpt lat="48.83291" lon="2.32746">
        <ele>113.1</ele>
        <time>2015-07-20T18:36:30.590Z</time>
      </trkpt>
      <trkpt lat="48.83291" lon="2.32759">
        <ele>114.3</ele>
        <time>2015-07-20T18:36:33.717Z</time>
      </trkpt>
      <trkpt lat="48.83291" lon="2.32766">
        <ele>114.3</ele>
        <time>2015-07-20T18:36:34.600Z</time>
      </trkpt>
      <trkpt lat="48.8329" lon="2.32775">
        <ele>114.2</ele>
        <time>2015-07-20T18:36:35.534Z</time>
      </trkpt>
      <trkpt lat="48.83289" lon="2.32784">
        <ele>114.7</ele>
        <time>2015-07-20T18:36:36.583Z</time>
      </trkpt>
      <trkpt lat="48.83289" lon="2.32793">
        <ele>114.8</ele>
        <time>2015-07-20T18:36:37.602Z</time>
      </trkpt>
      <trkpt lat="48.8329" lon="2.32801">
        <ele>114.9</ele>
        <time>2015-07-20T18:36:38.528Z</time>
      </trkpt>
      <trkpt lat="48.83291" lon="2.32813">
        <ele>115</ele>
        <time>2015-07-20T18:36:41.535Z</time>
      </trkpt>
      <trkpt lat="48.83291" lon="2.32815">
        <ele>115.1</ele>
        <time>2015-07-20T18:36:42.579Z</time>
      </trkpt>
      <trkpt lat="48.83296" lon="2.32823">
        <ele>115.5</ele>
        <time>2015-07-20T18:36:44.593Z</time>
      </trkpt>
      <trkpt lat="48.83299" lon="2.32827">
        <ele>115.6</ele>
        <time>2015-07-20T18:36:45.601Z</time>
      </trkpt>
      <trkpt lat="48.83304" lon="2.32837">
        <ele>115.8</ele>
        <time>2015-07-20T18:36:47.543Z</time>
      </trkpt>
      <trkpt lat="48.83307" lon="2.32842">
        <ele>115.9</ele>
        <time>2015-07-20T18:36:48.574Z</time>
      </trkpt>
      <trkpt lat="48.8331" lon="2.32848">
        <ele>115.9</ele>
        <time>2015-07-20T18:36:49.577Z</time>
      </trkpt>
      <trkpt lat="48.83314" lon="2.32853">
        <ele>115.9</ele>
        <time>2015-07-20T18:36:50.601Z</time>
      </trkpt>
      <trkpt lat="48.83322" lon="2.32859">
        <ele>116.5</ele>
        <time>2015-07-20T18:36:52.522Z</time>
      </trkpt>
      <trkpt lat="48.83332" lon="2.32857">
        <ele>115.8</ele>
        <time>2015-07-20T18:36:53.518Z</time>
      </trkpt>
      <trkpt lat="48.83338" lon="2.32859">
        <ele>115.7</ele>
        <time>2015-07-20T18:36:54.559Z</time>
      </trkpt>
      <trkpt lat="48.83342" lon="2.32863">
        <ele>115.8</ele>
        <time>2015-07-20T18:36:55.559Z</time>
      </trkpt>
      <trkpt lat="48.83346" lon="2.32867">
        <ele>116</ele>
        <time>2015-07-20T18:36:56.561Z</time>
      </trkpt>
      <trkpt lat="48.83349" lon="2.32873">
        <ele>116</ele>
        <time>2015-07-20T18:36:57.576Z</time>
      </trkpt>
      <trkpt lat="48.83355" lon="2.32881">
        <ele>116.2</ele>
        <time>2015-07-20T18:36:59.522Z</time>
      </trkpt>
      <trkpt lat="48.83359" lon="2.32885">
        <ele>116.1</ele>
        <time>2015-07-20T18:37:00.544Z</time>
      </trkpt>
      <trkpt lat="48.83364" lon="2.32888">
        <ele>115.9</ele>
        <time>2015-07-20T18:37:01.568Z</time>
      </trkpt>
      <trkpt lat="48.83371" lon="2.32892">
        <ele>115.8</ele>
        <time>2015-07-20T18:37:02.586Z</time>
      </trkpt>
      <trkpt lat="48.83377" lon="2.32896">
        <ele>115.7</ele>
        <time>2015-07-20T18:37:03.515Z</time>
      </trkpt>
      <trkpt lat="48.83382" lon="2.32899">
        <ele>115.8</ele>
        <time>2015-07-20T18:37:04.516Z</time>
      </trkpt>
      <trkpt lat="48.83386" lon="2.32902">
        <ele>115.8</ele>
        <time>2015-07-20T18:37:05.544Z</time>
      </trkpt>
      <trkpt lat="48.8339" lon="2.32905">
        <ele>116.3</ele>
        <time>2015-07-20T18:37:06.615Z</time>
      </trkpt>
      <trkpt lat="48.83393" lon="2.32906">
        <ele>116.7</ele>
        <time>2015-07-20T18:37:07.517Z</time>
      </trkpt>
      <trkpt lat="48.83399" lon="2.32905">
        <ele>114.6</ele>
        <time>2015-07-20T18:37:08.516Z</time>
      </trkpt>
      <trkpt lat="48.83407" lon="2.32911">
        <ele>115.2</ele>
        <time>2015-07-20T18:37:10.547Z</time>
      </trkpt>
      <trkpt lat="48.83411" lon="2.32916">
        <ele>115.7</ele>
        <time>2015-07-20T18:37:11.565Z</time>
      </trkpt>
      <trkpt lat="48.83415" lon="2.3292">
        <ele>116.1</ele>
        <time>2015-07-20T18:37:12.615Z</time>
      </trkpt>
      <trkpt lat="48.83419" lon="2.32925">
        <ele>116.2</ele>
        <time>2015-07-20T18:37:13.518Z</time>
      </trkpt>
      <trkpt lat="48.83426" lon="2.32932">
        <ele>116.8</ele>
        <time>2015-07-20T18:37:15.514Z</time>
      </trkpt>
      <trkpt lat="48.83429" lon="2.32934">
        <ele>116.9</ele>
        <time>2015-07-20T18:37:16.535Z</time>
      </trkpt>
      <trkpt lat="48.83436" lon="2.32939">
        <ele>117.2</ele>
        <time>2015-07-20T18:37:18.574Z</time>
      </trkpt>
      <trkpt lat="48.83438" lon="2.32941">
        <ele>117.6</ele>
        <time>2015-07-20T18:37:19.593Z</time>
      </trkpt>
      <trkpt lat="48.83444" lon="2.32946">
        <ele>117</ele>
        <time>2015-07-20T18:37:21.513Z</time>
      </trkpt>
      <trkpt lat="48.83448" lon="2.32954">
        <ele>116.6</ele>
        <time>2015-07-20T18:37:22.531Z</time>
      </trkpt>
      <trkpt lat="48.83452" lon="2.32959">
        <ele>116.7</ele>
        <time>2015-07-20T18:37:23.548Z</time>
      </trkpt>
      <trkpt lat="48.83455" lon="2.32963">
        <ele>116.9</ele>
        <time>2015-07-20T18:37:24.564Z</time>
      </trkpt>
      <trkpt lat="48.83459" lon="2.32967">
        <ele>117.2</ele>
        <time>2015-07-20T18:37:25.575Z</time>
      </trkpt>
      <trkpt lat="48.83468" lon="2.32972">
        <ele>117.6</ele>
        <time>2015-07-20T18:37:26.587Z</time>
      </trkpt>
      <trkpt lat="48.83475" lon="2.32976">
        <ele>117.8</ele>
        <time>2015-07-20T18:37:27.650Z</time>
      </trkpt>
      <trkpt lat="48.8348" lon="2.32981">
        <ele>118.2</ele>
        <time>2015-07-20T18:37:28.519Z</time>
      </trkpt>
      <trkpt lat="48.83485" lon="2.32986">
        <ele>118.5</ele>
        <time>2015-07-20T18:37:29.521Z</time>
      </trkpt>
      <trkpt lat="48.83486" lon="2.32991">
        <ele>118.4</ele>
        <time>2015-07-20T18:37:30.576Z</time>
      </trkpt>
      <trkpt lat="48.83486" lon="2.33005">
        <ele>119</ele>
        <time>2015-07-20T18:37:33.608Z</time>
      </trkpt>
      <trkpt lat="48.83484" lon="2.33009">
        <ele>118.6</ele>
        <time>2015-07-20T18:37:34.560Z</time>
      </trkpt>
      <trkpt lat="48.8348" lon="2.33017">
        <ele>118.1</ele>
        <time>2015-07-20T18:37:36.560Z</time>
      </trkpt>
      <trkpt lat="48.83478" lon="2.33022">
        <ele>118.5</ele>
        <time>2015-07-20T18:37:37.570Z</time>
      </trkpt>
      <trkpt lat="48.83474" lon="2.33031">
        <ele>118.4</ele>
        <time>2015-07-20T18:37:39.517Z</time>
      </trkpt>
      <trkpt lat="48.8347" lon="2.33037">
        <ele>118.1</ele>
        <time>2015-07-20T18:37:40.541Z</time>
      </trkpt>
      <trkpt lat="48.83464" lon="2.33046">
        <ele>117.4</ele>
        <time>2015-07-20T18:37:42.558Z</time>
      </trkpt>
      <trkpt lat="48.8346" lon="2.3305">
        <ele>116.9</ele>
        <time>2015-07-20T18:37:43.955Z</time>
      </trkpt>
      <trkpt lat="48.83455" lon="2.33059">
        <ele>116</ele>
        <time>2015-07-20T18:37:45.520Z</time>
      </trkpt>
      <trkpt lat="48.83452" lon="2.33064">
        <ele>115.4</ele>
        <time>2015-07-20T18:37:46.493Z</time>
      </trkpt>
      <trkpt lat="48.83446" lon="2.33069">
        <ele>114.4</ele>
        <time>2015-07-20T18:37:48.559Z</time>
      </trkpt>
      <trkpt lat="48.83444" lon="2.33072">
        <ele>113.9</ele>
        <time>2015-07-20T18:37:49.575Z</time>
      </trkpt>
      <trkpt lat="48.8344" lon="2.3308">
        <ele>113</ele>
        <time>2015-07-20T18:37:51.514Z</time>
      </trkpt>
      <trkpt lat="48.83438" lon="2.33084">
        <ele>112.5</ele>
        <time>2015-07-20T18:37:52.520Z</time>
      </trkpt>
      <trkpt lat="48.83432" lon="2.3309">
        <ele>112.5</ele>
        <time>2015-07-20T18:37:54.575Z</time>
      </trkpt>
      <trkpt lat="48.83429" lon="2.33092">
        <ele>112.4</ele>
        <time>2015-07-20T18:37:55.586Z</time>
      </trkpt>
      <trkpt lat="48.83421" lon="2.33098">
        <ele>111.8</ele>
        <time>2015-07-20T18:37:58.370Z</time>
      </trkpt>
      <trkpt lat="48.83417" lon="2.33101">
        <ele>111.9</ele>
        <time>2015-07-20T18:37:58.490Z</time>
      </trkpt>
      <trkpt lat="48.83413" lon="2.33105">
        <ele>111.7</ele>
        <time>2015-07-20T18:37:59.489Z</time>
      </trkpt>
      <trkpt lat="48.83409" lon="2.33108">
        <ele>111.5</ele>
        <time>2015-07-20T18:38:00.585Z</time>
      </trkpt>
      <trkpt lat="48.83405" lon="2.33117">
        <ele>111.8</ele>
        <time>2015-07-20T18:38:02.501Z</time>
      </trkpt>
      <trkpt lat="48.83403" lon="2.33121">
        <ele>111.9</ele>
        <time>2015-07-20T18:38:03.510Z</time>
      </trkpt>
      <trkpt lat="48.83401" lon="2.33133">
        <ele>111.2</ele>
        <time>2015-07-20T18:38:06.564Z</time>
      </trkpt>
      <trkpt lat="48.834" lon="2.33136">
        <ele>110.9</ele>
        <time>2015-07-20T18:38:07.494Z</time>
      </trkpt>
      <trkpt lat="48.83396" lon="2.33146">
        <ele>110.3</ele>
        <time>2015-07-20T18:38:10.568Z</time>
      </trkpt>
      <trkpt lat="48.83395" lon="2.33149">
        <ele>110.1</ele>
        <time>2015-07-20T18:38:11.594Z</time>
      </trkpt>
      <trkpt lat="48.83393" lon="2.3316">
        <ele>110.3</ele>
        <time>2015-07-20T18:38:14.534Z</time>
      </trkpt>
      <trkpt lat="48.83392" lon="2.33163">
        <ele>110.3</ele>
        <time>2015-07-20T18:38:15.542Z</time>
      </trkpt>
      <trkpt lat="48.83389" lon="2.33171">
        <ele>110.2</ele>
        <time>2015-07-20T18:38:17.570Z</time>
      </trkpt>
      <trkpt lat="48.83387" lon="2.33175">
        <ele>111.2</ele>
        <time>2015-07-20T18:38:18.574Z</time>
      </trkpt>
      <trkpt lat="48.83384" lon="2.33185">
        <ele>111.7</ele>
        <time>2015-07-20T18:38:21.547Z</time>
      </trkpt>
      <trkpt lat="48.83383" lon="2.33189">
        <ele>112</ele>
        <time>2015-07-20T18:38:22.539Z</time>
      </trkpt>
      <trkpt lat="48.83379" lon="2.33199">
        <ele>112</ele>
        <time>2015-07-20T18:38:25.531Z</time>
      </trkpt>
      <trkpt lat="48.83378" lon="2.33202">
        <ele>111.9</ele>
        <time>2015-07-20T18:38:26.534Z</time>
      </trkpt>
      <trkpt lat="48.83373" lon="2.33212">
        <ele>111.9</ele>
        <time>2015-07-20T18:38:29.501Z</time>
      </trkpt>
      <trkpt lat="48.83371" lon="2.33214">
        <ele>111.8</ele>
        <time>2015-07-20T18:38:30.612Z</time>
      </trkpt>
      <trkpt lat="48.83367" lon="2.33225">
        <ele>111.8</ele>
        <time>2015-07-20T18:38:33.772Z</time>
      </trkpt>
      <trkpt lat="48.83365" lon="2.33229">
        <ele>111.8</ele>
        <time>2015-07-20T18:38:34.521Z</time>
      </trkpt>
      <trkpt lat="48.83362" lon="2.33237">
        <ele>111.5</ele>
        <time>2015-07-20T18:38:36.563Z</time>
      </trkpt>
      <trkpt lat="48.83361" lon="2.33242">
        <ele>111.4</ele>
        <time>2015-07-20T18:38:37.570Z</time>
      </trkpt>
      <trkpt lat="48.83359" lon="2.3325">
        <ele>111</ele>
        <time>2015-07-20T18:38:39.521Z</time>
      </trkpt>
      <trkpt lat="48.83357" lon="2.33255">
        <ele>111.2</ele>
        <time>2015-07-20T18:38:40.528Z</time>
      </trkpt>
      <trkpt lat="48.83358" lon="2.33266">
        <ele>109.9</ele>
        <time>2015-07-20T18:38:43.893Z</time>
      </trkpt>
      <trkpt lat="48.83358" lon="2.33272">
        <ele>109.9</ele>
        <time>2015-07-20T18:38:44.574Z</time>
      </trkpt>
      <trkpt lat="48.83359" lon="2.33283">
        <ele>110.2</ele>
        <time>2015-07-20T18:38:46.584Z</time>
      </trkpt>
      <trkpt lat="48.83361" lon="2.33287">
        <ele>109.9</ele>
        <time>2015-07-20T18:38:47.588Z</time>
      </trkpt>
      <trkpt lat="48.83366" lon="2.33296">
        <ele>109.7</ele>
        <time>2015-07-20T18:38:49.515Z</time>
      </trkpt>
      <trkpt lat="48.83369" lon="2.333">
        <ele>109.5</ele>
        <time>2015-07-20T18:38:50.587Z</time>
      </trkpt>
      <trkpt lat="48.83374" lon="2.33306">
        <ele>109.5</ele>
        <time>2015-07-20T18:38:52.523Z</time>
      </trkpt>
      <trkpt lat="48.83375" lon="2.3331">
        <ele>110</ele>
        <time>2015-07-20T18:38:53.519Z</time>
      </trkpt>
      <trkpt lat="48.83378" lon="2.3332">
        <ele>109.2</ele>
        <time>2015-07-20T18:38:56.566Z</time>
      </trkpt>
      <trkpt lat="48.83378" lon="2.33324">
        <ele>108.3</ele>
        <time>2015-07-20T18:38:57.601Z</time>
      </trkpt>
      <trkpt lat="48.83375" lon="2.33335">
        <ele>107.6</ele>
        <time>2015-07-20T18:39:01.542Z</time>
      </trkpt>
      <trkpt lat="48.83374" lon="2.33338">
        <ele>107.8</ele>
        <time>2015-07-20T18:39:02.563Z</time>
      </trkpt>
      <trkpt lat="48.83374" lon="2.3335">
        <ele>106.5</ele>
        <time>2015-07-20T18:39:06.539Z</time>
      </trkpt>
      <trkpt lat="48.83374" lon="2.33354">
        <ele>106.2</ele>
        <time>2015-07-20T18:39:07.554Z</time>
      </trkpt>
      <trkpt lat="48.83372" lon="2.33365">
        <ele>106.1</ele>
        <time>2015-07-20T18:39:10.592Z</time>
      </trkpt>
      <trkpt lat="48.83372" lon="2.33368">
        <ele>105.7</ele>
        <time>2015-07-20T18:39:11.481Z</time>
      </trkpt>
      <trkpt lat="48.83369" lon="2.33379">
        <ele>104.7</ele>
        <time>2015-07-20T18:39:15.566Z</time>
      </trkpt>
      <trkpt lat="48.83368" lon="2.33383">
        <ele>104.6</ele>
        <time>2015-07-20T18:39:16.579Z</time>
      </trkpt>
      <trkpt lat="48.83365" lon="2.33392">
        <ele>104.4</ele>
        <time>2015-07-20T18:39:18.585Z</time>
      </trkpt>
      <trkpt lat="48.83364" lon="2.33396">
        <ele>104.7</ele>
        <time>2015-07-20T18:39:19.479Z</time>
      </trkpt>
      <trkpt lat="48.8336" lon="2.33408">
        <ele>104.9</ele>
        <time>2015-07-20T18:39:21.591Z</time>
      </trkpt>
      <trkpt lat="48.83358" lon="2.33415">
        <ele>104.9</ele>
        <time>2015-07-20T18:39:22.497Z</time>
      </trkpt>
      <trkpt lat="48.83356" lon="2.33422">
        <ele>105</ele>
        <time>2015-07-20T18:39:23.522Z</time>
      </trkpt>
      <trkpt lat="48.83354" lon="2.33428">
        <ele>104.9</ele>
        <time>2015-07-20T18:39:24.607Z</time>
      </trkpt>
      <trkpt lat="48.83353" lon="2.33434">
        <ele>104.9</ele>
        <time>2015-07-20T18:39:25.523Z</time>
      </trkpt>
      <trkpt lat="48.83351" lon="2.33441">
        <ele>104.8</ele>
        <time>2015-07-20T18:39:26.516Z</time>
      </trkpt>
      <trkpt lat="48.83349" lon="2.33448">
        <ele>104.9</ele>
        <time>2015-07-20T18:39:27.523Z</time>
      </trkpt>
      <trkpt lat="48.83347" lon="2.33455">
        <ele>104.9</ele>
        <time>2015-07-20T18:39:28.530Z</time>
      </trkpt>
      <trkpt lat="48.83345" lon="2.33463">
        <ele>105.1</ele>
        <time>2015-07-20T18:39:30.071Z</time>
      </trkpt>
      <trkpt lat="48.83343" lon="2.33471">
        <ele>105.3</ele>
        <time>2015-07-20T18:39:30.592Z</time>
      </trkpt>
      <trkpt lat="48.8334" lon="2.33479">
        <ele>105.3</ele>
        <time>2015-07-20T18:39:31.500Z</time>
      </trkpt>
      <trkpt lat="48.83337" lon="2.33488">
        <ele>105.4</ele>
        <time>2015-07-20T18:39:32.503Z</time>
      </trkpt>
      <trkpt lat="48.83335" lon="2.33498">
        <ele>105.3</ele>
        <time>2015-07-20T18:39:33.486Z</time>
      </trkpt>
      <trkpt lat="48.83332" lon="2.33508">
        <ele>105.1</ele>
        <time>2015-07-20T18:39:34.513Z</time>
      </trkpt>
      <trkpt lat="48.83331" lon="2.33517">
        <ele>105.3</ele>
        <time>2015-07-20T18:39:35.560Z</time>
      </trkpt>
      <trkpt lat="48.83329" lon="2.33525">
        <ele>105.3</ele>
        <time>2015-07-20T18:39:36.588Z</time>
      </trkpt>
      <trkpt lat="48.83326" lon="2.33534">
        <ele>105.7</ele>
        <time>2015-07-20T18:39:37.493Z</time>
      </trkpt>
      <trkpt lat="48.83323" lon="2.33542">
        <ele>106.1</ele>
        <time>2015-07-20T18:39:38.499Z</time>
      </trkpt>
      <trkpt lat="48.83321" lon="2.3355">
        <ele>106.3</ele>
        <time>2015-07-20T18:39:39.519Z</time>
      </trkpt>
      <trkpt lat="48.83318" lon="2.33557">
        <ele>106.3</ele>
        <time>2015-07-20T18:39:40.530Z</time>
      </trkpt>
      <trkpt lat="48.83316" lon="2.33565">
        <ele>106.2</ele>
        <time>2015-07-20T18:39:41.545Z</time>
      </trkpt>
      <trkpt lat="48.83315" lon="2.33572">
        <ele>106</ele>
        <time>2015-07-20T18:39:42.566Z</time>
      </trkpt>
      <trkpt lat="48.83313" lon="2.33578">
        <ele>105.8</ele>
        <time>2015-07-20T18:39:43.469Z</time>
      </trkpt>
      <trkpt lat="48.83312" lon="2.33585">
        <ele>105.5</ele>
        <time>2015-07-20T18:39:44.495Z</time>
      </trkpt>
      <trkpt lat="48.8331" lon="2.33591">
        <ele>105.5</ele>
        <time>2015-07-20T18:39:45.508Z</time>
      </trkpt>
      <trkpt lat="48.83308" lon="2.33598">
        <ele>105.5</ele>
        <time>2015-07-20T18:39:46.512Z</time>
      </trkpt>
      <trkpt lat="48.83305" lon="2.33604">
        <ele>105.4</ele>
        <time>2015-07-20T18:39:47.521Z</time>
      </trkpt>
      <trkpt lat="48.83303" lon="2.33611">
        <ele>105.2</ele>
        <time>2015-07-20T18:39:48.538Z</time>
      </trkpt>
      <trkpt lat="48.83301" lon="2.33619">
        <ele>105.1</ele>
        <time>2015-07-20T18:39:49.554Z</time>
      </trkpt>
      <trkpt lat="48.83298" lon="2.33627">
        <ele>105.1</ele>
        <time>2015-07-20T18:39:50.566Z</time>
      </trkpt>
      <trkpt lat="48.83295" lon="2.33635">
        <ele>105.2</ele>
        <time>2015-07-20T18:39:51.511Z</time>
      </trkpt>
      <trkpt lat="48.83292" lon="2.33644">
        <ele>105.4</ele>
        <time>2015-07-20T18:39:52.501Z</time>
      </trkpt>
      <trkpt lat="48.8329" lon="2.33654">
        <ele>105.9</ele>
        <time>2015-07-20T18:39:53.524Z</time>
      </trkpt>
      <trkpt lat="48.83287" lon="2.33663">
        <ele>106.4</ele>
        <time>2015-07-20T18:39:54.581Z</time>
      </trkpt>
      <trkpt lat="48.83283" lon="2.33672">
        <ele>106.7</ele>
        <time>2015-07-20T18:39:55.513Z</time>
      </trkpt>
      <trkpt lat="48.83281" lon="2.33682">
        <ele>107</ele>
        <time>2015-07-20T18:39:56.503Z</time>
      </trkpt>
      <trkpt lat="48.83278" lon="2.33692">
        <ele>107.5</ele>
        <time>2015-07-20T18:39:57.519Z</time>
      </trkpt>
      <trkpt lat="48.83275" lon="2.33703">
        <ele>107.9</ele>
        <time>2015-07-20T18:39:58.614Z</time>
      </trkpt>
      <trkpt lat="48.83273" lon="2.33715">
        <ele>108.1</ele>
        <time>2015-07-20T18:39:59.505Z</time>
      </trkpt>
      <trkpt lat="48.83271" lon="2.33726">
        <ele>108.2</ele>
        <time>2015-07-20T18:40:00.563Z</time>
      </trkpt>
      <trkpt lat="48.83268" lon="2.33737">
        <ele>108.2</ele>
        <time>2015-07-20T18:40:01.578Z</time>
      </trkpt>
      <trkpt lat="48.83265" lon="2.33747">
        <ele>108.4</ele>
        <time>2015-07-20T18:40:02.507Z</time>
      </trkpt>
      <trkpt lat="48.83263" lon="2.33758">
        <ele>108.4</ele>
        <time>2015-07-20T18:40:03.505Z</time>
      </trkpt>
      <trkpt lat="48.83259" lon="2.3377">
        <ele>108.5</ele>
        <time>2015-07-20T18:40:04.498Z</time>
      </trkpt>
      <trkpt lat="48.83256" lon="2.33782">
        <ele>108.3</ele>
        <time>2015-07-20T18:40:05.504Z</time>
      </trkpt>
      <trkpt lat="48.83252" lon="2.33794">
        <ele>107.9</ele>
        <time>2015-07-20T18:40:06.555Z</time>
      </trkpt>
      <trkpt lat="48.83249" lon="2.33806">
        <ele>107.4</ele>
        <time>2015-07-20T18:40:07.564Z</time>
      </trkpt>
      <trkpt lat="48.83245" lon="2.33818">
        <ele>107.3</ele>
        <time>2015-07-20T18:40:08.474Z</time>
      </trkpt>
      <trkpt lat="48.83243" lon="2.33831">
        <ele>106.8</ele>
        <time>2015-07-20T18:40:09.499Z</time>
      </trkpt>
      <trkpt lat="48.8324" lon="2.33843">
        <ele>106.8</ele>
        <time>2015-07-20T18:40:10.499Z</time>
      </trkpt>
      <trkpt lat="48.83238" lon="2.33855">
        <ele>106.7</ele>
        <time>2015-07-20T18:40:11.521Z</time>
      </trkpt>
      <trkpt lat="48.83236" lon="2.33868">
        <ele>107.1</ele>
        <time>2015-07-20T18:40:12.549Z</time>
      </trkpt>
      <trkpt lat="48.83233" lon="2.33882">
        <ele>107.5</ele>
        <time>2015-07-20T18:40:13.561Z</time>
      </trkpt>
      <trkpt lat="48.83231" lon="2.33894">
        <ele>107.8</ele>
        <time>2015-07-20T18:40:14.576Z</time>
      </trkpt>
      <trkpt lat="48.83228" lon="2.33907">
        <ele>108</ele>
        <time>2015-07-20T18:40:15.580Z</time>
      </trkpt>
      <trkpt lat="48.83225" lon="2.33918">
        <ele>108.1</ele>
        <time>2015-07-20T18:40:16.501Z</time>
      </trkpt>
      <trkpt lat="48.83222" lon="2.33928">
        <ele>108.1</ele>
        <time>2015-07-20T18:40:17.697Z</time>
      </trkpt>
      <trkpt lat="48.83218" lon="2.33938">
        <ele>108.2</ele>
        <time>2015-07-20T18:40:18.540Z</time>
      </trkpt>
      <trkpt lat="48.83214" lon="2.33949">
        <ele>108.1</ele>
        <time>2015-07-20T18:40:19.542Z</time>
      </trkpt>
      <trkpt lat="48.8321" lon="2.33959">
        <ele>108</ele>
        <time>2015-07-20T18:40:20.553Z</time>
      </trkpt>
      <trkpt lat="48.83208" lon="2.33969">
        <ele>108</ele>
        <time>2015-07-20T18:40:21.560Z</time>
      </trkpt>
      <trkpt lat="48.83205" lon="2.33978">
        <ele>107.7</ele>
        <time>2015-07-20T18:40:22.570Z</time>
      </trkpt>
      <trkpt lat="48.83202" lon="2.33988">
        <ele>107.3</ele>
        <time>2015-07-20T18:40:23.509Z</time>
      </trkpt>
      <trkpt lat="48.832" lon="2.33999">
        <ele>107.3</ele>
        <time>2015-07-20T18:40:24.617Z</time>
      </trkpt>
      <trkpt lat="48.83197" lon="2.3401">
        <ele>106.3</ele>
        <time>2015-07-20T18:40:25.497Z</time>
      </trkpt>
      <trkpt lat="48.83194" lon="2.34021">
        <ele>105.6</ele>
        <time>2015-07-20T18:40:26.528Z</time>
      </trkpt>
      <trkpt lat="48.83191" lon="2.34033">
        <ele>105.4</ele>
        <time>2015-07-20T18:40:27.527Z</time>
      </trkpt>
      <trkpt lat="48.83187" lon="2.34045">
        <ele>106.5</ele>
        <time>2015-07-20T18:40:28.536Z</time>
      </trkpt>
      <trkpt lat="48.83184" lon="2.34056">
        <ele>107.1</ele>
        <time>2015-07-20T18:40:29.544Z</time>
      </trkpt>
      <trkpt lat="48.83181" lon="2.34066">
        <ele>107</ele>
        <time>2015-07-20T18:40:30.627Z</time>
      </trkpt>
      <trkpt lat="48.83179" lon="2.34078">
        <ele>107.1</ele>
        <time>2015-07-20T18:40:31.486Z</time>
      </trkpt>
      <trkpt lat="48.83176" lon="2.34089">
        <ele>106.7</ele>
        <time>2015-07-20T18:40:32.523Z</time>
      </trkpt>
      <trkpt lat="48.83174" lon="2.34101">
        <ele>106.4</ele>
        <time>2015-07-20T18:40:33.539Z</time>
      </trkpt>
      <trkpt lat="48.83172" lon="2.34111">
        <ele>105.8</ele>
        <time>2015-07-20T18:40:34.548Z</time>
      </trkpt>
      <trkpt lat="48.83169" lon="2.34121">
        <ele>105.8</ele>
        <time>2015-07-20T18:40:35.555Z</time>
      </trkpt>
      <trkpt lat="48.83166" lon="2.34131">
        <ele>105.2</ele>
        <time>2015-07-20T18:40:36.560Z</time>
      </trkpt>
      <trkpt lat="48.83163" lon="2.34141">
        <ele>105.1</ele>
        <time>2015-07-20T18:40:37.590Z</time>
      </trkpt>
      <trkpt lat="48.83161" lon="2.3415">
        <ele>105.2</ele>
        <time>2015-07-20T18:40:38.491Z</time>
      </trkpt>
      <trkpt lat="48.83159" lon="2.3416">
        <ele>104.7</ele>
        <time>2015-07-20T18:40:39.497Z</time>
      </trkpt>
      <trkpt lat="48.83157" lon="2.34169">
        <ele>105</ele>
        <time>2015-07-20T18:40:40.495Z</time>
      </trkpt>
      <trkpt lat="48.83155" lon="2.34178">
        <ele>105.3</ele>
        <time>2015-07-20T18:40:41.512Z</time>
      </trkpt>
      <trkpt lat="48.83153" lon="2.34187">
        <ele>104.8</ele>
        <time>2015-07-20T18:40:42.543Z</time>
      </trkpt>
      <trkpt lat="48.8315" lon="2.34197">
        <ele>104.3</ele>
        <time>2015-07-20T18:40:43.549Z</time>
      </trkpt>
      <trkpt lat="48.83147" lon="2.34207">
        <ele>103.5</ele>
        <time>2015-07-20T18:40:44.557Z</time>
      </trkpt>
      <trkpt lat="48.83143" lon="2.34218">
        <ele>103.2</ele>
        <time>2015-07-20T18:40:45.469Z</time>
      </trkpt>
      <trkpt lat="48.83141" lon="2.34227">
        <ele>102.5</ele>
        <time>2015-07-20T18:40:46.499Z</time>
      </trkpt>
      <trkpt lat="48.83138" lon="2.34237">
        <ele>101.7</ele>
        <time>2015-07-20T18:40:47.509Z</time>
      </trkpt>
      <trkpt lat="48.83135" lon="2.34246">
        <ele>100.9</ele>
        <time>2015-07-20T18:40:48.539Z</time>
      </trkpt>
      <trkpt lat="48.83132" lon="2.34256">
        <ele>100.3</ele>
        <time>2015-07-20T18:40:49.547Z</time>
      </trkpt>
      <trkpt lat="48.83129" lon="2.34266">
        <ele>99.7</ele>
        <time>2015-07-20T18:40:50.564Z</time>
      </trkpt>
      <trkpt lat="48.83126" lon="2.34274">
        <ele>99</ele>
        <time>2015-07-20T18:40:51.641Z</time>
      </trkpt>
      <trkpt lat="48.83122" lon="2.34283">
        <ele>99</ele>
        <time>2015-07-20T18:40:52.493Z</time>
      </trkpt>
      <trkpt lat="48.83119" lon="2.34291">
        <ele>98.9</ele>
        <time>2015-07-20T18:40:53.526Z</time>
      </trkpt>
      <trkpt lat="48.83116" lon="2.34301">
        <ele>98.3</ele>
        <time>2015-07-20T18:40:54.664Z</time>
      </trkpt>
      <trkpt lat="48.83113" lon="2.34311">
        <ele>97.2</ele>
        <time>2015-07-20T18:40:55.504Z</time>
      </trkpt>
      <trkpt lat="48.8311" lon="2.34322">
        <ele>96.7</ele>
        <time>2015-07-20T18:40:56.513Z</time>
      </trkpt>
      <trkpt lat="48.83108" lon="2.34331">
        <ele>96.3</ele>
        <time>2015-07-20T18:40:57.543Z</time>
      </trkpt>
      <trkpt lat="48.83107" lon="2.34341">
        <ele>96.4</ele>
        <time>2015-07-20T18:40:58.548Z</time>
      </trkpt>
      <trkpt lat="48.83105" lon="2.34351">
        <ele>95.9</ele>
        <time>2015-07-20T18:40:59.555Z</time>
      </trkpt>
      <trkpt lat="48.83103" lon="2.3436">
        <ele>96.2</ele>
        <time>2015-07-20T18:41:00.561Z</time>
      </trkpt>
      <trkpt lat="48.83101" lon="2.3437">
        <ele>95.5</ele>
        <time>2015-07-20T18:41:01.570Z</time>
      </trkpt>
      <trkpt lat="48.83099" lon="2.34378">
        <ele>95.2</ele>
        <time>2015-07-20T18:41:02.571Z</time>
      </trkpt>
      <trkpt lat="48.83097" lon="2.34385">
        <ele>95.3</ele>
        <time>2015-07-20T18:41:03.585Z</time>
      </trkpt>
      <trkpt lat="48.83095" lon="2.34392">
        <ele>94.8</ele>
        <time>2015-07-20T18:41:04.500Z</time>
      </trkpt>
      <trkpt lat="48.83093" lon="2.34399">
        <ele>94.2</ele>
        <time>2015-07-20T18:41:05.513Z</time>
      </trkpt>
      <trkpt lat="48.83092" lon="2.34407">
        <ele>94.9</ele>
        <time>2015-07-20T18:41:06.556Z</time>
      </trkpt>
      <trkpt lat="48.83089" lon="2.34414">
        <ele>94.2</ele>
        <time>2015-07-20T18:41:07.562Z</time>
      </trkpt>
      <trkpt lat="48.83087" lon="2.34422">
        <ele>93.8</ele>
        <time>2015-07-20T18:41:08.562Z</time>
      </trkpt>
      <trkpt lat="48.83085" lon="2.3443">
        <ele>93.8</ele>
        <time>2015-07-20T18:41:09.570Z</time>
      </trkpt>
      <trkpt lat="48.83081" lon="2.34437">
        <ele>93.6</ele>
        <time>2015-07-20T18:41:10.603Z</time>
      </trkpt>
      <trkpt lat="48.83078" lon="2.34445">
        <ele>93.6</ele>
        <time>2015-07-20T18:41:11.495Z</time>
      </trkpt>
      <trkpt lat="48.83075" lon="2.34453">
        <ele>93.6</ele>
        <time>2015-07-20T18:41:12.546Z</time>
      </trkpt>
      <trkpt lat="48.83073" lon="2.34461">
        <ele>93.4</ele>
        <time>2015-07-20T18:41:13.553Z</time>
      </trkpt>
      <trkpt lat="48.83071" lon="2.34469">
        <ele>93.1</ele>
        <time>2015-07-20T18:41:14.562Z</time>
      </trkpt>
      <trkpt lat="48.83069" lon="2.34477">
        <ele>92.6</ele>
        <time>2015-07-20T18:41:15.570Z</time>
      </trkpt>
      <trkpt lat="48.83067" lon="2.34485">
        <ele>92.6</ele>
        <time>2015-07-20T18:41:16.574Z</time>
      </trkpt>
      <trkpt lat="48.83065" lon="2.34493">
        <ele>92</ele>
        <time>2015-07-20T18:41:17.494Z</time>
      </trkpt>
      <trkpt lat="48.83064" lon="2.34501">
        <ele>91.9</ele>
        <time>2015-07-20T18:41:18.599Z</time>
      </trkpt>
      <trkpt lat="48.83062" lon="2.3451">
        <ele>91.5</ele>
        <time>2015-07-20T18:41:19.506Z</time>
      </trkpt>
      <trkpt lat="48.8306" lon="2.34519">
        <ele>91.7</ele>
        <time>2015-07-20T18:41:20.513Z</time>
      </trkpt>
      <trkpt lat="48.83058" lon="2.34528">
        <ele>92.3</ele>
        <time>2015-07-20T18:41:21.529Z</time>
      </trkpt>
      <trkpt lat="48.83055" lon="2.34538">
        <ele>92.2</ele>
        <time>2015-07-20T18:41:22.541Z</time>
      </trkpt>
      <trkpt lat="48.83053" lon="2.34548">
        <ele>92.2</ele>
        <time>2015-07-20T18:41:23.555Z</time>
      </trkpt>
      <trkpt lat="48.83052" lon="2.34557">
        <ele>92.5</ele>
        <time>2015-07-20T18:41:24.561Z</time>
      </trkpt>
      <trkpt lat="48.8305" lon="2.34565">
        <ele>92.6</ele>
        <time>2015-07-20T18:41:25.568Z</time>
      </trkpt>
      <trkpt lat="48.83048" lon="2.34576">
        <ele>93.3</ele>
        <time>2015-07-20T18:41:26.575Z</time>
      </trkpt>
      <trkpt lat="48.83046" lon="2.34588">
        <ele>94.1</ele>
        <time>2015-07-20T18:41:27.580Z</time>
      </trkpt>
      <trkpt lat="48.83042" lon="2.34598">
        <ele>94.3</ele>
        <time>2015-07-20T18:41:28.586Z</time>
      </trkpt>
      <trkpt lat="48.83039" lon="2.34607">
        <ele>94.7</ele>
        <time>2015-07-20T18:41:29.499Z</time>
      </trkpt>
      <trkpt lat="48.83037" lon="2.34616">
        <ele>95.2</ele>
        <time>2015-07-20T18:41:30.553Z</time>
      </trkpt>
      <trkpt lat="48.83034" lon="2.34624">
        <ele>95.3</ele>
        <time>2015-07-20T18:41:31.580Z</time>
      </trkpt>
      <trkpt lat="48.83031" lon="2.34633">
        <ele>95.4</ele>
        <time>2015-07-20T18:41:32.594Z</time>
      </trkpt>
      <trkpt lat="48.83029" lon="2.34642">
        <ele>95.6</ele>
        <time>2015-07-20T18:41:33.508Z</time>
      </trkpt>
      <trkpt lat="48.83027" lon="2.34653">
        <ele>95.7</ele>
        <time>2015-07-20T18:41:34.508Z</time>
      </trkpt>
      <trkpt lat="48.83026" lon="2.34663">
        <ele>95.7</ele>
        <time>2015-07-20T18:41:35.519Z</time>
      </trkpt>
      <trkpt lat="48.83024" lon="2.34672">
        <ele>96</ele>
        <time>2015-07-20T18:41:36.523Z</time>
      </trkpt>
      <trkpt lat="48.83021" lon="2.34682">
        <ele>96.4</ele>
        <time>2015-07-20T18:41:37.588Z</time>
      </trkpt>
      <trkpt lat="48.83018" lon="2.34691">
        <ele>96.8</ele>
        <time>2015-07-20T18:41:38.499Z</time>
      </trkpt>
      <trkpt lat="48.83015" lon="2.34701">
        <ele>96.7</ele>
        <time>2015-07-20T18:41:39.501Z</time>
      </trkpt>
      <trkpt lat="48.83012" lon="2.3471">
        <ele>96.9</ele>
        <time>2015-07-20T18:41:40.505Z</time>
      </trkpt>
      <trkpt lat="48.83009" lon="2.34721">
        <ele>97.2</ele>
        <time>2015-07-20T18:41:41.522Z</time>
      </trkpt>
      <trkpt lat="48.83007" lon="2.34732">
        <ele>97.5</ele>
        <time>2015-07-20T18:41:42.574Z</time>
      </trkpt>
      <trkpt lat="48.83003" lon="2.34741">
        <ele>97.6</ele>
        <time>2015-07-20T18:41:43.490Z</time>
      </trkpt>
      <trkpt lat="48.83002" lon="2.34751">
        <ele>98.3</ele>
        <time>2015-07-20T18:41:44.505Z</time>
      </trkpt>
      <trkpt lat="48.83001" lon="2.34761">
        <ele>98.5</ele>
        <time>2015-07-20T18:41:45.504Z</time>
      </trkpt>
      <trkpt lat="48.82998" lon="2.3477">
        <ele>98.9</ele>
        <time>2015-07-20T18:41:46.510Z</time>
      </trkpt>
      <trkpt lat="48.82995" lon="2.34778">
        <ele>99.1</ele>
        <time>2015-07-20T18:41:47.523Z</time>
      </trkpt>
      <trkpt lat="48.82991" lon="2.34787">
        <ele>99</ele>
        <time>2015-07-20T18:41:48.550Z</time>
      </trkpt>
      <trkpt lat="48.82989" lon="2.34796">
        <ele>98.7</ele>
        <time>2015-07-20T18:41:49.561Z</time>
      </trkpt>
      <trkpt lat="48.82986" lon="2.34805">
        <ele>98.1</ele>
        <time>2015-07-20T18:41:50.575Z</time>
      </trkpt>
      <trkpt lat="48.82983" lon="2.34813">
        <ele>97.9</ele>
        <time>2015-07-20T18:41:51.577Z</time>
      </trkpt>
      <trkpt lat="48.82981" lon="2.34822">
        <ele>98.4</ele>
        <time>2015-07-20T18:41:52.582Z</time>
      </trkpt>
      <trkpt lat="48.82979" lon="2.34831">
        <ele>98.4</ele>
        <time>2015-07-20T18:41:53.506Z</time>
      </trkpt>
      <trkpt lat="48.82976" lon="2.34839">
        <ele>98.5</ele>
        <time>2015-07-20T18:41:54.578Z</time>
      </trkpt>
      <trkpt lat="48.82975" lon="2.34847">
        <ele>98.8</ele>
        <time>2015-07-20T18:41:55.591Z</time>
      </trkpt>
      <trkpt lat="48.82972" lon="2.34855">
        <ele>98.8</ele>
        <time>2015-07-20T18:41:56.506Z</time>
      </trkpt>
      <trkpt lat="48.82969" lon="2.34864">
        <ele>99.1</ele>
        <time>2015-07-20T18:41:57.501Z</time>
      </trkpt>
      <trkpt lat="48.82966" lon="2.34873">
        <ele>99.4</ele>
        <time>2015-07-20T18:41:58.515Z</time>
      </trkpt>
      <trkpt lat="48.82964" lon="2.34881">
        <ele>99.5</ele>
        <time>2015-07-20T18:41:59.524Z</time>
      </trkpt>
      <trkpt lat="48.82961" lon="2.34889">
        <ele>100</ele>
        <time>2015-07-20T18:42:00.562Z</time>
      </trkpt>
      <trkpt lat="48.82959" lon="2.34898">
        <ele>100.5</ele>
        <time>2015-07-20T18:42:01.578Z</time>
      </trkpt>
      <trkpt lat="48.82956" lon="2.34908">
        <ele>100.4</ele>
        <time>2015-07-20T18:42:02.581Z</time>
      </trkpt>
      <trkpt lat="48.82955" lon="2.34918">
        <ele>100.8</ele>
        <time>2015-07-20T18:42:03.535Z</time>
      </trkpt>
      <trkpt lat="48.82954" lon="2.34927">
        <ele>101</ele>
        <time>2015-07-20T18:42:04.503Z</time>
      </trkpt>
      <trkpt lat="48.82954" lon="2.34936">
        <ele>101</ele>
        <time>2015-07-20T18:42:05.562Z</time>
      </trkpt>
      <trkpt lat="48.82953" lon="2.34945">
        <ele>101</ele>
        <time>2015-07-20T18:42:06.540Z</time>
      </trkpt>
      <trkpt lat="48.82954" lon="2.34954">
        <ele>101.1</ele>
        <time>2015-07-20T18:42:07.551Z</time>
      </trkpt>
      <trkpt lat="48.82954" lon="2.34963">
        <ele>101.2</ele>
        <time>2015-07-20T18:42:08.557Z</time>
      </trkpt>
      <trkpt lat="48.82954" lon="2.34971">
        <ele>101</ele>
        <time>2015-07-20T18:42:09.563Z</time>
      </trkpt>
      <trkpt lat="48.82954" lon="2.3498">
        <ele>101</ele>
        <time>2015-07-20T18:42:10.573Z</time>
      </trkpt>
      <trkpt lat="48.82956" lon="2.34989">
        <ele>101.1</ele>
        <time>2015-07-20T18:42:11.578Z</time>
      </trkpt>
      <trkpt lat="48.82957" lon="2.34997">
        <ele>101.4</ele>
        <time>2015-07-20T18:42:12.587Z</time>
      </trkpt>
      <trkpt lat="48.82959" lon="2.35005">
        <ele>101.6</ele>
        <time>2015-07-20T18:42:13.528Z</time>
      </trkpt>
      <trkpt lat="48.8296" lon="2.35013">
        <ele>101.9</ele>
        <time>2015-07-20T18:42:14.503Z</time>
      </trkpt>
      <trkpt lat="48.82963" lon="2.35021">
        <ele>102.2</ele>
        <time>2015-07-20T18:42:15.497Z</time>
      </trkpt>
      <trkpt lat="48.82965" lon="2.3503">
        <ele>102.3</ele>
        <time>2015-07-20T18:42:16.501Z</time>
      </trkpt>
      <trkpt lat="48.82967" lon="2.35039">
        <ele>102.4</ele>
        <time>2015-07-20T18:42:17.513Z</time>
      </trkpt>
      <trkpt lat="48.82969" lon="2.35048">
        <ele>102.8</ele>
        <time>2015-07-20T18:42:18.537Z</time>
      </trkpt>
      <trkpt lat="48.82971" lon="2.35056">
        <ele>103</ele>
        <time>2015-07-20T18:42:19.564Z</time>
      </trkpt>
      <trkpt lat="48.82974" lon="2.35064">
        <ele>103.3</ele>
        <time>2015-07-20T18:42:20.574Z</time>
      </trkpt>
      <trkpt lat="48.82978" lon="2.35071">
        <ele>104.4</ele>
        <time>2015-07-20T18:42:21.541Z</time>
      </trkpt>
      <trkpt lat="48.8298" lon="2.3508">
        <ele>104.6</ele>
        <time>2015-07-20T18:42:22.517Z</time>
      </trkpt>
      <trkpt lat="48.82984" lon="2.35088">
        <ele>105</ele>
        <time>2015-07-20T18:42:23.540Z</time>
      </trkpt>
      <trkpt lat="48.82988" lon="2.35095">
        <ele>104.9</ele>
        <time>2015-07-20T18:42:24.550Z</time>
      </trkpt>
      <trkpt lat="48.82992" lon="2.35103">
        <ele>105</ele>
        <time>2015-07-20T18:42:25.557Z</time>
      </trkpt>
      <trkpt lat="48.82995" lon="2.35112">
        <ele>105.3</ele>
        <time>2015-07-20T18:42:26.500Z</time>
      </trkpt>
      <trkpt lat="48.82996" lon="2.3512">
        <ele>105.6</ele>
        <time>2015-07-20T18:42:27.510Z</time>
      </trkpt>
      <trkpt lat="48.82997" lon="2.35129">
        <ele>106</ele>
        <time>2015-07-20T18:42:28.517Z</time>
      </trkpt>
      <trkpt lat="48.82999" lon="2.35137">
        <ele>106.2</ele>
        <time>2015-07-20T18:42:29.527Z</time>
      </trkpt>
      <trkpt lat="48.83003" lon="2.35144">
        <ele>106.1</ele>
        <time>2015-07-20T18:42:30.580Z</time>
      </trkpt>
      <trkpt lat="48.83006" lon="2.35151">
        <ele>106</ele>
        <time>2015-07-20T18:42:31.490Z</time>
      </trkpt>
      <trkpt lat="48.83009" lon="2.35159">
        <ele>106.7</ele>
        <time>2015-07-20T18:42:32.492Z</time>
      </trkpt>
      <trkpt lat="48.8301" lon="2.35167">
        <ele>107.6</ele>
        <time>2015-07-20T18:42:33.505Z</time>
      </trkpt>
      <trkpt lat="48.83012" lon="2.35175">
        <ele>107.6</ele>
        <time>2015-07-20T18:42:34.514Z</time>
      </trkpt>
      <trkpt lat="48.83015" lon="2.35184">
        <ele>107.5</ele>
        <time>2015-07-20T18:42:35.539Z</time>
      </trkpt>
      <trkpt lat="48.83018" lon="2.35192">
        <ele>107.5</ele>
        <time>2015-07-20T18:42:36.553Z</time>
      </trkpt>
      <trkpt lat="48.83021" lon="2.35201">
        <ele>107.8</ele>
        <time>2015-07-20T18:42:37.559Z</time>
      </trkpt>
      <trkpt lat="48.83024" lon="2.35209">
        <ele>108.5</ele>
        <time>2015-07-20T18:42:38.566Z</time>
      </trkpt>
      <trkpt lat="48.83026" lon="2.35217">
        <ele>108.7</ele>
        <time>2015-07-20T18:42:39.583Z</time>
      </trkpt>
      <trkpt lat="48.83028" lon="2.35225">
        <ele>108.5</ele>
        <time>2015-07-20T18:42:40.492Z</time>
      </trkpt>
      <trkpt lat="48.83031" lon="2.35233">
        <ele>108.2</ele>
        <time>2015-07-20T18:42:41.519Z</time>
      </trkpt>
      <trkpt lat="48.83033" lon="2.35241">
        <ele>108.1</ele>
        <time>2015-07-20T18:42:42.549Z</time>
      </trkpt>
      <trkpt lat="48.83036" lon="2.35248">
        <ele>108.1</ele>
        <time>2015-07-20T18:42:43.559Z</time>
      </trkpt>
      <trkpt lat="48.83039" lon="2.35255">
        <ele>108.3</ele>
        <time>2015-07-20T18:42:44.560Z</time>
      </trkpt>
      <trkpt lat="48.83044" lon="2.35263">
        <ele>108.9</ele>
        <time>2015-07-20T18:42:45.575Z</time>
      </trkpt>
      <trkpt lat="48.83048" lon="2.3527">
        <ele>109.4</ele>
        <time>2015-07-20T18:42:46.579Z</time>
      </trkpt>
      <trkpt lat="48.83053" lon="2.35278">
        <ele>110</ele>
        <time>2015-07-20T18:42:47.512Z</time>
      </trkpt>
      <trkpt lat="48.83057" lon="2.35286">
        <ele>110.3</ele>
        <time>2015-07-20T18:42:48.604Z</time>
      </trkpt>
      <trkpt lat="48.8306" lon="2.35295">
        <ele>110.9</ele>
        <time>2015-07-20T18:42:49.508Z</time>
      </trkpt>
      <trkpt lat="48.83063" lon="2.35303">
        <ele>110.9</ele>
        <time>2015-07-20T18:42:50.507Z</time>
      </trkpt>
      <trkpt lat="48.83064" lon="2.35312">
        <ele>111.3</ele>
        <time>2015-07-20T18:42:51.517Z</time>
      </trkpt>
      <trkpt lat="48.83067" lon="2.35321">
        <ele>111.7</ele>
        <time>2015-07-20T18:42:52.524Z</time>
      </trkpt>
      <trkpt lat="48.83069" lon="2.35329">
        <ele>111.8</ele>
        <time>2015-07-20T18:42:53.540Z</time>
      </trkpt>
      <trkpt lat="48.83071" lon="2.35337">
        <ele>111.9</ele>
        <time>2015-07-20T18:42:54.556Z</time>
      </trkpt>
      <trkpt lat="48.83072" lon="2.35344">
        <ele>111.9</ele>
        <time>2015-07-20T18:42:55.564Z</time>
      </trkpt>
      <trkpt lat="48.83074" lon="2.35353">
        <ele>112</ele>
        <time>2015-07-20T18:42:56.568Z</time>
      </trkpt>
      <trkpt lat="48.83076" lon="2.3536">
        <ele>112.1</ele>
        <time>2015-07-20T18:42:57.502Z</time>
      </trkpt>
      <trkpt lat="48.83078" lon="2.35369">
        <ele>112.3</ele>
        <time>2015-07-20T18:42:58.508Z</time>
      </trkpt>
      <trkpt lat="48.8308" lon="2.35377">
        <ele>112.5</ele>
        <time>2015-07-20T18:42:59.502Z</time>
      </trkpt>
      <trkpt lat="48.83082" lon="2.35384">
        <ele>112.6</ele>
        <time>2015-07-20T18:43:00.523Z</time>
      </trkpt>
      <trkpt lat="48.83084" lon="2.35392">
        <ele>112.6</ele>
        <time>2015-07-20T18:43:01.536Z</time>
      </trkpt>
      <trkpt lat="48.83086" lon="2.35398">
        <ele>112.7</ele>
        <time>2015-07-20T18:43:02.538Z</time>
      </trkpt>
      <trkpt lat="48.83087" lon="2.35405">
        <ele>112.6</ele>
        <time>2015-07-20T18:43:03.564Z</time>
      </trkpt>
      <trkpt lat="48.83089" lon="2.35412">
        <ele>112.6</ele>
        <time>2015-07-20T18:43:04.572Z</time>
      </trkpt>
      <trkpt lat="48.83091" lon="2.35424">
        <ele>112.1</ele>
        <time>2015-07-20T18:43:06.588Z</time>
      </trkpt>
      <trkpt lat="48.83091" lon="2.35431">
        <ele>111.9</ele>
        <time>2015-07-20T18:43:07.528Z</time>
      </trkpt>
      <trkpt lat="48.83093" lon="2.35439">
        <ele>112.1</ele>
        <time>2015-07-20T18:43:09.523Z</time>
      </trkpt>
      <trkpt lat="48.83094" lon="2.35443">
        <ele>112.2</ele>
        <time>2015-07-20T18:43:10.576Z</time>
      </trkpt>
      <trkpt lat="48.83103" lon="2.35445">
        <ele>113.1</ele>
        <time>2015-07-20T18:43:15.586Z</time>
      </trkpt>
      <trkpt lat="48.83104" lon="2.35445">
        <ele>113.4</ele>
        <time>2015-07-20T18:43:16.613Z</time>
      </trkpt>
      <trkpt lat="48.8311" lon="2.35439">
        <ele>115.4</ele>
        <time>2015-07-20T18:44:49.574Z</time>
      </trkpt>
      <trkpt lat="48.83114" lon="2.35438">
        <ele>115.1</ele>
        <time>2015-07-20T18:44:50.586Z</time>
      </trkpt>
      <trkpt lat="48.83121" lon="2.35441">
        <ele>114.9</ele>
        <time>2015-07-20T18:44:53.527Z</time>
      </trkpt>
      <trkpt lat="48.83124" lon="2.35442">
        <ele>115.2</ele>
        <time>2015-07-20T18:44:54.574Z</time>
      </trkpt>
      <trkpt lat="48.83131" lon="2.35441">
        <ele>115.9</ele>
        <time>2015-07-20T18:44:56.504Z</time>
      </trkpt>
      <trkpt lat="48.83134" lon="2.35442">
        <ele>115.9</ele>
        <time>2015-07-20T18:44:57.556Z</time>
      </trkpt>
      <trkpt lat="48.83142" lon="2.35442">
        <ele>116.8</ele>
        <time>2015-07-20T18:44:59.586Z</time>
      </trkpt>
      <trkpt lat="48.83146" lon="2.35442">
        <ele>116.9</ele>
        <time>2015-07-20T18:45:00.669Z</time>
      </trkpt>
      <trkpt lat="48.83152" lon="2.3544">
        <ele>116.2</ele>
        <time>2015-07-20T18:45:01.509Z</time>
      </trkpt>
      <trkpt lat="48.83157" lon="2.35439">
        <ele>116</ele>
        <time>2015-07-20T18:45:02.577Z</time>
      </trkpt>
      <trkpt lat="48.83161" lon="2.3544">
        <ele>115.6</ele>
        <time>2015-07-20T18:45:03.515Z</time>
      </trkpt>
      <trkpt lat="48.83166" lon="2.35441">
        <ele>115.5</ele>
        <time>2015-07-20T18:45:04.524Z</time>
      </trkpt>
      <trkpt lat="48.8317" lon="2.35442">
        <ele>115.4</ele>
        <time>2015-07-20T18:45:05.529Z</time>
      </trkpt>
      <trkpt lat="48.83176" lon="2.35442">
        <ele>114.7</ele>
        <time>2015-07-20T18:45:06.547Z</time>
      </trkpt>
      <trkpt lat="48.83182" lon="2.35444">
        <ele>114.3</ele>
        <time>2015-07-20T18:45:07.548Z</time>
      </trkpt>
      <trkpt lat="48.83186" lon="2.35446">
        <ele>114.2</ele>
        <time>2015-07-20T18:45:08.562Z</time>
      </trkpt>
      <trkpt lat="48.83194" lon="2.35452">
        <ele>114.5</ele>
        <time>2015-07-20T18:45:10.578Z</time>
      </trkpt>
      <trkpt lat="48.83198" lon="2.35455">
        <ele>114.4</ele>
        <time>2015-07-20T18:45:11.551Z</time>
      </trkpt>
      <trkpt lat="48.83204" lon="2.35462">
        <ele>114.2</ele>
        <time>2015-07-20T18:45:13.470Z</time>
      </trkpt>
      <trkpt lat="48.83206" lon="2.35465">
        <ele>114.2</ele>
        <time>2015-07-20T18:45:14.527Z</time>
      </trkpt>
      <trkpt lat="48.83211" lon="2.35473">
        <ele>114.2</ele>
        <time>2015-07-20T18:45:16.560Z</time>
      </trkpt>
      <trkpt lat="48.83213" lon="2.35478">
        <ele>114.2</ele>
        <time>2015-07-20T18:45:17.566Z</time>
      </trkpt>
      <trkpt lat="48.83217" lon="2.35486">
        <ele>114.4</ele>
        <time>2015-07-20T18:45:19.539Z</time>
      </trkpt>
      <trkpt lat="48.83219" lon="2.3549">
        <ele>114.3</ele>
        <time>2015-07-20T18:45:20.477Z</time>
      </trkpt>
      <trkpt lat="48.83222" lon="2.35499">
        <ele>114.6</ele>
        <time>2015-07-20T18:45:22.530Z</time>
      </trkpt>
      <trkpt lat="48.83223" lon="2.35506">
        <ele>115.6</ele>
        <time>2015-07-20T18:45:23.545Z</time>
      </trkpt>
      <trkpt lat="48.83226" lon="2.35518">
        <ele>116.5</ele>
        <time>2015-07-20T18:45:27.502Z</time>
      </trkpt>
      <trkpt lat="48.83227" lon="2.3552">
        <ele>116.2</ele>
        <time>2015-07-20T18:45:28.589Z</time>
      </trkpt>
      <trkpt lat="48.83229" lon="2.35531">
        <ele>114.5</ele>
        <time>2015-07-20T18:46:19.528Z</time>
      </trkpt>
      <trkpt lat="48.83221" lon="2.35541">
        <ele>108</ele>
        <time>2015-07-20T18:46:20.567Z</time>
      </trkpt>
      <trkpt lat="48.83222" lon="2.35553">
        <ele>107.6</ele>
        <time>2015-07-20T18:46:24.541Z</time>
      </trkpt>
      <trkpt lat="48.83223" lon="2.35556">
        <ele>107.4</ele>
        <time>2015-07-20T18:46:25.555Z</time>
      </trkpt>
      <trkpt lat="48.83224" lon="2.35568">
        <ele>107.5</ele>
        <time>2015-07-20T18:46:29.533Z</time>
      </trkpt>
      <trkpt lat="48.83225" lon="2.35572">
        <ele>107.5</ele>
        <time>2015-07-20T18:46:30.585Z</time>
      </trkpt>
      <trkpt lat="48.83224" lon="2.35584">
        <ele>107.5</ele>
        <time>2015-07-20T18:46:34.604Z</time>
      </trkpt>
      <trkpt lat="48.83223" lon="2.35587">
        <ele>107.5</ele>
        <time>2015-07-20T18:46:35.505Z</time>
      </trkpt>
      <trkpt lat="48.83223" lon="2.35589">
        <ele>107.4</ele>
        <time>2015-07-20T18:47:20.529Z</time>
      </trkpt>
      <trkpt lat="48.83217" lon="2.35608">
        <ele>110.4</ele>
        <time>2015-07-20T18:47:21.506Z</time>
      </trkpt>
      <trkpt lat="48.83216" lon="2.3562">
        <ele>111.5</ele>
        <time>2015-07-20T18:47:25.529Z</time>
      </trkpt>
      <trkpt lat="48.83216" lon="2.35622">
        <ele>111.3</ele>
        <time>2015-07-20T18:47:26.541Z</time>
      </trkpt>
      <trkpt lat="48.83213" lon="2.3563">
        <ele>111.8</ele>
        <time>2015-07-20T18:47:28.500Z</time>
      </trkpt>
      <trkpt lat="48.83212" lon="2.35635">
        <ele>112.2</ele>
        <time>2015-07-20T18:47:29.521Z</time>
      </trkpt>
      <trkpt lat="48.83208" lon="2.35644">
        <ele>112.5</ele>
        <time>2015-07-20T18:47:31.506Z</time>
      </trkpt>
      <trkpt lat="48.83206" lon="2.35647">
        <ele>112.5</ele>
        <time>2015-07-20T18:47:32.530Z</time>
      </trkpt>
      <trkpt lat="48.83202" lon="2.35655">
        <ele>112.2</ele>
        <time>2015-07-20T18:47:34.502Z</time>
      </trkpt>
      <trkpt lat="48.83199" lon="2.35658">
        <ele>112.4</ele>
        <time>2015-07-20T18:47:35.510Z</time>
      </trkpt>
      <trkpt lat="48.83194" lon="2.35665">
        <ele>112.3</ele>
        <time>2015-07-20T18:47:37.557Z</time>
      </trkpt>
      <trkpt lat="48.83189" lon="2.35666">
        <ele>112.5</ele>
        <time>2015-07-20T18:47:38.644Z</time>
      </trkpt>
      <trkpt lat="48.83186" lon="2.35668">
        <ele>112.7</ele>
        <time>2015-07-20T18:47:39.524Z</time>
      </trkpt>
      <trkpt lat="48.83179" lon="2.35662">
        <ele>113.2</ele>
        <time>2015-07-20T18:47:40.534Z</time>
      </trkpt>
      <trkpt lat="48.83172" lon="2.35671">
        <ele>115</ele>
        <time>2015-07-20T18:47:43.591Z</time>
      </trkpt>
      <trkpt lat="48.8317" lon="2.35674">
        <ele>115.8</ele>
        <time>2015-07-20T18:47:44.506Z</time>
      </trkpt>
      <trkpt lat="48.83164" lon="2.35678">
        <ele>116.9</ele>
        <time>2015-07-20T18:47:47.563Z</time>
      </trkpt>
      <trkpt lat="48.83161" lon="2.3568">
        <ele>117.1</ele>
        <time>2015-07-20T18:47:48.583Z</time>
      </trkpt>
      <trkpt lat="48.83156" lon="2.35681">
        <ele>117.5</ele>
        <time>2015-07-20T18:47:50.498Z</time>
      </trkpt>
      <trkpt lat="48.83152" lon="2.35682">
        <ele>117.7</ele>
        <time>2015-07-20T18:47:51.521Z</time>
      </trkpt>
      <trkpt lat="48.83146" lon="2.35685">
        <ele>118.7</ele>
        <time>2015-07-20T18:47:53.578Z</time>
      </trkpt>
      <trkpt lat="48.83143" lon="2.35687">
        <ele>119.4</ele>
        <time>2015-07-20T18:47:54.637Z</time>
      </trkpt>
      <trkpt lat="48.83139" lon="2.35696">
        <ele>119.1</ele>
        <time>2015-07-20T18:47:57.561Z</time>
      </trkpt>
      <trkpt lat="48.83137" lon="2.35699">
        <ele>119</ele>
        <time>2015-07-20T18:47:58.571Z</time>
      </trkpt>
      <trkpt lat="48.8313" lon="2.35706">
        <ele>120.1</ele>
        <time>2015-07-20T18:48:02.528Z</time>
      </trkpt>
      <trkpt lat="48.83128" lon="2.35708">
        <ele>120.7</ele>
        <time>2015-07-20T18:48:03.568Z</time>
      </trkpt>
      <trkpt lat="48.83122" lon="2.35717">
        <ele>115.8</ele>
        <time>2015-07-20T18:48:30.549Z</time>
      </trkpt>
      <trkpt lat="48.83123" lon="2.35721">
        <ele>115.6</ele>
        <time>2015-07-20T18:48:31.567Z</time>
      </trkpt>
      <trkpt lat="48.83128" lon="2.35733">
        <ele>115.5</ele>
        <time>2015-07-20T18:48:34.560Z</time>
      </trkpt>
      <trkpt lat="48.83129" lon="2.35738">
        <ele>115.4</ele>
        <time>2015-07-20T18:48:35.572Z</time>
      </trkpt>
      <trkpt lat="48.83133" lon="2.3575">
        <ele>115.2</ele>
        <time>2015-07-20T18:48:37.556Z</time>
      </trkpt>
      <trkpt lat="48.83135" lon="2.35756">
        <ele>115.2</ele>
        <time>2015-07-20T18:48:38.520Z</time>
      </trkpt>
      <trkpt lat="48.83136" lon="2.35763">
        <ele>115.1</ele>
        <time>2015-07-20T18:48:39.752Z</time>
      </trkpt>
      <trkpt lat="48.83138" lon="2.35769">
        <ele>115.1</ele>
        <time>2015-07-20T18:48:40.502Z</time>
      </trkpt>
      <trkpt lat="48.83141" lon="2.35775">
        <ele>115.2</ele>
        <time>2015-07-20T18:48:41.550Z</time>
      </trkpt>
      <trkpt lat="48.83143" lon="2.35782">
        <ele>115.4</ele>
        <time>2015-07-20T18:48:42.575Z</time>
      </trkpt>
      <trkpt lat="48.83146" lon="2.35789">
        <ele>115.6</ele>
        <time>2015-07-20T18:48:43.511Z</time>
      </trkpt>
      <trkpt lat="48.83149" lon="2.35796">
        <ele>115.8</ele>
        <time>2015-07-20T18:48:44.502Z</time>
      </trkpt>
      <trkpt lat="48.83151" lon="2.35804">
        <ele>116</ele>
        <time>2015-07-20T18:48:45.542Z</time>
      </trkpt>
      <trkpt lat="48.83153" lon="2.35811">
        <ele>116.3</ele>
        <time>2015-07-20T18:48:46.546Z</time>
      </trkpt>
      <trkpt lat="48.83156" lon="2.35819">
        <ele>116.1</ele>
        <time>2015-07-20T18:48:47.564Z</time>
      </trkpt>
      <trkpt lat="48.83159" lon="2.35826">
        <ele>116</ele>
        <time>2015-07-20T18:48:48.573Z</time>
      </trkpt>
      <trkpt lat="48.83163" lon="2.35833">
        <ele>115.9</ele>
        <time>2015-07-20T18:48:49.583Z</time>
      </trkpt>
      <trkpt lat="48.83166" lon="2.3584">
        <ele>115.7</ele>
        <time>2015-07-20T18:48:50.498Z</time>
      </trkpt>
      <trkpt lat="48.8317" lon="2.35846">
        <ele>115.7</ele>
        <time>2015-07-20T18:48:51.507Z</time>
      </trkpt>
      <trkpt lat="48.83174" lon="2.35853">
        <ele>115.7</ele>
        <time>2015-07-20T18:48:52.517Z</time>
      </trkpt>
      <trkpt lat="48.83178" lon="2.35861">
        <ele>115.7</ele>
        <time>2015-07-20T18:48:53.528Z</time>
      </trkpt>
      <trkpt lat="48.83181" lon="2.35868">
        <ele>115.6</ele>
        <time>2015-07-20T18:48:54.546Z</time>
      </trkpt>
      <trkpt lat="48.83185" lon="2.35876">
        <ele>115.5</ele>
        <time>2015-07-20T18:48:55.539Z</time>
      </trkpt>
      <trkpt lat="48.83188" lon="2.35884">
        <ele>115.4</ele>
        <time>2015-07-20T18:48:56.544Z</time>
      </trkpt>
      <trkpt lat="48.83192" lon="2.35891">
        <ele>115.2</ele>
        <time>2015-07-20T18:48:57.563Z</time>
      </trkpt>
      <trkpt lat="48.83195" lon="2.35898">
        <ele>115.1</ele>
        <time>2015-07-20T18:48:58.565Z</time>
      </trkpt>
      <trkpt lat="48.83199" lon="2.35906">
        <ele>115.5</ele>
        <time>2015-07-20T18:48:59.583Z</time>
      </trkpt>
      <trkpt lat="48.83202" lon="2.35914">
        <ele>115.7</ele>
        <time>2015-07-20T18:49:00.600Z</time>
      </trkpt>
      <trkpt lat="48.83205" lon="2.35922">
        <ele>116.1</ele>
        <time>2015-07-20T18:49:01.501Z</time>
      </trkpt>
      <trkpt lat="48.83207" lon="2.35931">
        <ele>116.7</ele>
        <time>2015-07-20T18:49:02.540Z</time>
      </trkpt>
      <trkpt lat="48.8321" lon="2.35939">
        <ele>116.6</ele>
        <time>2015-07-20T18:49:03.524Z</time>
      </trkpt>
      <trkpt lat="48.83213" lon="2.35946">
        <ele>116.7</ele>
        <time>2015-07-20T18:49:04.539Z</time>
      </trkpt>
      <trkpt lat="48.83215" lon="2.35954">
        <ele>116.8</ele>
        <time>2015-07-20T18:49:05.550Z</time>
      </trkpt>
      <trkpt lat="48.83217" lon="2.35962">
        <ele>116.9</ele>
        <time>2015-07-20T18:49:06.558Z</time>
      </trkpt>
      <trkpt lat="48.83221" lon="2.35971">
        <ele>117.5</ele>
        <time>2015-07-20T18:49:07.569Z</time>
      </trkpt>
      <trkpt lat="48.83223" lon="2.35979">
        <ele>117.1</ele>
        <time>2015-07-20T18:49:08.616Z</time>
      </trkpt>
      <trkpt lat="48.83227" lon="2.35988">
        <ele>117.1</ele>
        <time>2015-07-20T18:49:09.501Z</time>
      </trkpt>
      <trkpt lat="48.8323" lon="2.35998">
        <ele>117.7</ele>
        <time>2015-07-20T18:49:10.509Z</time>
      </trkpt>
      <trkpt lat="48.83234" lon="2.36009">
        <ele>117.9</ele>
        <time>2015-07-20T18:49:11.523Z</time>
      </trkpt>
      <trkpt lat="48.83237" lon="2.36019">
        <ele>117.7</ele>
        <time>2015-07-20T18:49:12.575Z</time>
      </trkpt>
      <trkpt lat="48.83241" lon="2.36029">
        <ele>117.3</ele>
        <time>2015-07-20T18:49:13.569Z</time>
      </trkpt>
      <trkpt lat="48.83244" lon="2.36039">
        <ele>117.3</ele>
        <time>2015-07-20T18:49:14.576Z</time>
      </trkpt>
      <trkpt lat="48.83249" lon="2.36048">
        <ele>117.4</ele>
        <time>2015-07-20T18:49:15.502Z</time>
      </trkpt>
      <trkpt lat="48.83254" lon="2.36058">
        <ele>117.3</ele>
        <time>2015-07-20T18:49:16.497Z</time>
      </trkpt>
      <trkpt lat="48.83261" lon="2.36067">
        <ele>117.5</ele>
        <time>2015-07-20T18:49:17.516Z</time>
      </trkpt>
      <trkpt lat="48.83266" lon="2.36077">
        <ele>117.7</ele>
        <time>2015-07-20T18:49:18.542Z</time>
      </trkpt>
      <trkpt lat="48.83268" lon="2.3609">
        <ele>118</ele>
        <time>2015-07-20T18:49:19.569Z</time>
      </trkpt>
      <trkpt lat="48.83269" lon="2.36102">
        <ele>117.8</ele>
        <time>2015-07-20T18:49:20.572Z</time>
      </trkpt>
      <trkpt lat="48.8327" lon="2.36115">
        <ele>117.4</ele>
        <time>2015-07-20T18:49:21.604Z</time>
      </trkpt>
      <trkpt lat="48.83271" lon="2.36128">
        <ele>117.8</ele>
        <time>2015-07-20T18:49:22.601Z</time>
      </trkpt>
      <trkpt lat="48.83273" lon="2.3614">
        <ele>117.8</ele>
        <time>2015-07-20T18:49:23.499Z</time>
      </trkpt>
      <trkpt lat="48.83274" lon="2.36152">
        <ele>118.2</ele>
        <time>2015-07-20T18:49:24.546Z</time>
      </trkpt>
      <trkpt lat="48.83277" lon="2.36164">
        <ele>117.9</ele>
        <time>2015-07-20T18:49:25.546Z</time>
      </trkpt>
      <trkpt lat="48.83281" lon="2.36174">
        <ele>117.8</ele>
        <time>2015-07-20T18:49:26.555Z</time>
      </trkpt>
      <trkpt lat="48.83283" lon="2.36183">
        <ele>117.7</ele>
        <time>2015-07-20T18:49:27.564Z</time>
      </trkpt>
      <trkpt lat="48.83285" lon="2.3619">
        <ele>117.8</ele>
        <time>2015-07-20T18:49:28.573Z</time>
      </trkpt>
      <trkpt lat="48.83288" lon="2.36201">
        <ele>117.9</ele>
        <time>2015-07-20T18:49:30.594Z</time>
      </trkpt>
      <trkpt lat="48.8329" lon="2.36206">
        <ele>117.7</ele>
        <time>2015-07-20T18:49:31.520Z</time>
      </trkpt>
      <trkpt lat="48.83293" lon="2.36216">
        <ele>117.4</ele>
        <time>2015-07-20T18:49:33.497Z</time>
      </trkpt>
      <trkpt lat="48.83293" lon="2.36221">
        <ele>116.8</ele>
        <time>2015-07-20T18:49:34.518Z</time>
      </trkpt>
      <trkpt lat="48.83295" lon="2.36227">
        <ele>116.7</ele>
        <time>2015-07-20T18:49:35.539Z</time>
      </trkpt>
      <trkpt lat="48.83297" lon="2.36234">
        <ele>116.3</ele>
        <time>2015-07-20T18:49:36.560Z</time>
      </trkpt>
      <trkpt lat="48.83298" lon="2.3624">
        <ele>115.8</ele>
        <time>2015-07-20T18:49:37.490Z</time>
      </trkpt>
      <trkpt lat="48.833" lon="2.36247">
        <ele>115.4</ele>
        <time>2015-07-20T18:49:38.524Z</time>
      </trkpt>
      <trkpt lat="48.83302" lon="2.36254">
        <ele>115.2</ele>
        <time>2015-07-20T18:49:39.532Z</time>
      </trkpt>
      <trkpt lat="48.83303" lon="2.36262">
        <ele>115.2</ele>
        <time>2015-07-20T18:49:40.529Z</time>
      </trkpt>
      <trkpt lat="48.83305" lon="2.36269">
        <ele>115</ele>
        <time>2015-07-20T18:49:41.567Z</time>
      </trkpt>
      <trkpt lat="48.83307" lon="2.36277">
        <ele>114.9</ele>
        <time>2015-07-20T18:49:42.604Z</time>
      </trkpt>
      <trkpt lat="48.8331" lon="2.36285">
        <ele>114.8</ele>
        <time>2015-07-20T18:49:43.501Z</time>
      </trkpt>
      <trkpt lat="48.83313" lon="2.36291">
        <ele>114.7</ele>
        <time>2015-07-20T18:49:44.501Z</time>
      </trkpt>
      <trkpt lat="48.83317" lon="2.36298">
        <ele>114.6</ele>
        <time>2015-07-20T18:49:45.534Z</time>
      </trkpt>
      <trkpt lat="48.8332" lon="2.36306">
        <ele>114.8</ele>
        <time>2015-07-20T18:49:46.547Z</time>
      </trkpt>
      <trkpt lat="48.83324" lon="2.36314">
        <ele>115</ele>
        <time>2015-07-20T18:49:47.506Z</time>
      </trkpt>
      <trkpt lat="48.83328" lon="2.36321">
        <ele>115</ele>
        <time>2015-07-20T18:49:48.554Z</time>
      </trkpt>
      <trkpt lat="48.83331" lon="2.36329">
        <ele>115.3</ele>
        <time>2015-07-20T18:49:49.560Z</time>
      </trkpt>
      <trkpt lat="48.83335" lon="2.36337">
        <ele>115.5</ele>
        <time>2015-07-20T18:49:50.572Z</time>
      </trkpt>
      <trkpt lat="48.83338" lon="2.36345">
        <ele>115.9</ele>
        <time>2015-07-20T18:49:51.499Z</time>
      </trkpt>
      <trkpt lat="48.8334" lon="2.36353">
        <ele>116.3</ele>
        <time>2015-07-20T18:49:52.496Z</time>
      </trkpt>
      <trkpt lat="48.83343" lon="2.36361">
        <ele>116.3</ele>
        <time>2015-07-20T18:49:53.526Z</time>
      </trkpt>
      <trkpt lat="48.83345" lon="2.36369">
        <ele>116.3</ele>
        <time>2015-07-20T18:49:54.575Z</time>
      </trkpt>
      <trkpt lat="48.83347" lon="2.36376">
        <ele>115.8</ele>
        <time>2015-07-20T18:49:55.500Z</time>
      </trkpt>
      <trkpt lat="48.83349" lon="2.36384">
        <ele>115.3</ele>
        <time>2015-07-20T18:49:56.530Z</time>
      </trkpt>
      <trkpt lat="48.83351" lon="2.36391">
        <ele>115.1</ele>
        <time>2015-07-20T18:49:57.571Z</time>
      </trkpt>
      <trkpt lat="48.83353" lon="2.36399">
        <ele>114.7</ele>
        <time>2015-07-20T18:49:58.520Z</time>
      </trkpt>
      <trkpt lat="48.83356" lon="2.36407">
        <ele>114.1</ele>
        <time>2015-07-20T18:49:59.511Z</time>
      </trkpt>
      <trkpt lat="48.83359" lon="2.36414">
        <ele>113.3</ele>
        <time>2015-07-20T18:50:00.557Z</time>
      </trkpt>
      <trkpt lat="48.83363" lon="2.36422">
        <ele>113.1</ele>
        <time>2015-07-20T18:50:01.728Z</time>
      </trkpt>
      <trkpt lat="48.83365" lon="2.36432">
        <ele>113.3</ele>
        <time>2015-07-20T18:50:02.471Z</time>
      </trkpt>
      <trkpt lat="48.83368" lon="2.36441">
        <ele>113.2</ele>
        <time>2015-07-20T18:50:03.487Z</time>
      </trkpt>
      <trkpt lat="48.83371" lon="2.3645">
        <ele>113.2</ele>
        <time>2015-07-20T18:50:04.499Z</time>
      </trkpt>
      <trkpt lat="48.83374" lon="2.36458">
        <ele>113.6</ele>
        <time>2015-07-20T18:50:05.494Z</time>
      </trkpt>
      <trkpt lat="48.83378" lon="2.36467">
        <ele>113.7</ele>
        <time>2015-07-20T18:50:06.531Z</time>
      </trkpt>
      <trkpt lat="48.83383" lon="2.36475">
        <ele>113.7</ele>
        <time>2015-07-20T18:50:07.544Z</time>
      </trkpt>
      <trkpt lat="48.83389" lon="2.36483">
        <ele>113.6</ele>
        <time>2015-07-20T18:50:08.556Z</time>
      </trkpt>
      <trkpt lat="48.83395" lon="2.36491">
        <ele>113.6</ele>
        <time>2015-07-20T18:50:09.469Z</time>
      </trkpt>
      <trkpt lat="48.834" lon="2.365">
        <ele>113.7</ele>
        <time>2015-07-20T18:50:10.491Z</time>
      </trkpt>
      <trkpt lat="48.83405" lon="2.3651">
        <ele>114</ele>
        <time>2015-07-20T18:50:11.501Z</time>
      </trkpt>
      <trkpt lat="48.83407" lon="2.3652">
        <ele>114.2</ele>
        <time>2015-07-20T18:50:12.547Z</time>
      </trkpt>
      <trkpt lat="48.83411" lon="2.36531">
        <ele>114.8</ele>
        <time>2015-07-20T18:50:13.556Z</time>
      </trkpt>
      <trkpt lat="48.83415" lon="2.36542">
        <ele>115.3</ele>
        <time>2015-07-20T18:50:14.561Z</time>
      </trkpt>
      <trkpt lat="48.83418" lon="2.36552">
        <ele>115.5</ele>
        <time>2015-07-20T18:50:15.569Z</time>
      </trkpt>
      <trkpt lat="48.83421" lon="2.36562">
        <ele>115.9</ele>
        <time>2015-07-20T18:50:16.495Z</time>
      </trkpt>
      <trkpt lat="48.83423" lon="2.36573">
        <ele>115.8</ele>
        <time>2015-07-20T18:50:17.500Z</time>
      </trkpt>
      <trkpt lat="48.83426" lon="2.36583">
        <ele>114.9</ele>
        <time>2015-07-20T18:50:18.587Z</time>
      </trkpt>
      <trkpt lat="48.83429" lon="2.36594">
        <ele>114.8</ele>
        <time>2015-07-20T18:50:19.473Z</time>
      </trkpt>
      <trkpt lat="48.83432" lon="2.36604">
        <ele>115</ele>
        <time>2015-07-20T18:50:20.553Z</time>
      </trkpt>
      <trkpt lat="48.83435" lon="2.36614">
        <ele>115.3</ele>
        <time>2015-07-20T18:50:21.519Z</time>
      </trkpt>
      <trkpt lat="48.83438" lon="2.36624">
        <ele>115.4</ele>
        <time>2015-07-20T18:50:22.532Z</time>
      </trkpt>
      <trkpt lat="48.8344" lon="2.36633">
        <ele>115.4</ele>
        <time>2015-07-20T18:50:23.535Z</time>
      </trkpt>
      <trkpt lat="48.83442" lon="2.36643">
        <ele>114.9</ele>
        <time>2015-07-20T18:50:24.558Z</time>
      </trkpt>
      <trkpt lat="48.83444" lon="2.36653">
        <ele>114.2</ele>
        <time>2015-07-20T18:50:25.566Z</time>
      </trkpt>
      <trkpt lat="48.83447" lon="2.36663">
        <ele>113.7</ele>
        <time>2015-07-20T18:50:26.632Z</time>
      </trkpt>
      <trkpt lat="48.83449" lon="2.36673">
        <ele>113.3</ele>
        <time>2015-07-20T18:50:27.472Z</time>
      </trkpt>
      <trkpt lat="48.83452" lon="2.36682">
        <ele>113.2</ele>
        <time>2015-07-20T18:50:28.494Z</time>
      </trkpt>
      <trkpt lat="48.83456" lon="2.36692">
        <ele>113.3</ele>
        <time>2015-07-20T18:50:29.494Z</time>
      </trkpt>
      <trkpt lat="48.8346" lon="2.36701">
        <ele>114.1</ele>
        <time>2015-07-20T18:50:30.546Z</time>
      </trkpt>
      <trkpt lat="48.83463" lon="2.36711">
        <ele>114.3</ele>
        <time>2015-07-20T18:50:31.495Z</time>
      </trkpt>
      <trkpt lat="48.83467" lon="2.36719">
        <ele>114.6</ele>
        <time>2015-07-20T18:50:32.548Z</time>
      </trkpt>
      <trkpt lat="48.83471" lon="2.36728">
        <ele>115</ele>
        <time>2015-07-20T18:50:33.589Z</time>
      </trkpt>
      <trkpt lat="48.83474" lon="2.36737">
        <ele>115.5</ele>
        <time>2015-07-20T18:50:34.501Z</time>
      </trkpt>
      <trkpt lat="48.83476" lon="2.36747">
        <ele>115.5</ele>
        <time>2015-07-20T18:50:35.505Z</time>
      </trkpt>
      <trkpt lat="48.8348" lon="2.36755">
        <ele>115.5</ele>
        <time>2015-07-20T18:50:36.545Z</time>
      </trkpt>
      <trkpt lat="48.83483" lon="2.36763">
        <ele>115.3</ele>
        <time>2015-07-20T18:50:37.571Z</time>
      </trkpt>
      <trkpt lat="48.83487" lon="2.36772">
        <ele>115.5</ele>
        <time>2015-07-20T18:50:38.566Z</time>
      </trkpt>
      <trkpt lat="48.8349" lon="2.3678">
        <ele>115.5</ele>
        <time>2015-07-20T18:50:39.489Z</time>
      </trkpt>
      <trkpt lat="48.83492" lon="2.36789">
        <ele>115.5</ele>
        <time>2015-07-20T18:50:40.494Z</time>
      </trkpt>
      <trkpt lat="48.83495" lon="2.36798">
        <ele>115.4</ele>
        <time>2015-07-20T18:50:41.506Z</time>
      </trkpt>
      <trkpt lat="48.83497" lon="2.36807">
        <ele>115.2</ele>
        <time>2015-07-20T18:50:42.529Z</time>
      </trkpt>
      <trkpt lat="48.83499" lon="2.36816">
        <ele>114.9</ele>
        <time>2015-07-20T18:50:43.541Z</time>
      </trkpt>
      <trkpt lat="48.83501" lon="2.36823">
        <ele>114.9</ele>
        <time>2015-07-20T18:50:44.541Z</time>
      </trkpt>
      <trkpt lat="48.83504" lon="2.36831">
        <ele>115</ele>
        <time>2015-07-20T18:50:45.550Z</time>
      </trkpt>
      <trkpt lat="48.83506" lon="2.3684">
        <ele>115</ele>
        <time>2015-07-20T18:50:46.560Z</time>
      </trkpt>
      <trkpt lat="48.83511" lon="2.36847">
        <ele>114.6</ele>
        <time>2015-07-20T18:50:47.572Z</time>
      </trkpt>
      <trkpt lat="48.83514" lon="2.36855">
        <ele>114.4</ele>
        <time>2015-07-20T18:50:48.583Z</time>
      </trkpt>
      <trkpt lat="48.83517" lon="2.36864">
        <ele>114.3</ele>
        <time>2015-07-20T18:50:49.488Z</time>
      </trkpt>
      <trkpt lat="48.83519" lon="2.36875">
        <ele>114.4</ele>
        <time>2015-07-20T18:50:50.486Z</time>
      </trkpt>
      <trkpt lat="48.83522" lon="2.36885">
        <ele>114.4</ele>
        <time>2015-07-20T18:50:51.500Z</time>
      </trkpt>
      <trkpt lat="48.83526" lon="2.36894">
        <ele>114.7</ele>
        <time>2015-07-20T18:50:52.512Z</time>
      </trkpt>
      <trkpt lat="48.83529" lon="2.36903">
        <ele>114.7</ele>
        <time>2015-07-20T18:50:53.521Z</time>
      </trkpt>
      <trkpt lat="48.83531" lon="2.36911">
        <ele>113.9</ele>
        <time>2015-07-20T18:50:54.547Z</time>
      </trkpt>
      <trkpt lat="48.83532" lon="2.3692">
        <ele>113.6</ele>
        <time>2015-07-20T18:50:55.560Z</time>
      </trkpt>
      <trkpt lat="48.83534" lon="2.36928">
        <ele>113.1</ele>
        <time>2015-07-20T18:50:56.564Z</time>
      </trkpt>
      <trkpt lat="48.83536" lon="2.36937">
        <ele>112.9</ele>
        <time>2015-07-20T18:50:57.574Z</time>
      </trkpt>
      <trkpt lat="48.83539" lon="2.36945">
        <ele>112.7</ele>
        <time>2015-07-20T18:50:58.512Z</time>
      </trkpt>
      <trkpt lat="48.83542" lon="2.36953">
        <ele>112.8</ele>
        <time>2015-07-20T18:50:59.525Z</time>
      </trkpt>
      <trkpt lat="48.83547" lon="2.36961">
        <ele>112.6</ele>
        <time>2015-07-20T18:51:00.532Z</time>
      </trkpt>
      <trkpt lat="48.83552" lon="2.36968">
        <ele>112.7</ele>
        <time>2015-07-20T18:51:01.563Z</time>
      </trkpt>
      <trkpt lat="48.83557" lon="2.36974">
        <ele>112.9</ele>
        <time>2015-07-20T18:51:02.577Z</time>
      </trkpt>
      <trkpt lat="48.83561" lon="2.36981">
        <ele>113.2</ele>
        <time>2015-07-20T18:51:03.489Z</time>
      </trkpt>
      <trkpt lat="48.83565" lon="2.36987">
        <ele>113.4</ele>
        <time>2015-07-20T18:51:04.497Z</time>
      </trkpt>
      <trkpt lat="48.8357" lon="2.36994">
        <ele>113.2</ele>
        <time>2015-07-20T18:51:05.502Z</time>
      </trkpt>
      <trkpt lat="48.83575" lon="2.36999">
        <ele>113.1</ele>
        <time>2015-07-20T18:51:06.550Z</time>
      </trkpt>
      <trkpt lat="48.8358" lon="2.37005">
        <ele>113.1</ele>
        <time>2015-07-20T18:51:07.562Z</time>
      </trkpt>
      <trkpt lat="48.83583" lon="2.37012">
        <ele>112.8</ele>
        <time>2015-07-20T18:51:08.572Z</time>
      </trkpt>
      <trkpt lat="48.83585" lon="2.37019">
        <ele>113</ele>
        <time>2015-07-20T18:51:09.496Z</time>
      </trkpt>
      <trkpt lat="48.83587" lon="2.37026">
        <ele>113.5</ele>
        <time>2015-07-20T18:51:10.470Z</time>
      </trkpt>
      <trkpt lat="48.8359" lon="2.37034">
        <ele>114.2</ele>
        <time>2015-07-20T18:51:11.477Z</time>
      </trkpt>
      <trkpt lat="48.83593" lon="2.37042">
        <ele>114.4</ele>
        <time>2015-07-20T18:51:12.563Z</time>
      </trkpt>
      <trkpt lat="48.83596" lon="2.3705">
        <ele>114.9</ele>
        <time>2015-07-20T18:51:13.495Z</time>
      </trkpt>
      <trkpt lat="48.836" lon="2.37058">
        <ele>115.1</ele>
        <time>2015-07-20T18:51:14.500Z</time>
      </trkpt>
      <trkpt lat="48.83602" lon="2.37067">
        <ele>115.2</ele>
        <time>2015-07-20T18:51:15.511Z</time>
      </trkpt>
      <trkpt lat="48.83605" lon="2.37074">
        <ele>115.5</ele>
        <time>2015-07-20T18:51:16.526Z</time>
      </trkpt>
      <trkpt lat="48.83607" lon="2.37081">
        <ele>115.6</ele>
        <time>2015-07-20T18:51:17.547Z</time>
      </trkpt>
      <trkpt lat="48.8361" lon="2.37088">
        <ele>115.9</ele>
        <time>2015-07-20T18:51:18.554Z</time>
      </trkpt>
      <trkpt lat="48.83611" lon="2.37101">
        <ele>115.6</ele>
        <time>2015-07-20T18:51:20.495Z</time>
      </trkpt>
      <trkpt lat="48.83611" lon="2.37107">
        <ele>114.8</ele>
        <time>2015-07-20T18:51:21.518Z</time>
      </trkpt>
      <trkpt lat="48.83613" lon="2.37119">
        <ele>113.9</ele>
        <time>2015-07-20T18:51:23.534Z</time>
      </trkpt>
      <trkpt lat="48.83614" lon="2.37125">
        <ele>113.4</ele>
        <time>2015-07-20T18:51:24.588Z</time>
      </trkpt>
      <trkpt lat="48.83617" lon="2.37137">
        <ele>112.9</ele>
        <time>2015-07-20T18:51:26.498Z</time>
      </trkpt>
      <trkpt lat="48.83618" lon="2.37143">
        <ele>112.5</ele>
        <time>2015-07-20T18:51:27.561Z</time>
      </trkpt>
      <trkpt lat="48.83622" lon="2.37152">
        <ele>111.8</ele>
        <time>2015-07-20T18:51:29.539Z</time>
      </trkpt>
      <trkpt lat="48.83624" lon="2.37157">
        <ele>111.3</ele>
        <time>2015-07-20T18:51:30.607Z</time>
      </trkpt>
      <trkpt lat="48.83629" lon="2.37168">
        <ele>110.4</ele>
        <time>2015-07-20T18:51:32.525Z</time>
      </trkpt>
      <trkpt lat="48.83632" lon="2.37174">
        <ele>110.2</ele>
        <time>2015-07-20T18:51:33.608Z</time>
      </trkpt>
      <trkpt lat="48.83637" lon="2.3718">
        <ele>110.1</ele>
        <time>2015-07-20T18:51:34.521Z</time>
      </trkpt>
      <trkpt lat="48.83642" lon="2.37186">
        <ele>109.9</ele>
        <time>2015-07-20T18:51:35.534Z</time>
      </trkpt>
      <trkpt lat="48.83648" lon="2.37192">
        <ele>109.5</ele>
        <time>2015-07-20T18:51:36.560Z</time>
      </trkpt>
      <trkpt lat="48.83654" lon="2.37198">
        <ele>109.5</ele>
        <time>2015-07-20T18:51:37.579Z</time>
      </trkpt>
      <trkpt lat="48.83659" lon="2.37206">
        <ele>109.7</ele>
        <time>2015-07-20T18:51:38.588Z</time>
      </trkpt>
      <trkpt lat="48.83664" lon="2.37213">
        <ele>110.1</ele>
        <time>2015-07-20T18:51:39.495Z</time>
      </trkpt>
      <trkpt lat="48.8367" lon="2.3722">
        <ele>110.3</ele>
        <time>2015-07-20T18:51:40.499Z</time>
      </trkpt>
      <trkpt lat="48.83676" lon="2.37227">
        <ele>110</ele>
        <time>2015-07-20T18:51:41.528Z</time>
      </trkpt>
      <trkpt lat="48.83682" lon="2.37232">
        <ele>109.8</ele>
        <time>2015-07-20T18:51:42.550Z</time>
      </trkpt>
      <trkpt lat="48.83688" lon="2.37239">
        <ele>109.8</ele>
        <time>2015-07-20T18:51:43.563Z</time>
      </trkpt>
      <trkpt lat="48.83692" lon="2.37246">
        <ele>109.7</ele>
        <time>2015-07-20T18:51:44.635Z</time>
      </trkpt>
      <trkpt lat="48.83695" lon="2.37253">
        <ele>109.7</ele>
        <time>2015-07-20T18:51:45.524Z</time>
      </trkpt>
      <trkpt lat="48.83699" lon="2.3726">
        <ele>109.6</ele>
        <time>2015-07-20T18:51:46.545Z</time>
      </trkpt>
      <trkpt lat="48.83702" lon="2.37268">
        <ele>109.7</ele>
        <time>2015-07-20T18:51:47.557Z</time>
      </trkpt>
      <trkpt lat="48.83706" lon="2.37276">
        <ele>110</ele>
        <time>2015-07-20T18:51:48.618Z</time>
      </trkpt>
      <trkpt lat="48.83709" lon="2.37283">
        <ele>110.2</ele>
        <time>2015-07-20T18:51:49.482Z</time>
      </trkpt>
      <trkpt lat="48.83712" lon="2.3729">
        <ele>110.4</ele>
        <time>2015-07-20T18:51:50.569Z</time>
      </trkpt>
      <trkpt lat="48.83714" lon="2.37298">
        <ele>110.5</ele>
        <time>2015-07-20T18:51:51.591Z</time>
      </trkpt>
      <trkpt lat="48.83718" lon="2.37305">
        <ele>110.3</ele>
        <time>2015-07-20T18:51:52.548Z</time>
      </trkpt>
      <trkpt lat="48.83722" lon="2.37312">
        <ele>110.3</ele>
        <time>2015-07-20T18:51:53.527Z</time>
      </trkpt>
      <trkpt lat="48.83726" lon="2.37318">
        <ele>110.3</ele>
        <time>2015-07-20T18:51:54.567Z</time>
      </trkpt>
      <trkpt lat="48.83729" lon="2.37325">
        <ele>110.2</ele>
        <time>2015-07-20T18:51:55.554Z</time>
      </trkpt>
      <trkpt lat="48.83729" lon="2.37333">
        <ele>109.9</ele>
        <time>2015-07-20T18:51:56.520Z</time>
      </trkpt>
      <trkpt lat="48.83731" lon="2.37341">
        <ele>110</ele>
        <time>2015-07-20T18:51:57.623Z</time>
      </trkpt>
      <trkpt lat="48.83734" lon="2.37348">
        <ele>110</ele>
        <time>2015-07-20T18:51:58.544Z</time>
      </trkpt>
      <trkpt lat="48.83737" lon="2.37356">
        <ele>110.2</ele>
        <time>2015-07-20T18:51:59.551Z</time>
      </trkpt>
      <trkpt lat="48.83739" lon="2.37364">
        <ele>109.9</ele>
        <time>2015-07-20T18:52:00.576Z</time>
      </trkpt>
      <trkpt lat="48.83743" lon="2.37372">
        <ele>109.6</ele>
        <time>2015-07-20T18:52:01.573Z</time>
      </trkpt>
      <trkpt lat="48.83747" lon="2.37378">
        <ele>109.4</ele>
        <time>2015-07-20T18:52:02.505Z</time>
      </trkpt>
      <trkpt lat="48.83749" lon="2.37385">
        <ele>108.3</ele>
        <time>2015-07-20T18:52:03.518Z</time>
      </trkpt>
      <trkpt lat="48.83751" lon="2.37398">
        <ele>105.3</ele>
        <time>2015-07-20T18:52:05.515Z</time>
      </trkpt>
      <trkpt lat="48.83752" lon="2.37404">
        <ele>104.7</ele>
        <time>2015-07-20T18:52:06.626Z</time>
      </trkpt>
      <trkpt lat="48.83757" lon="2.37415">
        <ele>103.7</ele>
        <time>2015-07-20T18:52:08.517Z</time>
      </trkpt>
      <trkpt lat="48.8376" lon="2.37421">
        <ele>103.4</ele>
        <time>2015-07-20T18:52:09.589Z</time>
      </trkpt>
      <trkpt lat="48.83762" lon="2.37427">
        <ele>102.9</ele>
        <time>2015-07-20T18:52:10.496Z</time>
      </trkpt>
      <trkpt lat="48.83764" lon="2.37433">
        <ele>102.2</ele>
        <time>2015-07-20T18:52:11.517Z</time>
      </trkpt>
      <trkpt lat="48.83767" lon="2.3744">
        <ele>102.2</ele>
        <time>2015-07-20T18:52:12.594Z</time>
      </trkpt>
      <trkpt lat="48.8377" lon="2.37446">
        <ele>101.9</ele>
        <time>2015-07-20T18:52:13.562Z</time>
      </trkpt>
      <trkpt lat="48.83774" lon="2.37451">
        <ele>101.8</ele>
        <time>2015-07-20T18:52:14.494Z</time>
      </trkpt>
      <trkpt lat="48.83777" lon="2.37457">
        <ele>101.7</ele>
        <time>2015-07-20T18:52:15.494Z</time>
      </trkpt>
      <trkpt lat="48.83781" lon="2.37463">
        <ele>101.7</ele>
        <time>2015-07-20T18:52:16.576Z</time>
      </trkpt>
      <trkpt lat="48.83785" lon="2.37469">
        <ele>101.9</ele>
        <time>2015-07-20T18:52:17.564Z</time>
      </trkpt>
      <trkpt lat="48.83789" lon="2.37474">
        <ele>102</ele>
        <time>2015-07-20T18:52:18.614Z</time>
      </trkpt>
      <trkpt lat="48.83793" lon="2.3748">
        <ele>101.9</ele>
        <time>2015-07-20T18:52:19.497Z</time>
      </trkpt>
      <trkpt lat="48.83796" lon="2.37486">
        <ele>101.7</ele>
        <time>2015-07-20T18:52:20.583Z</time>
      </trkpt>
      <trkpt lat="48.83799" lon="2.37491">
        <ele>101.3</ele>
        <time>2015-07-20T18:52:21.517Z</time>
      </trkpt>
      <trkpt lat="48.83802" lon="2.37497">
        <ele>100.7</ele>
        <time>2015-07-20T18:52:22.496Z</time>
      </trkpt>
      <trkpt lat="48.83805" lon="2.37503">
        <ele>100.3</ele>
        <time>2015-07-20T18:52:23.498Z</time>
      </trkpt>
      <trkpt lat="48.83808" lon="2.37509">
        <ele>99.9</ele>
        <time>2015-07-20T18:52:24.540Z</time>
      </trkpt>
      <trkpt lat="48.83812" lon="2.37514">
        <ele>99.8</ele>
        <time>2015-07-20T18:52:25.530Z</time>
      </trkpt>
      <trkpt lat="48.83816" lon="2.3752">
        <ele>99.7</ele>
        <time>2015-07-20T18:52:26.543Z</time>
      </trkpt>
      <trkpt lat="48.83819" lon="2.37525">
        <ele>99.4</ele>
        <time>2015-07-20T18:52:27.560Z</time>
      </trkpt>
      <trkpt lat="48.83822" lon="2.37531">
        <ele>99.2</ele>
        <time>2015-07-20T18:52:28.585Z</time>
      </trkpt>
      <trkpt lat="48.83825" lon="2.37537">
        <ele>99.1</ele>
        <time>2015-07-20T18:52:29.573Z</time>
      </trkpt>
      <trkpt lat="48.83827" lon="2.37543">
        <ele>99</ele>
        <time>2015-07-20T18:52:30.580Z</time>
      </trkpt>
      <trkpt lat="48.8383" lon="2.3755">
        <ele>99</ele>
        <time>2015-07-20T18:52:31.465Z</time>
      </trkpt>
      <trkpt lat="48.83833" lon="2.37556">
        <ele>98.8</ele>
        <time>2015-07-20T18:52:32.555Z</time>
      </trkpt>
      <trkpt lat="48.83837" lon="2.37562">
        <ele>98.4</ele>
        <time>2015-07-20T18:52:33.568Z</time>
      </trkpt>
      <trkpt lat="48.8384" lon="2.37568">
        <ele>98.2</ele>
        <time>2015-07-20T18:52:34.491Z</time>
      </trkpt>
      <trkpt lat="48.83843" lon="2.37574">
        <ele>98</ele>
        <time>2015-07-20T18:52:35.486Z</time>
      </trkpt>
      <trkpt lat="48.83847" lon="2.3758">
        <ele>98</ele>
        <time>2015-07-20T18:52:36.543Z</time>
      </trkpt>
      <trkpt lat="48.83851" lon="2.37586">
        <ele>98</ele>
        <time>2015-07-20T18:52:37.534Z</time>
      </trkpt>
      <trkpt lat="48.83854" lon="2.37593">
        <ele>97.9</ele>
        <time>2015-07-20T18:52:38.495Z</time>
      </trkpt>
      <trkpt lat="48.83858" lon="2.376">
        <ele>98</ele>
        <time>2015-07-20T18:52:39.492Z</time>
      </trkpt>
      <trkpt lat="48.83861" lon="2.37606">
        <ele>98.2</ele>
        <time>2015-07-20T18:52:40.518Z</time>
      </trkpt>
      <trkpt lat="48.83865" lon="2.37613">
        <ele>98.3</ele>
        <time>2015-07-20T18:52:41.531Z</time>
      </trkpt>
      <trkpt lat="48.83869" lon="2.3762">
        <ele>98.4</ele>
        <time>2015-07-20T18:52:42.578Z</time>
      </trkpt>
      <trkpt lat="48.83872" lon="2.37627">
        <ele>98.1</ele>
        <time>2015-07-20T18:52:43.501Z</time>
      </trkpt>
      <trkpt lat="48.83875" lon="2.37634">
        <ele>97.8</ele>
        <time>2015-07-20T18:52:44.496Z</time>
      </trkpt>
      <trkpt lat="48.83879" lon="2.3764">
        <ele>97.5</ele>
        <time>2015-07-20T18:52:45.498Z</time>
      </trkpt>
      <trkpt lat="48.83883" lon="2.37647">
        <ele>97.6</ele>
        <time>2015-07-20T18:52:46.517Z</time>
      </trkpt>
      <trkpt lat="48.83887" lon="2.37655">
        <ele>97.7</ele>
        <time>2015-07-20T18:52:47.529Z</time>
      </trkpt>
      <trkpt lat="48.8389" lon="2.37664">
        <ele>97.8</ele>
        <time>2015-07-20T18:52:48.542Z</time>
      </trkpt>
      <trkpt lat="48.83895" lon="2.37672">
        <ele>97.5</ele>
        <time>2015-07-20T18:52:49.555Z</time>
      </trkpt>
      <trkpt lat="48.839" lon="2.3768">
        <ele>97.6</ele>
        <time>2015-07-20T18:52:50.569Z</time>
      </trkpt>
      <trkpt lat="48.83904" lon="2.37689">
        <ele>97.2</ele>
        <time>2015-07-20T18:52:51.576Z</time>
      </trkpt>
      <trkpt lat="48.83908" lon="2.37698">
        <ele>97</ele>
        <time>2015-07-20T18:52:52.497Z</time>
      </trkpt>
      <trkpt lat="48.83913" lon="2.37706">
        <ele>96.8</ele>
        <time>2015-07-20T18:52:53.491Z</time>
      </trkpt>
      <trkpt lat="48.83919" lon="2.37716">
        <ele>96.5</ele>
        <time>2015-07-20T18:52:54.545Z</time>
      </trkpt>
      <trkpt lat="48.83925" lon="2.37725">
        <ele>96.4</ele>
        <time>2015-07-20T18:52:55.553Z</time>
      </trkpt>
      <trkpt lat="48.83931" lon="2.37735">
        <ele>96.3</ele>
        <time>2015-07-20T18:52:56.558Z</time>
      </trkpt>
      <trkpt lat="48.83937" lon="2.37745">
        <ele>96.1</ele>
        <time>2015-07-20T18:52:57.571Z</time>
      </trkpt>
      <trkpt lat="48.83943" lon="2.37755">
        <ele>96</ele>
        <time>2015-07-20T18:52:58.487Z</time>
      </trkpt>
      <trkpt lat="48.8395" lon="2.37764">
        <ele>95.9</ele>
        <time>2015-07-20T18:52:59.518Z</time>
      </trkpt>
      <trkpt lat="48.83955" lon="2.37773">
        <ele>95.7</ele>
        <time>2015-07-20T18:53:00.656Z</time>
      </trkpt>
      <trkpt lat="48.83961" lon="2.37783">
        <ele>95.8</ele>
        <time>2015-07-20T18:53:01.490Z</time>
      </trkpt>
      <trkpt lat="48.83966" lon="2.37793">
        <ele>95.8</ele>
        <time>2015-07-20T18:53:02.503Z</time>
      </trkpt>
      <trkpt lat="48.83971" lon="2.37802">
        <ele>96</ele>
        <time>2015-07-20T18:53:03.505Z</time>
      </trkpt>
      <trkpt lat="48.83977" lon="2.37811">
        <ele>96.7</ele>
        <time>2015-07-20T18:53:04.525Z</time>
      </trkpt>
      <trkpt lat="48.83982" lon="2.3782">
        <ele>97.5</ele>
        <time>2015-07-20T18:53:05.530Z</time>
      </trkpt>
      <trkpt lat="48.83987" lon="2.37828">
        <ele>98.5</ele>
        <time>2015-07-20T18:53:06.566Z</time>
      </trkpt>
      <trkpt lat="48.8399" lon="2.37835">
        <ele>99.3</ele>
        <time>2015-07-20T18:53:07.480Z</time>
      </trkpt>
      <trkpt lat="48.83993" lon="2.37842">
        <ele>100.1</ele>
        <time>2015-07-20T18:53:08.512Z</time>
      </trkpt>
      <trkpt lat="48.83995" lon="2.37849">
        <ele>100.5</ele>
        <time>2015-07-20T18:53:09.506Z</time>
      </trkpt>
      <trkpt lat="48.83999" lon="2.37857">
        <ele>100.7</ele>
        <time>2015-07-20T18:53:10.534Z</time>
      </trkpt>
      <trkpt lat="48.84003" lon="2.37867">
        <ele>101.1</ele>
        <time>2015-07-20T18:53:11.533Z</time>
      </trkpt>
      <trkpt lat="48.84009" lon="2.3788">
        <ele>100.7</ele>
        <time>2015-07-20T18:53:12.542Z</time>
      </trkpt>
      <trkpt lat="48.84013" lon="2.37893">
        <ele>100.3</ele>
        <time>2015-07-20T18:53:13.547Z</time>
      </trkpt>
      <trkpt lat="48.84017" lon="2.37902">
        <ele>99.9</ele>
        <time>2015-07-20T18:53:14.553Z</time>
      </trkpt>
      <trkpt lat="48.84022" lon="2.37911">
        <ele>99</ele>
        <time>2015-07-20T18:53:15.560Z</time>
      </trkpt>
      <trkpt lat="48.84027" lon="2.37915">
        <ele>97</ele>
        <time>2015-07-20T18:53:16.572Z</time>
      </trkpt>
      <trkpt lat="48.84031" lon="2.37918">
        <ele>96</ele>
        <time>2015-07-20T18:53:17.577Z</time>
      </trkpt>
      <trkpt lat="48.84038" lon="2.37923">
        <ele>94</ele>
        <time>2015-07-20T18:53:20.525Z</time>
      </trkpt>
      <trkpt lat="48.84039" lon="2.37923">
        <ele>93.7</ele>
        <time>2015-07-20T18:53:21.577Z</time>
      </trkpt>
      <trkpt lat="48.84046" lon="2.37931">
        <ele>95</ele>
        <time>2015-07-20T18:53:24.523Z</time>
      </trkpt>
      <trkpt lat="48.84049" lon="2.37937">
        <ele>95.3</ele>
        <time>2015-07-20T18:53:25.533Z</time>
      </trkpt>
      <trkpt lat="48.84051" lon="2.3795">
        <ele>95.2</ele>
        <time>2015-07-20T18:53:27.567Z</time>
      </trkpt>
      <trkpt lat="48.84052" lon="2.37957">
        <ele>94.8</ele>
        <time>2015-07-20T18:53:28.568Z</time>
      </trkpt>
      <trkpt lat="48.84052" lon="2.37964">
        <ele>93.3</ele>
        <time>2015-07-20T18:53:29.505Z</time>
      </trkpt>
      <trkpt lat="48.8405" lon="2.37971">
        <ele>91.1</ele>
        <time>2015-07-20T18:53:30.544Z</time>
      </trkpt>
      <trkpt lat="48.84049" lon="2.37977">
        <ele>89.9</ele>
        <time>2015-07-20T18:53:31.537Z</time>
      </trkpt>
      <trkpt lat="48.84047" lon="2.37985">
        <ele>89.1</ele>
        <time>2015-07-20T18:53:32.558Z</time>
      </trkpt>
      <trkpt lat="48.84046" lon="2.37993">
        <ele>89.4</ele>
        <time>2015-07-20T18:53:33.645Z</time>
      </trkpt>
      <trkpt lat="48.84045" lon="2.38001">
        <ele>89.6</ele>
        <time>2015-07-20T18:53:34.493Z</time>
      </trkpt>
      <trkpt lat="48.84045" lon="2.38009">
        <ele>89.6</ele>
        <time>2015-07-20T18:53:35.494Z</time>
      </trkpt>
      <trkpt lat="48.84044" lon="2.38017">
        <ele>89.5</ele>
        <time>2015-07-20T18:53:36.539Z</time>
      </trkpt>
      <trkpt lat="48.84041" lon="2.38029">
        <ele>89.9</ele>
        <time>2015-07-20T18:53:38.464Z</time>
      </trkpt>
      <trkpt lat="48.8404" lon="2.38035">
        <ele>90.2</ele>
        <time>2015-07-20T18:53:39.505Z</time>
      </trkpt>
      <trkpt lat="48.84038" lon="2.38042">
        <ele>90.5</ele>
        <time>2015-07-20T18:53:40.511Z</time>
      </trkpt>
      <trkpt lat="48.84036" lon="2.38049">
        <ele>90.8</ele>
        <time>2015-07-20T18:53:41.566Z</time>
      </trkpt>
      <trkpt lat="48.84032" lon="2.38055">
        <ele>91</ele>
        <time>2015-07-20T18:53:42.638Z</time>
      </trkpt>
      <trkpt lat="48.84029" lon="2.3806">
        <ele>91.1</ele>
        <time>2015-07-20T18:53:43.467Z</time>
      </trkpt>
      <trkpt lat="48.84028" lon="2.38069">
        <ele>91.2</ele>
        <time>2015-07-20T18:53:44.386Z</time>
      </trkpt>
      <trkpt lat="48.84027" lon="2.38077">
        <ele>91</ele>
        <time>2015-07-20T18:53:45.499Z</time>
      </trkpt>
      <trkpt lat="48.84025" lon="2.38086">
        <ele>90.9</ele>
        <time>2015-07-20T18:53:46.528Z</time>
      </trkpt>
      <trkpt lat="48.84023" lon="2.38094">
        <ele>91</ele>
        <time>2015-07-20T18:53:47.536Z</time>
      </trkpt>
      <trkpt lat="48.84022" lon="2.38102">
        <ele>91.3</ele>
        <time>2015-07-20T18:53:48.512Z</time>
      </trkpt>
      <trkpt lat="48.84021" lon="2.38109">
        <ele>91.6</ele>
        <time>2015-07-20T18:53:49.577Z</time>
      </trkpt>
      <trkpt lat="48.84018" lon="2.38116">
        <ele>91.9</ele>
        <time>2015-07-20T18:53:50.470Z</time>
      </trkpt>
      <trkpt lat="48.84016" lon="2.38123">
        <ele>92</ele>
        <time>2015-07-20T18:53:51.494Z</time>
      </trkpt>
      <trkpt lat="48.84015" lon="2.38134">
        <ele>92</ele>
        <time>2015-07-20T18:53:52.501Z</time>
      </trkpt>
      <trkpt lat="48.84014" lon="2.38145">
        <ele>92.2</ele>
        <time>2015-07-20T18:53:53.512Z</time>
      </trkpt>
      <trkpt lat="48.84012" lon="2.38153">
        <ele>92.3</ele>
        <time>2015-07-20T18:53:54.541Z</time>
      </trkpt>
      <trkpt lat="48.84012" lon="2.38161">
        <ele>91.8</ele>
        <time>2015-07-20T18:53:55.536Z</time>
      </trkpt>
      <trkpt lat="48.84012" lon="2.3817">
        <ele>91.4</ele>
        <time>2015-07-20T18:53:56.549Z</time>
      </trkpt>
      <trkpt lat="48.84012" lon="2.38178">
        <ele>91</ele>
        <time>2015-07-20T18:53:57.562Z</time>
      </trkpt>
      <trkpt lat="48.84011" lon="2.38185">
        <ele>90.6</ele>
        <time>2015-07-20T18:53:58.570Z</time>
      </trkpt>
      <trkpt lat="48.84008" lon="2.38193">
        <ele>89.6</ele>
        <time>2015-07-20T18:53:59.577Z</time>
      </trkpt>
      <trkpt lat="48.84005" lon="2.382">
        <ele>89.1</ele>
        <time>2015-07-20T18:54:00.581Z</time>
      </trkpt>
      <trkpt lat="48.84003" lon="2.38207">
        <ele>88.7</ele>
        <time>2015-07-20T18:54:01.497Z</time>
      </trkpt>
      <trkpt lat="48.84001" lon="2.38215">
        <ele>88.4</ele>
        <time>2015-07-20T18:54:02.493Z</time>
      </trkpt>
      <trkpt lat="48.83999" lon="2.38222">
        <ele>88.4</ele>
        <time>2015-07-20T18:54:03.501Z</time>
      </trkpt>
      <trkpt lat="48.83997" lon="2.3823">
        <ele>88.2</ele>
        <time>2015-07-20T18:54:04.534Z</time>
      </trkpt>
      <trkpt lat="48.83996" lon="2.38237">
        <ele>87.6</ele>
        <time>2015-07-20T18:54:05.545Z</time>
      </trkpt>
      <trkpt lat="48.83993" lon="2.38245">
        <ele>87.1</ele>
        <time>2015-07-20T18:54:06.558Z</time>
      </trkpt>
      <trkpt lat="48.83992" lon="2.38253">
        <ele>87.1</ele>
        <time>2015-07-20T18:54:07.572Z</time>
      </trkpt>
      <trkpt lat="48.8399" lon="2.3826">
        <ele>86.3</ele>
        <time>2015-07-20T18:54:08.497Z</time>
      </trkpt>
      <trkpt lat="48.83988" lon="2.38268">
        <ele>86.1</ele>
        <time>2015-07-20T18:54:09.495Z</time>
      </trkpt>
      <trkpt lat="48.83986" lon="2.38275">
        <ele>85.9</ele>
        <time>2015-07-20T18:54:10.494Z</time>
      </trkpt>
      <trkpt lat="48.83983" lon="2.38282">
        <ele>86.4</ele>
        <time>2015-07-20T18:54:11.515Z</time>
      </trkpt>
      <trkpt lat="48.83981" lon="2.38289">
        <ele>86.1</ele>
        <time>2015-07-20T18:54:12.538Z</time>
      </trkpt>
      <trkpt lat="48.83979" lon="2.38296">
        <ele>85.7</ele>
        <time>2015-07-20T18:54:13.544Z</time>
      </trkpt>
      <trkpt lat="48.83963" lon="2.38367">
        <ele>86.3</ele>
        <time>2015-07-20T18:54:21.482Z</time>
      </trkpt>
      <trkpt lat="48.83967" lon="2.38381">
        <ele>86.6</ele>
        <time>2015-07-20T18:54:22.487Z</time>
      </trkpt>
      <trkpt lat="48.8397" lon="2.38417">
        <ele>86.2</ele>
        <time>2015-07-20T18:54:25.562Z</time>
      </trkpt>
      <trkpt lat="48.83968" lon="2.38428">
        <ele>88.8</ele>
        <time>2015-07-20T18:54:26.491Z</time>
      </trkpt>
      <trkpt lat="48.83967" lon="2.38435">
        <ele>88</ele>
        <time>2015-07-20T18:54:27.495Z</time>
      </trkpt>
      <trkpt lat="48.83963" lon="2.38444">
        <ele>84.7</ele>
        <time>2015-07-20T18:54:28.510Z</time>
      </trkpt>
      <trkpt lat="48.83961" lon="2.38452">
        <ele>84.8</ele>
        <time>2015-07-20T18:54:29.516Z</time>
      </trkpt>
      <trkpt lat="48.8396" lon="2.3846">
        <ele>83.9</ele>
        <time>2015-07-20T18:54:30.536Z</time>
      </trkpt>
      <trkpt lat="48.83958" lon="2.38468">
        <ele>84.5</ele>
        <time>2015-07-20T18:54:31.548Z</time>
      </trkpt>
      <trkpt lat="48.83956" lon="2.38478">
        <ele>85.6</ele>
        <time>2015-07-20T18:54:32.559Z</time>
      </trkpt>
      <trkpt lat="48.83954" lon="2.38487">
        <ele>85.4</ele>
        <time>2015-07-20T18:54:33.603Z</time>
      </trkpt>
      <trkpt lat="48.83953" lon="2.38497">
        <ele>85.8</ele>
        <time>2015-07-20T18:54:34.466Z</time>
      </trkpt>
      <trkpt lat="48.8395" lon="2.38506">
        <ele>85.9</ele>
        <time>2015-07-20T18:54:35.468Z</time>
      </trkpt>
      <trkpt lat="48.83947" lon="2.38515">
        <ele>86.1</ele>
        <time>2015-07-20T18:54:36.671Z</time>
      </trkpt>
      <trkpt lat="48.83944" lon="2.38523">
        <ele>85.3</ele>
        <time>2015-07-20T18:54:37.494Z</time>
      </trkpt>
      <trkpt lat="48.83941" lon="2.38531">
        <ele>86.1</ele>
        <time>2015-07-20T18:54:38.506Z</time>
      </trkpt>
      <trkpt lat="48.83936" lon="2.38539">
        <ele>87.6</ele>
        <time>2015-07-20T18:54:39.569Z</time>
      </trkpt>
      <trkpt lat="48.83914" lon="2.38573">
        <ele>90.3</ele>
        <time>2015-07-20T18:54:44.516Z</time>
      </trkpt>
      <trkpt lat="48.8391" lon="2.38579">
        <ele>91.1</ele>
        <time>2015-07-20T18:54:45.538Z</time>
      </trkpt>
      <trkpt lat="48.83908" lon="2.38589">
        <ele>90.9</ele>
        <time>2015-07-20T18:54:46.515Z</time>
      </trkpt>
      <trkpt lat="48.83907" lon="2.38596">
        <ele>90.6</ele>
        <time>2015-07-20T18:54:47.495Z</time>
      </trkpt>
      <trkpt lat="48.83905" lon="2.38603">
        <ele>89.9</ele>
        <time>2015-07-20T18:54:48.536Z</time>
      </trkpt>
      <trkpt lat="48.83901" lon="2.38612">
        <ele>90.5</ele>
        <time>2015-07-20T18:54:49.546Z</time>
      </trkpt>
      <trkpt lat="48.83897" lon="2.38625">
        <ele>90.8</ele>
        <time>2015-07-20T18:54:50.548Z</time>
      </trkpt>
      <trkpt lat="48.83894" lon="2.38637">
        <ele>90.7</ele>
        <time>2015-07-20T18:54:51.559Z</time>
      </trkpt>
      <trkpt lat="48.83892" lon="2.38647">
        <ele>89.7</ele>
        <time>2015-07-20T18:54:52.569Z</time>
      </trkpt>
      <trkpt lat="48.83892" lon="2.38657">
        <ele>89.8</ele>
        <time>2015-07-20T18:54:53.580Z</time>
      </trkpt>
      <trkpt lat="48.83896" lon="2.3867">
        <ele>89.2</ele>
        <time>2015-07-20T18:54:54.600Z</time>
      </trkpt>
      <trkpt lat="48.83902" lon="2.38684">
        <ele>88.5</ele>
        <time>2015-07-20T18:54:55.494Z</time>
      </trkpt>
      <trkpt lat="48.83905" lon="2.38707">
        <ele>91.5</ele>
        <time>2015-07-20T18:54:56.501Z</time>
      </trkpt>
      <trkpt lat="48.83907" lon="2.3872">
        <ele>91.8</ele>
        <time>2015-07-20T18:54:57.514Z</time>
      </trkpt>
      <trkpt lat="48.83907" lon="2.38735">
        <ele>89.9</ele>
        <time>2015-07-20T18:54:58.538Z</time>
      </trkpt>
      <trkpt lat="48.83907" lon="2.38745">
        <ele>89.8</ele>
        <time>2015-07-20T18:54:59.547Z</time>
      </trkpt>
      <trkpt lat="48.83907" lon="2.38756">
        <ele>90</ele>
        <time>2015-07-20T18:55:00.562Z</time>
      </trkpt>
      <trkpt lat="48.83909" lon="2.38766">
        <ele>95.2</ele>
        <time>2015-07-20T18:55:01.486Z</time>
      </trkpt>
      <trkpt lat="48.83909" lon="2.38776">
        <ele>97.7</ele>
        <time>2015-07-20T18:55:02.489Z</time>
      </trkpt>
      <trkpt lat="48.83909" lon="2.38786">
        <ele>100.3</ele>
        <time>2015-07-20T18:55:03.595Z</time>
      </trkpt>
      <trkpt lat="48.83907" lon="2.38796">
        <ele>101.3</ele>
        <time>2015-07-20T18:55:04.519Z</time>
      </trkpt>
      <trkpt lat="48.83904" lon="2.38805">
        <ele>101.6</ele>
        <time>2015-07-20T18:55:05.526Z</time>
      </trkpt>
      <trkpt lat="48.83903" lon="2.38814">
        <ele>101.3</ele>
        <time>2015-07-20T18:55:06.536Z</time>
      </trkpt>
      <trkpt lat="48.83901" lon="2.38822">
        <ele>101.3</ele>
        <time>2015-07-20T18:55:07.542Z</time>
      </trkpt>
      <trkpt lat="48.83901" lon="2.38832">
        <ele>102</ele>
        <time>2015-07-20T18:55:08.499Z</time>
      </trkpt>
      <trkpt lat="48.839" lon="2.3884">
        <ele>101.3</ele>
        <time>2015-07-20T18:55:09.513Z</time>
      </trkpt>
      <trkpt lat="48.83899" lon="2.38848">
        <ele>100.2</ele>
        <time>2015-07-20T18:55:10.520Z</time>
      </trkpt>
      <trkpt lat="48.83898" lon="2.38855">
        <ele>99.4</ele>
        <time>2015-07-20T18:55:11.551Z</time>
      </trkpt>
      <trkpt lat="48.83897" lon="2.38863">
        <ele>98.9</ele>
        <time>2015-07-20T18:55:12.559Z</time>
      </trkpt>
      <trkpt lat="48.83897" lon="2.3887">
        <ele>98.4</ele>
        <time>2015-07-20T18:55:13.575Z</time>
      </trkpt>
      <trkpt lat="48.83897" lon="2.38877">
        <ele>98.1</ele>
        <time>2015-07-20T18:55:14.515Z</time>
      </trkpt>
      <trkpt lat="48.83898" lon="2.3889">
        <ele>95.9</ele>
        <time>2015-07-20T18:55:16.520Z</time>
      </trkpt>
      <trkpt lat="48.83898" lon="2.38896">
        <ele>94.8</ele>
        <time>2015-07-20T18:55:17.534Z</time>
      </trkpt>
      <trkpt lat="48.83899" lon="2.38906">
        <ele>94.4</ele>
        <time>2015-07-20T18:55:19.558Z</time>
      </trkpt>
      <trkpt lat="48.83899" lon="2.3891">
        <ele>94.7</ele>
        <time>2015-07-20T18:55:20.642Z</time>
      </trkpt>
      <trkpt lat="48.83906" lon="2.38908">
        <ele>99.4</ele>
        <time>2015-07-20T18:55:38.524Z</time>
      </trkpt>
      <trkpt lat="48.83908" lon="2.38906">
        <ele>100</ele>
        <time>2015-07-20T18:55:39.539Z</time>
      </trkpt>
      <trkpt lat="48.83914" lon="2.38905">
        <ele>103.1</ele>
        <time>2015-07-20T18:57:16.560Z</time>
      </trkpt>
      <trkpt lat="48.83923" lon="2.38911">
        <ele>110.7</ele>
        <time>2015-07-20T18:57:17.579Z</time>
      </trkpt>
      <trkpt lat="48.83929" lon="2.38905">
        <ele>110.8</ele>
        <time>2015-07-20T18:57:19.526Z</time>
      </trkpt>
      <trkpt lat="48.83933" lon="2.38901">
        <ele>110.6</ele>
        <time>2015-07-20T18:57:20.541Z</time>
      </trkpt>
      <trkpt lat="48.83937" lon="2.38896">
        <ele>109.7</ele>
        <time>2015-07-20T18:57:21.567Z</time>
      </trkpt>
      <trkpt lat="48.8394" lon="2.3889">
        <ele>109.5</ele>
        <time>2015-07-20T18:57:22.571Z</time>
      </trkpt>
      <trkpt lat="48.83945" lon="2.38881">
        <ele>109.8</ele>
        <time>2015-07-20T18:57:24.547Z</time>
      </trkpt>
      <trkpt lat="48.83945" lon="2.38874">
        <ele>110.3</ele>
        <time>2015-07-20T18:57:25.533Z</time>
      </trkpt>
      <trkpt lat="48.83949" lon="2.38863">
        <ele>110.9</ele>
        <time>2015-07-20T18:57:27.571Z</time>
      </trkpt>
      <trkpt lat="48.83953" lon="2.38859">
        <ele>111</ele>
        <time>2015-07-20T18:57:28.580Z</time>
      </trkpt>
      <trkpt lat="48.83961" lon="2.38854">
        <ele>110.9</ele>
        <time>2015-07-20T18:57:30.584Z</time>
      </trkpt>
      <trkpt lat="48.83965" lon="2.38853">
        <ele>111</ele>
        <time>2015-07-20T18:57:31.484Z</time>
      </trkpt>
      <trkpt lat="48.83973" lon="2.38849">
        <ele>111.4</ele>
        <time>2015-07-20T18:57:33.519Z</time>
      </trkpt>
      <trkpt lat="48.83978" lon="2.38846">
        <ele>111.3</ele>
        <time>2015-07-20T18:57:34.532Z</time>
      </trkpt>
      <trkpt lat="48.83982" lon="2.38843">
        <ele>111.2</ele>
        <time>2015-07-20T18:57:35.547Z</time>
      </trkpt>
      <trkpt lat="48.83987" lon="2.3884">
        <ele>110.9</ele>
        <time>2015-07-20T18:57:36.559Z</time>
      </trkpt>
      <trkpt lat="48.83991" lon="2.38837">
        <ele>110.8</ele>
        <time>2015-07-20T18:57:37.467Z</time>
      </trkpt>
      <trkpt lat="48.83995" lon="2.38833">
        <ele>110.7</ele>
        <time>2015-07-20T18:57:38.493Z</time>
      </trkpt>
      <trkpt lat="48.84" lon="2.3883">
        <ele>110.5</ele>
        <time>2015-07-20T18:57:39.488Z</time>
      </trkpt>
      <trkpt lat="48.84004" lon="2.38827">
        <ele>110</ele>
        <time>2015-07-20T18:57:40.504Z</time>
      </trkpt>
      <trkpt lat="48.84009" lon="2.38825">
        <ele>109.7</ele>
        <time>2015-07-20T18:57:41.516Z</time>
      </trkpt>
      <trkpt lat="48.84014" lon="2.38824">
        <ele>109.5</ele>
        <time>2015-07-20T18:57:42.546Z</time>
      </trkpt>
      <trkpt lat="48.84022" lon="2.38819">
        <ele>109.2</ele>
        <time>2015-07-20T18:57:44.554Z</time>
      </trkpt>
      <trkpt lat="48.84026" lon="2.38817">
        <ele>109.2</ele>
        <time>2015-07-20T18:57:45.578Z</time>
      </trkpt>
      <trkpt lat="48.84031" lon="2.38815">
        <ele>109.1</ele>
        <time>2015-07-20T18:57:46.487Z</time>
      </trkpt>
      <trkpt lat="48.84035" lon="2.38812">
        <ele>109.5</ele>
        <time>2015-07-20T18:57:47.502Z</time>
      </trkpt>
      <trkpt lat="48.84042" lon="2.38807">
        <ele>109.8</ele>
        <time>2015-07-20T18:57:49.870Z</time>
      </trkpt>
      <trkpt lat="48.84046" lon="2.38803">
        <ele>109.9</ele>
        <time>2015-07-20T18:57:50.552Z</time>
      </trkpt>
      <trkpt lat="48.84053" lon="2.38796">
        <ele>109.3</ele>
        <time>2015-07-20T18:57:52.504Z</time>
      </trkpt>
      <trkpt lat="48.84057" lon="2.38792">
        <ele>109.3</ele>
        <time>2015-07-20T18:57:53.511Z</time>
      </trkpt>
      <trkpt lat="48.8406" lon="2.38787">
        <ele>109.3</ele>
        <time>2015-07-20T18:57:54.544Z</time>
      </trkpt>
      <trkpt lat="48.84064" lon="2.38782">
        <ele>109.5</ele>
        <time>2015-07-20T18:57:55.555Z</time>
      </trkpt>
      <trkpt lat="48.84068" lon="2.38777">
        <ele>109.9</ele>
        <time>2015-07-20T18:57:56.558Z</time>
      </trkpt>
      <trkpt lat="48.84072" lon="2.38772">
        <ele>109.9</ele>
        <time>2015-07-20T18:57:57.570Z</time>
      </trkpt>
      <trkpt lat="48.84079" lon="2.38765">
        <ele>109.6</ele>
        <time>2015-07-20T18:57:59.462Z</time>
      </trkpt>
      <trkpt lat="48.84082" lon="2.38762">
        <ele>109.6</ele>
        <time>2015-07-20T18:58:00.517Z</time>
      </trkpt>
      <trkpt lat="48.84089" lon="2.38764">
        <ele>108.5</ele>
        <time>2015-07-20T18:58:02.531Z</time>
      </trkpt>
      <trkpt lat="48.84093" lon="2.38767">
        <ele>108.5</ele>
        <time>2015-07-20T18:58:03.539Z</time>
      </trkpt>
      <trkpt lat="48.84099" lon="2.38771">
        <ele>106.8</ele>
        <time>2015-07-20T18:58:04.448Z</time>
      </trkpt>
      <trkpt lat="48.84104" lon="2.38775">
        <ele>105.8</ele>
        <time>2015-07-20T18:58:05.476Z</time>
      </trkpt>
      <trkpt lat="48.8411" lon="2.38784">
        <ele>105.1</ele>
        <time>2015-07-20T18:58:08.543Z</time>
      </trkpt>
      <trkpt lat="48.84112" lon="2.38786">
        <ele>105.2</ele>
        <time>2015-07-20T18:58:09.567Z</time>
      </trkpt>
      <trkpt lat="48.84112" lon="2.38791">
        <ele>105.1</ele>
        <time>2015-07-20T18:59:51.517Z</time>
      </trkpt>
      <trkpt lat="48.84134" lon="2.38756">
        <ele>115.5</ele>
        <time>2015-07-20T18:59:52.572Z</time>
      </trkpt>
      <trkpt lat="48.84139" lon="2.38746">
        <ele>113.7</ele>
        <time>2015-07-20T18:59:56.521Z</time>
      </trkpt>
      <trkpt lat="48.8414" lon="2.38743">
        <ele>113.3</ele>
        <time>2015-07-20T18:59:57.516Z</time>
      </trkpt>
      <trkpt lat="48.84144" lon="2.38731">
        <ele>111.8</ele>
        <time>2015-07-20T19:00:01.483Z</time>
      </trkpt>
      <trkpt lat="48.84146" lon="2.3873">
        <ele>111.6</ele>
        <time>2015-07-20T19:00:02.508Z</time>
      </trkpt>
      <trkpt lat="48.8415" lon="2.38735">
        <ele>111.2</ele>
        <time>2015-07-20T19:00:03.542Z</time>
      </trkpt>
      <trkpt lat="48.84154" lon="2.38742">
        <ele>110.5</ele>
        <time>2015-07-20T19:00:04.547Z</time>
      </trkpt>
      <trkpt lat="48.84159" lon="2.38752">
        <ele>108.8</ele>
        <time>2015-07-20T19:02:42.553Z</time>
      </trkpt>
      <trkpt lat="48.84159" lon="2.38762">
        <ele>102.6</ele>
        <time>2015-07-20T19:02:43.561Z</time>
      </trkpt>
      <trkpt lat="48.84165" lon="2.38751">
        <ele>100.5</ele>
        <time>2015-07-20T19:02:46.590Z</time>
      </trkpt>
      <trkpt lat="48.84167" lon="2.38747">
        <ele>99.8</ele>
        <time>2015-07-20T19:02:47.606Z</time>
      </trkpt>
      <trkpt lat="48.8417" lon="2.38734">
        <ele>98.8</ele>
        <time>2015-07-20T19:02:49.540Z</time>
      </trkpt>
      <trkpt lat="48.84171" lon="2.38728">
        <ele>98.8</ele>
        <time>2015-07-20T19:02:50.592Z</time>
      </trkpt>
      <trkpt lat="48.84172" lon="2.38721">
        <ele>98.5</ele>
        <time>2015-07-20T19:02:51.518Z</time>
      </trkpt>
      <trkpt lat="48.84172" lon="2.38713">
        <ele>98.6</ele>
        <time>2015-07-20T19:02:52.491Z</time>
      </trkpt>
      <trkpt lat="48.84172" lon="2.38704">
        <ele>98.7</ele>
        <time>2015-07-20T19:02:53.542Z</time>
      </trkpt>
      <trkpt lat="48.84172" lon="2.38697">
        <ele>98.5</ele>
        <time>2015-07-20T19:02:54.559Z</time>
      </trkpt>
      <trkpt lat="48.84172" lon="2.3869">
        <ele>98.3</ele>
        <time>2015-07-20T19:02:55.557Z</time>
      </trkpt>
      <trkpt lat="48.84173" lon="2.38681">
        <ele>98.2</ele>
        <time>2015-07-20T19:02:56.490Z</time>
      </trkpt>
      <trkpt lat="48.84173" lon="2.38672">
        <ele>98</ele>
        <time>2015-07-20T19:02:57.494Z</time>
      </trkpt>
      <trkpt lat="48.84176" lon="2.38667">
        <ele>97.9</ele>
        <time>2015-07-20T19:02:58.507Z</time>
      </trkpt>
      <trkpt lat="48.8418" lon="2.38662">
        <ele>97.5</ele>
        <time>2015-07-20T19:02:59.515Z</time>
      </trkpt>
      <trkpt lat="48.84183" lon="2.38655">
        <ele>96.8</ele>
        <time>2015-07-20T19:03:00.536Z</time>
      </trkpt>
      <trkpt lat="48.84185" lon="2.38648">
        <ele>96.5</ele>
        <time>2015-07-20T19:03:01.549Z</time>
      </trkpt>
      <trkpt lat="48.84188" lon="2.38642">
        <ele>96.3</ele>
        <time>2015-07-20T19:03:02.554Z</time>
      </trkpt>
      <trkpt lat="48.84194" lon="2.38633">
        <ele>95.6</ele>
        <time>2015-07-20T19:03:04.502Z</time>
      </trkpt>
      <trkpt lat="48.84197" lon="2.38629">
        <ele>95.6</ele>
        <time>2015-07-20T19:03:05.599Z</time>
      </trkpt>
      <trkpt lat="48.84202" lon="2.38623">
        <ele>96.1</ele>
        <time>2015-07-20T19:03:07.488Z</time>
      </trkpt>
      <trkpt lat="48.84204" lon="2.38621">
        <ele>96.1</ele>
        <time>2015-07-20T19:03:08.492Z</time>
      </trkpt>
      <trkpt lat="48.8421" lon="2.38616">
        <ele>96.1</ele>
        <time>2015-07-20T19:03:10.519Z</time>
      </trkpt>
      <trkpt lat="48.84214" lon="2.38613">
        <ele>96.1</ele>
        <time>2015-07-20T19:03:11.523Z</time>
      </trkpt>
      <trkpt lat="48.84219" lon="2.38606">
        <ele>96.2</ele>
        <time>2015-07-20T19:03:13.535Z</time>
      </trkpt>
      <trkpt lat="48.84222" lon="2.38603">
        <ele>96.2</ele>
        <time>2015-07-20T19:03:14.548Z</time>
      </trkpt>
      <trkpt lat="48.84229" lon="2.38597">
        <ele>96.3</ele>
        <time>2015-07-20T19:03:16.485Z</time>
      </trkpt>
      <trkpt lat="48.84232" lon="2.38594">
        <ele>96.8</ele>
        <time>2015-07-20T19:03:17.516Z</time>
      </trkpt>
      <trkpt lat="48.8424" lon="2.38591">
        <ele>98.1</ele>
        <time>2015-07-20T19:03:19.489Z</time>
      </trkpt>
      <trkpt lat="48.84245" lon="2.3859">
        <ele>99</ele>
        <time>2015-07-20T19:03:20.511Z</time>
      </trkpt>
      <trkpt lat="48.84252" lon="2.3859">
        <ele>100.9</ele>
        <time>2015-07-20T19:03:22.537Z</time>
      </trkpt>
      <trkpt lat="48.84255" lon="2.38587">
        <ele>101.3</ele>
        <time>2015-07-20T19:03:23.553Z</time>
      </trkpt>
      <trkpt lat="48.84261" lon="2.38581">
        <ele>100.7</ele>
        <time>2015-07-20T19:03:27.530Z</time>
      </trkpt>
      <trkpt lat="48.84263" lon="2.38579">
        <ele>100.3</ele>
        <time>2015-07-20T19:03:28.552Z</time>
      </trkpt>
      <trkpt lat="48.84269" lon="2.38576">
        <ele>99.9</ele>
        <time>2015-07-20T19:03:30.545Z</time>
      </trkpt>
      <trkpt lat="48.84272" lon="2.38574">
        <ele>99.8</ele>
        <time>2015-07-20T19:03:31.465Z</time>
      </trkpt>
      <trkpt lat="48.84279" lon="2.3857">
        <ele>99.8</ele>
        <time>2015-07-20T19:03:33.498Z</time>
      </trkpt>
      <trkpt lat="48.84283" lon="2.38568">
        <ele>99.8</ele>
        <time>2015-07-20T19:03:34.516Z</time>
      </trkpt>
      <trkpt lat="48.8429" lon="2.38563">
        <ele>99.7</ele>
        <time>2015-07-20T19:03:36.588Z</time>
      </trkpt>
      <trkpt lat="48.84291" lon="2.3856">
        <ele>99.7</ele>
        <time>2015-07-20T19:03:37.480Z</time>
      </trkpt>
      <trkpt lat="48.84296" lon="2.38553">
        <ele>99.6</ele>
        <time>2015-07-20T19:03:39.478Z</time>
      </trkpt>
      <trkpt lat="48.84298" lon="2.38549">
        <ele>99.5</ele>
        <time>2015-07-20T19:03:40.498Z</time>
      </trkpt>
      <trkpt lat="48.84303" lon="2.38539">
        <ele>99.6</ele>
        <time>2015-07-20T19:03:42.540Z</time>
      </trkpt>
      <trkpt lat="48.84305" lon="2.38534">
        <ele>99.5</ele>
        <time>2015-07-20T19:03:43.547Z</time>
      </trkpt>
      <trkpt lat="48.84312" lon="2.38526">
        <ele>99.1</ele>
        <time>2015-07-20T19:03:45.469Z</time>
      </trkpt>
      <trkpt lat="48.84316" lon="2.38525">
        <ele>98.9</ele>
        <time>2015-07-20T19:03:46.489Z</time>
      </trkpt>
      <trkpt lat="48.84324" lon="2.38518">
        <ele>99.1</ele>
        <time>2015-07-20T19:03:48.514Z</time>
      </trkpt>
      <trkpt lat="48.84329" lon="2.38516">
        <ele>98.9</ele>
        <time>2015-07-20T19:03:49.577Z</time>
      </trkpt>
      <trkpt lat="48.84333" lon="2.38514">
        <ele>98.8</ele>
        <time>2015-07-20T19:03:50.513Z</time>
      </trkpt>
      <trkpt lat="48.84338" lon="2.38512">
        <ele>98.7</ele>
        <time>2015-07-20T19:03:51.504Z</time>
      </trkpt>
      <trkpt lat="48.84342" lon="2.38508">
        <ele>99</ele>
        <time>2015-07-20T19:03:52.511Z</time>
      </trkpt>
      <trkpt lat="48.84346" lon="2.38504">
        <ele>99.4</ele>
        <time>2015-07-20T19:03:53.537Z</time>
      </trkpt>
      <trkpt lat="48.8435" lon="2.38499">
        <ele>99.8</ele>
        <time>2015-07-20T19:03:54.530Z</time>
      </trkpt>
      <trkpt lat="48.84353" lon="2.38496">
        <ele>99.9</ele>
        <time>2015-07-20T19:03:55.711Z</time>
      </trkpt>
      <trkpt lat="48.84357" lon="2.38492">
        <ele>100.4</ele>
        <time>2015-07-20T19:03:56.555Z</time>
      </trkpt>
      <trkpt lat="48.84362" lon="2.38489">
        <ele>100.7</ele>
        <time>2015-07-20T19:03:57.562Z</time>
      </trkpt>
      <trkpt lat="48.84366" lon="2.38485">
        <ele>100.6</ele>
        <time>2015-07-20T19:03:58.551Z</time>
      </trkpt>
      <trkpt lat="48.84371" lon="2.38482">
        <ele>100.2</ele>
        <time>2015-07-20T19:03:59.558Z</time>
      </trkpt>
      <trkpt lat="48.84377" lon="2.38475">
        <ele>100</ele>
        <time>2015-07-20T19:04:01.496Z</time>
      </trkpt>
      <trkpt lat="48.8438" lon="2.38471">
        <ele>100</ele>
        <time>2015-07-20T19:04:02.573Z</time>
      </trkpt>
      <trkpt lat="48.84386" lon="2.38465">
        <ele>99.9</ele>
        <time>2015-07-20T19:04:04.558Z</time>
      </trkpt>
      <trkpt lat="48.84389" lon="2.38462">
        <ele>99.8</ele>
        <time>2015-07-20T19:04:05.477Z</time>
      </trkpt>
      <trkpt lat="48.84395" lon="2.38455">
        <ele>99.5</ele>
        <time>2015-07-20T19:04:07.540Z</time>
      </trkpt>
      <trkpt lat="48.84399" lon="2.3845">
        <ele>99.7</ele>
        <time>2015-07-20T19:04:08.711Z</time>
      </trkpt>
      <trkpt lat="48.84404" lon="2.38441">
        <ele>99.7</ele>
        <time>2015-07-20T19:04:10.524Z</time>
      </trkpt>
      <trkpt lat="48.84406" lon="2.38435">
        <ele>100.2</ele>
        <time>2015-07-20T19:04:11.529Z</time>
      </trkpt>
      <trkpt lat="48.8441" lon="2.38426">
        <ele>101</ele>
        <time>2015-07-20T19:04:13.579Z</time>
      </trkpt>
      <trkpt lat="48.84414" lon="2.38422">
        <ele>101.1</ele>
        <time>2015-07-20T19:04:14.561Z</time>
      </trkpt>
      <trkpt lat="48.84421" lon="2.38418">
        <ele>100.6</ele>
        <time>2015-07-20T19:04:15.505Z</time>
      </trkpt>
      <trkpt lat="48.84424" lon="2.38413">
        <ele>100.5</ele>
        <time>2015-07-20T19:04:16.506Z</time>
      </trkpt>
      <trkpt lat="48.84431" lon="2.38408">
        <ele>100.9</ele>
        <time>2015-07-20T19:04:18.531Z</time>
      </trkpt>
      <trkpt lat="48.84434" lon="2.38405">
        <ele>101.4</ele>
        <time>2015-07-20T19:04:19.467Z</time>
      </trkpt>
      <trkpt lat="48.84442" lon="2.38398">
        <ele>102.6</ele>
        <time>2015-07-20T19:04:22.030Z</time>
      </trkpt>
      <trkpt lat="48.84445" lon="2.38395">
        <ele>102.9</ele>
        <time>2015-07-20T19:04:22.502Z</time>
      </trkpt>
      <trkpt lat="48.84452" lon="2.3839">
        <ele>102.7</ele>
        <time>2015-07-20T19:04:25.499Z</time>
      </trkpt>
      <trkpt lat="48.84455" lon="2.38388">
        <ele>102.2</ele>
        <time>2015-07-20T19:04:26.497Z</time>
      </trkpt>
      <trkpt lat="48.84459" lon="2.38377">
        <ele>100.9</ele>
        <time>2015-07-20T19:04:28.556Z</time>
      </trkpt>
      <trkpt lat="48.84461" lon="2.38372">
        <ele>100.4</ele>
        <time>2015-07-20T19:04:29.559Z</time>
      </trkpt>
      <trkpt lat="48.84465" lon="2.38363">
        <ele>100.2</ele>
        <time>2015-07-20T19:04:32.114Z</time>
      </trkpt>
      <trkpt lat="48.84468" lon="2.38359">
        <ele>100</ele>
        <time>2015-07-20T19:04:32.555Z</time>
      </trkpt>
      <trkpt lat="48.84473" lon="2.38352">
        <ele>99</ele>
        <time>2015-07-20T19:04:34.546Z</time>
      </trkpt>
      <trkpt lat="48.84475" lon="2.38347">
        <ele>98.7</ele>
        <time>2015-07-20T19:04:35.562Z</time>
      </trkpt>
      <trkpt lat="48.8448" lon="2.38337">
        <ele>98.5</ele>
        <time>2015-07-20T19:04:38.510Z</time>
      </trkpt>
      <trkpt lat="48.84484" lon="2.38338">
        <ele>97.8</ele>
        <time>2015-07-20T19:04:39.523Z</time>
      </trkpt>
      <trkpt lat="48.84492" lon="2.38339">
        <ele>96.9</ele>
        <time>2015-07-20T19:04:41.561Z</time>
      </trkpt>
      <trkpt lat="48.84496" lon="2.38339">
        <ele>96.5</ele>
        <time>2015-07-20T19:04:42.580Z</time>
      </trkpt>
      <trkpt lat="48.84502" lon="2.38334">
        <ele>95.7</ele>
        <time>2015-07-20T19:04:44.490Z</time>
      </trkpt>
      <trkpt lat="48.84503" lon="2.3833">
        <ele>95.2</ele>
        <time>2015-07-20T19:04:45.494Z</time>
      </trkpt>
      <trkpt lat="48.84505" lon="2.38319">
        <ele>94.7</ele>
        <time>2015-07-20T19:04:47.570Z</time>
      </trkpt>
      <trkpt lat="48.84505" lon="2.38313">
        <ele>94.4</ele>
        <time>2015-07-20T19:04:48.571Z</time>
      </trkpt>
      <trkpt lat="48.84509" lon="2.38303">
        <ele>94.5</ele>
        <time>2015-07-20T19:04:50.492Z</time>
      </trkpt>
      <trkpt lat="48.84511" lon="2.38298">
        <ele>94.6</ele>
        <time>2015-07-20T19:04:51.521Z</time>
      </trkpt>
      <trkpt lat="48.84516" lon="2.38292">
        <ele>95</ele>
        <time>2015-07-20T19:04:53.531Z</time>
      </trkpt>
      <trkpt lat="48.8452" lon="2.38291">
        <ele>95.2</ele>
        <time>2015-07-20T19:04:54.593Z</time>
      </trkpt>
      <trkpt lat="48.84527" lon="2.38286">
        <ele>95.6</ele>
        <time>2015-07-20T19:04:56.524Z</time>
      </trkpt>
      <trkpt lat="48.8453" lon="2.38282">
        <ele>95.8</ele>
        <time>2015-07-20T19:04:57.538Z</time>
      </trkpt>
      <trkpt lat="48.84535" lon="2.38278">
        <ele>96</ele>
        <time>2015-07-20T19:04:58.554Z</time>
      </trkpt>
      <trkpt lat="48.84538" lon="2.38274">
        <ele>96.2</ele>
        <time>2015-07-20T19:04:59.496Z</time>
      </trkpt>
      <trkpt lat="48.84544" lon="2.38267">
        <ele>96.5</ele>
        <time>2015-07-20T19:05:01.561Z</time>
      </trkpt>
      <trkpt lat="48.84547" lon="2.38264">
        <ele>96.6</ele>
        <time>2015-07-20T19:05:02.549Z</time>
      </trkpt>
      <trkpt lat="48.84552" lon="2.38262">
        <ele>96.9</ele>
        <time>2015-07-20T19:05:03.505Z</time>
      </trkpt>
      <trkpt lat="48.84556" lon="2.3826">
        <ele>97.2</ele>
        <time>2015-07-20T19:05:04.505Z</time>
      </trkpt>
      <trkpt lat="48.84561" lon="2.38258">
        <ele>97.4</ele>
        <time>2015-07-20T19:05:05.836Z</time>
      </trkpt>
      <trkpt lat="48.84566" lon="2.38255">
        <ele>97.5</ele>
        <time>2015-07-20T19:05:06.594Z</time>
      </trkpt>
      <trkpt lat="48.8457" lon="2.38252">
        <ele>97.9</ele>
        <time>2015-07-20T19:05:07.506Z</time>
      </trkpt>
      <trkpt lat="48.84574" lon="2.38248">
        <ele>98.3</ele>
        <time>2015-07-20T19:05:08.495Z</time>
      </trkpt>
      <trkpt lat="48.8458" lon="2.38244">
        <ele>98.5</ele>
        <time>2015-07-20T19:05:09.499Z</time>
      </trkpt>
      <trkpt lat="48.84585" lon="2.3824">
        <ele>98.8</ele>
        <time>2015-07-20T19:05:10.506Z</time>
      </trkpt>
      <trkpt lat="48.8459" lon="2.38238">
        <ele>99.1</ele>
        <time>2015-07-20T19:05:11.530Z</time>
      </trkpt>
      <trkpt lat="48.84593" lon="2.38235">
        <ele>98.9</ele>
        <time>2015-07-20T19:05:12.577Z</time>
      </trkpt>
      <trkpt lat="48.84598" lon="2.38231">
        <ele>98.4</ele>
        <time>2015-07-20T19:05:13.501Z</time>
      </trkpt>
      <trkpt lat="48.84602" lon="2.38227">
        <ele>97.7</ele>
        <time>2015-07-20T19:05:14.486Z</time>
      </trkpt>
      <trkpt lat="48.8461" lon="2.3822">
        <ele>97.8</ele>
        <time>2015-07-20T19:05:16.542Z</time>
      </trkpt>
      <trkpt lat="48.84613" lon="2.38216">
        <ele>98.1</ele>
        <time>2015-07-20T19:05:17.584Z</time>
      </trkpt>
      <trkpt lat="48.84617" lon="2.38212">
        <ele>98.3</ele>
        <time>2015-07-20T19:05:18.577Z</time>
      </trkpt>
      <trkpt lat="48.84622" lon="2.38207">
        <ele>98.6</ele>
        <time>2015-07-20T19:05:19.465Z</time>
      </trkpt>
      <trkpt lat="48.84626" lon="2.38203">
        <ele>98.9</ele>
        <time>2015-07-20T19:05:20.528Z</time>
      </trkpt>
      <trkpt lat="48.8463" lon="2.38199">
        <ele>99.1</ele>
        <time>2015-07-20T19:05:21.540Z</time>
      </trkpt>
      <trkpt lat="48.84634" lon="2.38195">
        <ele>99</ele>
        <time>2015-07-20T19:05:22.691Z</time>
      </trkpt>
      <trkpt lat="48.8464" lon="2.38193">
        <ele>99</ele>
        <time>2015-07-20T19:05:23.552Z</time>
      </trkpt>
      <trkpt lat="48.84647" lon="2.38189">
        <ele>99.4</ele>
        <time>2015-07-20T19:05:25.565Z</time>
      </trkpt>
      <trkpt lat="48.84651" lon="2.38186">
        <ele>99.2</ele>
        <time>2015-07-20T19:05:26.452Z</time>
      </trkpt>
      <trkpt lat="48.84657" lon="2.3818">
        <ele>99.3</ele>
        <time>2015-07-20T19:05:28.504Z</time>
      </trkpt>
      <trkpt lat="48.8466" lon="2.38177">
        <ele>99</ele>
        <time>2015-07-20T19:05:29.594Z</time>
      </trkpt>
      <trkpt lat="48.84668" lon="2.38172">
        <ele>98.4</ele>
        <time>2015-07-20T19:05:31.556Z</time>
      </trkpt>
      <trkpt lat="48.84672" lon="2.3817">
        <ele>98.2</ele>
        <time>2015-07-20T19:05:32.449Z</time>
      </trkpt>
      <trkpt lat="48.84678" lon="2.38166">
        <ele>98.1</ele>
        <time>2015-07-20T19:05:34.495Z</time>
      </trkpt>
      <trkpt lat="48.84681" lon="2.38163">
        <ele>97.9</ele>
        <time>2015-07-20T19:05:35.506Z</time>
      </trkpt>
      <trkpt lat="48.84689" lon="2.3816">
        <ele>98.1</ele>
        <time>2015-07-20T19:05:37.544Z</time>
      </trkpt>
      <trkpt lat="48.84693" lon="2.38158">
        <ele>98</ele>
        <time>2015-07-20T19:05:38.554Z</time>
      </trkpt>
      <trkpt lat="48.84701" lon="2.38154">
        <ele>97.9</ele>
        <time>2015-07-20T19:05:40.560Z</time>
      </trkpt>
      <trkpt lat="48.84705" lon="2.38152">
        <ele>98.2</ele>
        <time>2015-07-20T19:05:41.510Z</time>
      </trkpt>
      <trkpt lat="48.8471" lon="2.3815">
        <ele>98.4</ele>
        <time>2015-07-20T19:05:42.518Z</time>
      </trkpt>
      <trkpt lat="48.84714" lon="2.38147">
        <ele>98.4</ele>
        <time>2015-07-20T19:05:43.565Z</time>
      </trkpt>
      <trkpt lat="48.84721" lon="2.38141">
        <ele>99</ele>
        <time>2015-07-20T19:05:45.495Z</time>
      </trkpt>
      <trkpt lat="48.84725" lon="2.38138">
        <ele>98.9</ele>
        <time>2015-07-20T19:05:46.499Z</time>
      </trkpt>
      <trkpt lat="48.84733" lon="2.38134">
        <ele>99</ele>
        <time>2015-07-20T19:05:48.978Z</time>
      </trkpt>
      <trkpt lat="48.84738" lon="2.38132">
        <ele>98.9</ele>
        <time>2015-07-20T19:05:49.590Z</time>
      </trkpt>
      <trkpt lat="48.84743" lon="2.38127">
        <ele>98</ele>
        <time>2015-07-20T19:05:50.548Z</time>
      </trkpt>
      <trkpt lat="48.84749" lon="2.38122">
        <ele>97.2</ele>
        <time>2015-07-20T19:05:51.564Z</time>
      </trkpt>
      <trkpt lat="48.84753" lon="2.38118">
        <ele>97.6</ele>
        <time>2015-07-20T19:05:52.486Z</time>
      </trkpt>
      <trkpt lat="48.84756" lon="2.38112">
        <ele>98.4</ele>
        <time>2015-07-20T19:05:53.464Z</time>
      </trkpt>
      <trkpt lat="48.8476" lon="2.38107">
        <ele>98.7</ele>
        <time>2015-07-20T19:05:54.526Z</time>
      </trkpt>
      <trkpt lat="48.84764" lon="2.38104">
        <ele>98.5</ele>
        <time>2015-07-20T19:05:55.538Z</time>
      </trkpt>
      <trkpt lat="48.84768" lon="2.38101">
        <ele>98.7</ele>
        <time>2015-07-20T19:05:56.551Z</time>
      </trkpt>
      <trkpt lat="48.84773" lon="2.38098">
        <ele>98.6</ele>
        <time>2015-07-20T19:05:57.459Z</time>
      </trkpt>
      <trkpt lat="48.84779" lon="2.38094">
        <ele>98.6</ele>
        <time>2015-07-20T19:05:58.765Z</time>
      </trkpt>
      <trkpt lat="48.84784" lon="2.3809">
        <ele>98.4</ele>
        <time>2015-07-20T19:05:59.460Z</time>
      </trkpt>
      <trkpt lat="48.84788" lon="2.38086">
        <ele>98.1</ele>
        <time>2015-07-20T19:06:00.514Z</time>
      </trkpt>
      <trkpt lat="48.84792" lon="2.38082">
        <ele>98.2</ele>
        <time>2015-07-20T19:06:01.512Z</time>
      </trkpt>
      <trkpt lat="48.84798" lon="2.38076">
        <ele>98.9</ele>
        <time>2015-07-20T19:06:03.532Z</time>
      </trkpt>
      <trkpt lat="48.848" lon="2.38073">
        <ele>98.8</ele>
        <time>2015-07-20T19:06:04.538Z</time>
      </trkpt>
      <trkpt lat="48.84805" lon="2.38069">
        <ele>98.8</ele>
        <time>2015-07-20T19:06:05.486Z</time>
      </trkpt>
      <trkpt lat="48.84808" lon="2.38064">
        <ele>99</ele>
        <time>2015-07-20T19:06:06.587Z</time>
      </trkpt>
      <trkpt lat="48.84812" lon="2.38059">
        <ele>99.3</ele>
        <time>2015-07-20T19:06:07.573Z</time>
      </trkpt>
      <trkpt lat="48.84816" lon="2.38055">
        <ele>99.3</ele>
        <time>2015-07-20T19:06:08.565Z</time>
      </trkpt>
      <trkpt lat="48.84821" lon="2.38052">
        <ele>99.2</ele>
        <time>2015-07-20T19:06:10.272Z</time>
      </trkpt>
      <trkpt lat="48.84826" lon="2.38049">
        <ele>99.1</ele>
        <time>2015-07-20T19:06:10.464Z</time>
      </trkpt>
      <trkpt lat="48.84831" lon="2.38047">
        <ele>98.7</ele>
        <time>2015-07-20T19:06:11.485Z</time>
      </trkpt>
      <trkpt lat="48.84834" lon="2.38043">
        <ele>98.6</ele>
        <time>2015-07-20T19:06:12.527Z</time>
      </trkpt>
      <trkpt lat="48.84839" lon="2.38039">
        <ele>98.4</ele>
        <time>2015-07-20T19:06:13.519Z</time>
      </trkpt>
      <trkpt lat="48.84844" lon="2.38035">
        <ele>98.2</ele>
        <time>2015-07-20T19:06:14.537Z</time>
      </trkpt>
      <trkpt lat="48.84849" lon="2.38032">
        <ele>98.5</ele>
        <time>2015-07-20T19:06:15.541Z</time>
      </trkpt>
      <trkpt lat="48.84854" lon="2.38028">
        <ele>98.6</ele>
        <time>2015-07-20T19:06:16.702Z</time>
      </trkpt>
      <trkpt lat="48.84859" lon="2.38023">
        <ele>98.4</ele>
        <time>2015-07-20T19:06:17.560Z</time>
      </trkpt>
      <trkpt lat="48.84864" lon="2.38019">
        <ele>98.3</ele>
        <time>2015-07-20T19:06:18.522Z</time>
      </trkpt>
      <trkpt lat="48.84869" lon="2.38015">
        <ele>98.2</ele>
        <time>2015-07-20T19:06:19.526Z</time>
      </trkpt>
      <trkpt lat="48.84873" lon="2.3801">
        <ele>98</ele>
        <time>2015-07-20T19:06:20.528Z</time>
      </trkpt>
      <trkpt lat="48.84877" lon="2.38005">
        <ele>97.9</ele>
        <time>2015-07-20T19:06:21.541Z</time>
      </trkpt>
      <trkpt lat="48.84882" lon="2.38001">
        <ele>97.8</ele>
        <time>2015-07-20T19:06:22.550Z</time>
      </trkpt>
      <trkpt lat="48.84887" lon="2.37997">
        <ele>97.6</ele>
        <time>2015-07-20T19:06:23.484Z</time>
      </trkpt>
      <trkpt lat="48.84892" lon="2.37993">
        <ele>97.3</ele>
        <time>2015-07-20T19:06:24.532Z</time>
      </trkpt>
      <trkpt lat="48.84897" lon="2.37987">
        <ele>97.1</ele>
        <time>2015-07-20T19:06:25.539Z</time>
      </trkpt>
      <trkpt lat="48.84903" lon="2.37982">
        <ele>97.1</ele>
        <time>2015-07-20T19:06:26.557Z</time>
      </trkpt>
      <trkpt lat="48.84908" lon="2.37976">
        <ele>96.9</ele>
        <time>2015-07-20T19:06:27.579Z</time>
      </trkpt>
      <trkpt lat="48.84913" lon="2.37971">
        <ele>96.9</ele>
        <time>2015-07-20T19:06:28.574Z</time>
      </trkpt>
      <trkpt lat="48.84918" lon="2.37965">
        <ele>96.9</ele>
        <time>2015-07-20T19:06:29.483Z</time>
      </trkpt>
      <trkpt lat="48.84924" lon="2.37961">
        <ele>96.9</ele>
        <time>2015-07-20T19:06:30.532Z</time>
      </trkpt>
      <trkpt lat="48.84929" lon="2.37957">
        <ele>97.4</ele>
        <time>2015-07-20T19:06:31.544Z</time>
      </trkpt>
      <trkpt lat="48.84936" lon="2.37954">
        <ele>97.3</ele>
        <time>2015-07-20T19:06:32.551Z</time>
      </trkpt>
      <trkpt lat="48.84943" lon="2.37951">
        <ele>97.6</ele>
        <time>2015-07-20T19:06:33.551Z</time>
      </trkpt>
      <trkpt lat="48.8495" lon="2.37948">
        <ele>97.5</ele>
        <time>2015-07-20T19:06:34.570Z</time>
      </trkpt>
      <trkpt lat="48.84956" lon="2.37944">
        <ele>97.8</ele>
        <time>2015-07-20T19:06:35.494Z</time>
      </trkpt>
      <trkpt lat="48.84962" lon="2.3794">
        <ele>98</ele>
        <time>2015-07-20T19:06:36.538Z</time>
      </trkpt>
      <trkpt lat="48.84969" lon="2.37936">
        <ele>98.7</ele>
        <time>2015-07-20T19:06:37.536Z</time>
      </trkpt>
      <trkpt lat="48.84975" lon="2.37933">
        <ele>99</ele>
        <time>2015-07-20T19:06:38.547Z</time>
      </trkpt>
      <trkpt lat="48.8498" lon="2.37928">
        <ele>99.1</ele>
        <time>2015-07-20T19:06:39.557Z</time>
      </trkpt>
      <trkpt lat="48.84986" lon="2.37921">
        <ele>98.1</ele>
        <time>2015-07-20T19:06:40.477Z</time>
      </trkpt>
      <trkpt lat="48.84991" lon="2.37917">
        <ele>98.5</ele>
        <time>2015-07-20T19:06:41.504Z</time>
      </trkpt>
      <trkpt lat="48.84996" lon="2.37911">
        <ele>99</ele>
        <time>2015-07-20T19:06:42.608Z</time>
      </trkpt>
      <trkpt lat="48.85001" lon="2.37906">
        <ele>99.4</ele>
        <time>2015-07-20T19:06:43.496Z</time>
      </trkpt>
      <trkpt lat="48.85007" lon="2.37902">
        <ele>99.5</ele>
        <time>2015-07-20T19:06:44.498Z</time>
      </trkpt>
      <trkpt lat="48.85012" lon="2.37898">
        <ele>99.6</ele>
        <time>2015-07-20T19:06:45.513Z</time>
      </trkpt>
      <trkpt lat="48.85016" lon="2.37894">
        <ele>99.7</ele>
        <time>2015-07-20T19:06:46.520Z</time>
      </trkpt>
      <trkpt lat="48.8502" lon="2.37888">
        <ele>99.9</ele>
        <time>2015-07-20T19:06:47.532Z</time>
      </trkpt>
      <trkpt lat="48.85022" lon="2.37884">
        <ele>100.2</ele>
        <time>2015-07-20T19:06:48.536Z</time>
      </trkpt>
      <trkpt lat="48.85029" lon="2.37876">
        <ele>100.3</ele>
        <time>2015-07-20T19:06:50.546Z</time>
      </trkpt>
      <trkpt lat="48.85033" lon="2.37873">
        <ele>100.4</ele>
        <time>2015-07-20T19:06:51.459Z</time>
      </trkpt>
      <trkpt lat="48.85039" lon="2.37872">
        <ele>100.9</ele>
        <time>2015-07-20T19:06:52.494Z</time>
      </trkpt>
      <trkpt lat="48.85044" lon="2.3787">
        <ele>100.7</ele>
        <time>2015-07-20T19:06:53.504Z</time>
      </trkpt>
      <trkpt lat="48.85049" lon="2.37867">
        <ele>100</ele>
        <time>2015-07-20T19:06:54.548Z</time>
      </trkpt>
      <trkpt lat="48.85054" lon="2.37868">
        <ele>99.6</ele>
        <time>2015-07-20T19:06:55.556Z</time>
      </trkpt>
      <trkpt lat="48.85062" lon="2.37862">
        <ele>100.4</ele>
        <time>2015-07-20T19:06:57.584Z</time>
      </trkpt>
      <trkpt lat="48.85064" lon="2.3786">
        <ele>100.6</ele>
        <time>2015-07-20T19:06:58.598Z</time>
      </trkpt>
      <trkpt lat="48.85067" lon="2.3785">
        <ele>100.2</ele>
        <time>2015-07-20T19:07:02.505Z</time>
      </trkpt>
      <trkpt lat="48.85068" lon="2.37846">
        <ele>100</ele>
        <time>2015-07-20T19:07:03.505Z</time>
      </trkpt>
      <trkpt lat="48.85073" lon="2.37837">
        <ele>100.2</ele>
        <time>2015-07-20T19:07:06.598Z</time>
      </trkpt>
      <trkpt lat="48.85076" lon="2.37837">
        <ele>100.1</ele>
        <time>2015-07-20T19:07:07.518Z</time>
      </trkpt>
      <trkpt lat="48.85083" lon="2.37839">
        <ele>100.5</ele>
        <time>2015-07-20T19:07:10.585Z</time>
      </trkpt>
      <trkpt lat="48.85085" lon="2.3784">
        <ele>100.4</ele>
        <time>2015-07-20T19:07:11.512Z</time>
      </trkpt>
      <trkpt lat="48.85092" lon="2.37848">
        <ele>100.8</ele>
        <time>2015-07-20T19:07:14.544Z</time>
      </trkpt>
      <trkpt lat="48.85094" lon="2.3785">
        <ele>100.9</ele>
        <time>2015-07-20T19:07:15.486Z</time>
      </trkpt>
      <trkpt lat="48.85099" lon="2.37857">
        <ele>101.6</ele>
        <time>2015-07-20T19:07:18.533Z</time>
      </trkpt>
      <trkpt lat="48.85101" lon="2.37859">
        <ele>101.7</ele>
        <time>2015-07-20T19:07:19.534Z</time>
      </trkpt>
      <trkpt lat="48.85108" lon="2.37862">
        <ele>101.8</ele>
        <time>2015-07-20T19:07:21.554Z</time>
      </trkpt>
      <trkpt lat="48.85112" lon="2.37863">
        <ele>101.8</ele>
        <time>2015-07-20T19:07:22.479Z</time>
      </trkpt>
      <trkpt lat="48.85116" lon="2.37865">
        <ele>101.7</ele>
        <time>2015-07-20T19:07:23.485Z</time>
      </trkpt>
      <trkpt lat="48.85122" lon="2.37866">
        <ele>101.7</ele>
        <time>2015-07-20T19:07:24.594Z</time>
      </trkpt>
      <trkpt lat="48.85127" lon="2.37866">
        <ele>101.7</ele>
        <time>2015-07-20T19:07:25.462Z</time>
      </trkpt>
      <trkpt lat="48.85132" lon="2.37867">
        <ele>101.8</ele>
        <time>2015-07-20T19:07:26.467Z</time>
      </trkpt>
      <trkpt lat="48.85137" lon="2.37869">
        <ele>102</ele>
        <time>2015-07-20T19:07:27.514Z</time>
      </trkpt>
      <trkpt lat="48.85142" lon="2.37869">
        <ele>102.2</ele>
        <time>2015-07-20T19:07:28.527Z</time>
      </trkpt>
      <trkpt lat="48.85148" lon="2.3787">
        <ele>102.5</ele>
        <time>2015-07-20T19:07:29.550Z</time>
      </trkpt>
      <trkpt lat="48.85153" lon="2.37871">
        <ele>102.8</ele>
        <time>2015-07-20T19:07:30.568Z</time>
      </trkpt>
      <trkpt lat="48.85162" lon="2.37874">
        <ele>103.3</ele>
        <time>2015-07-20T19:07:32.460Z</time>
      </trkpt>
      <trkpt lat="48.85167" lon="2.37876">
        <ele>103.3</ele>
        <time>2015-07-20T19:07:33.468Z</time>
      </trkpt>
      <trkpt lat="48.85173" lon="2.37881">
        <ele>103.1</ele>
        <time>2015-07-20T19:07:35.528Z</time>
      </trkpt>
      <trkpt lat="48.85175" lon="2.37884">
        <ele>103.1</ele>
        <time>2015-07-20T19:07:36.549Z</time>
      </trkpt>
      <trkpt lat="48.8518" lon="2.37888">
        <ele>102.8</ele>
        <time>2015-07-20T19:07:37.456Z</time>
      </trkpt>
      <trkpt lat="48.85185" lon="2.3789">
        <ele>102.7</ele>
        <time>2015-07-20T19:07:38.457Z</time>
      </trkpt>
      <trkpt lat="48.8519" lon="2.37891">
        <ele>102.6</ele>
        <time>2015-07-20T19:07:39.495Z</time>
      </trkpt>
      <trkpt lat="48.85195" lon="2.37893">
        <ele>102.5</ele>
        <time>2015-07-20T19:07:40.498Z</time>
      </trkpt>
      <trkpt lat="48.85199" lon="2.37892">
        <ele>102.7</ele>
        <time>2015-07-20T19:07:41.523Z</time>
      </trkpt>
      <trkpt lat="48.85204" lon="2.37892">
        <ele>102.6</ele>
        <time>2015-07-20T19:07:42.561Z</time>
      </trkpt>
      <trkpt lat="48.85212" lon="2.37894">
        <ele>102.4</ele>
        <time>2015-07-20T19:07:44.462Z</time>
      </trkpt>
      <trkpt lat="48.85216" lon="2.37896">
        <ele>102.3</ele>
        <time>2015-07-20T19:07:45.479Z</time>
      </trkpt>
      <trkpt lat="48.85222" lon="2.37898">
        <ele>102.2</ele>
        <time>2015-07-20T19:07:47.276Z</time>
      </trkpt>
      <trkpt lat="48.85228" lon="2.37899">
        <ele>102.3</ele>
        <time>2015-07-20T19:07:47.456Z</time>
      </trkpt>
      <trkpt lat="48.85236" lon="2.37904">
        <ele>102.4</ele>
        <time>2015-07-20T19:07:49.519Z</time>
      </trkpt>
      <trkpt lat="48.85241" lon="2.37906">
        <ele>102.6</ele>
        <time>2015-07-20T19:07:50.533Z</time>
      </trkpt>
      <trkpt lat="48.85247" lon="2.37909">
        <ele>102.7</ele>
        <time>2015-07-20T19:07:52.339Z</time>
      </trkpt>
      <trkpt lat="48.85253" lon="2.37911">
        <ele>102.8</ele>
        <time>2015-07-20T19:07:52.452Z</time>
      </trkpt>
      <trkpt lat="48.85258" lon="2.37911">
        <ele>103</ele>
        <time>2015-07-20T19:07:53.462Z</time>
      </trkpt>
      <trkpt lat="48.85263" lon="2.37911">
        <ele>103.3</ele>
        <time>2015-07-20T19:07:54.530Z</time>
      </trkpt>
      <trkpt lat="48.85268" lon="2.37911">
        <ele>103.8</ele>
        <time>2015-07-20T19:07:55.524Z</time>
      </trkpt>
      <trkpt lat="48.85273" lon="2.37911">
        <ele>104.3</ele>
        <time>2015-07-20T19:07:56.451Z</time>
      </trkpt>
      <trkpt lat="48.85281" lon="2.37912">
        <ele>104.8</ele>
        <time>2015-07-20T19:07:58.523Z</time>
      </trkpt>
      <trkpt lat="48.85287" lon="2.37913">
        <ele>105.1</ele>
        <time>2015-07-20T19:07:59.536Z</time>
      </trkpt>
      <trkpt lat="48.85291" lon="2.37915">
        <ele>105.3</ele>
        <time>2015-07-20T19:08:00.580Z</time>
      </trkpt>
      <trkpt lat="48.85296" lon="2.37919">
        <ele>105.5</ele>
        <time>2015-07-20T19:08:01.454Z</time>
      </trkpt>
      <trkpt lat="48.85301" lon="2.37922">
        <ele>105.8</ele>
        <time>2015-07-20T19:08:02.461Z</time>
      </trkpt>
      <trkpt lat="48.85305" lon="2.37925">
        <ele>105.9</ele>
        <time>2015-07-20T19:08:03.463Z</time>
      </trkpt>
      <trkpt lat="48.8531" lon="2.37927">
        <ele>106.1</ele>
        <time>2015-07-20T19:08:04.469Z</time>
      </trkpt>
      <trkpt lat="48.85315" lon="2.37929">
        <ele>106.2</ele>
        <time>2015-07-20T19:08:05.511Z</time>
      </trkpt>
      <trkpt lat="48.85322" lon="2.37932">
        <ele>106.4</ele>
        <time>2015-07-20T19:08:07.497Z</time>
      </trkpt>
      <trkpt lat="48.85325" lon="2.37933">
        <ele>106.5</ele>
        <time>2015-07-20T19:08:08.523Z</time>
      </trkpt>
      <trkpt lat="48.8533" lon="2.37934">
        <ele>106.2</ele>
        <time>2015-07-20T19:08:10.581Z</time>
      </trkpt>
      <trkpt lat="48.85336" lon="2.37936">
        <ele>105.7</ele>
        <time>2015-07-20T19:08:11.502Z</time>
      </trkpt>
      <trkpt lat="48.85341" lon="2.37924">
        <ele>106.2</ele>
        <time>2015-07-20T19:08:22.729Z</time>
      </trkpt>
      <trkpt lat="48.85339" lon="2.37919">
        <ele>105.6</ele>
        <time>2015-07-20T19:08:23.486Z</time>
      </trkpt>
      <trkpt lat="48.85339" lon="2.37912">
        <ele>105.3</ele>
        <time>2015-07-20T19:08:24.528Z</time>
      </trkpt>
      <trkpt lat="48.85337" lon="2.37904">
        <ele>104.7</ele>
        <time>2015-07-20T19:08:25.538Z</time>
      </trkpt>
      <trkpt lat="48.85336" lon="2.37891">
        <ele>104.5</ele>
        <time>2015-07-20T19:08:27.484Z</time>
      </trkpt>
      <trkpt lat="48.85335" lon="2.37884">
        <ele>104.6</ele>
        <time>2015-07-20T19:08:28.513Z</time>
      </trkpt>
      <trkpt lat="48.85334" lon="2.37878">
        <ele>104.6</ele>
        <time>2015-07-20T19:08:29.552Z</time>
      </trkpt>
      <trkpt lat="48.85332" lon="2.3787">
        <ele>104.4</ele>
        <time>2015-07-20T19:08:30.564Z</time>
      </trkpt>
      <trkpt lat="48.85332" lon="2.37862">
        <ele>104.6</ele>
        <time>2015-07-20T19:08:31.484Z</time>
      </trkpt>
      <trkpt lat="48.85331" lon="2.37855">
        <ele>105</ele>
        <time>2015-07-20T19:08:32.492Z</time>
      </trkpt>
      <trkpt lat="48.85331" lon="2.37847">
        <ele>105.2</ele>
        <time>2015-07-20T19:08:33.508Z</time>
      </trkpt>
      <trkpt lat="48.85331" lon="2.3784">
        <ele>105.3</ele>
        <time>2015-07-20T19:08:34.531Z</time>
      </trkpt>
      <trkpt lat="48.85329" lon="2.37828">
        <ele>105.7</ele>
        <time>2015-07-20T19:08:36.560Z</time>
      </trkpt>
      <trkpt lat="48.85328" lon="2.37823">
        <ele>105.6</ele>
        <time>2015-07-20T19:08:37.514Z</time>
      </trkpt>
      <trkpt lat="48.85327" lon="2.3781">
        <ele>105.6</ele>
        <time>2015-07-20T19:08:39.489Z</time>
      </trkpt>
      <trkpt lat="48.85327" lon="2.37802">
        <ele>105.3</ele>
        <time>2015-07-20T19:08:40.500Z</time>
      </trkpt>
      <trkpt lat="48.85327" lon="2.37794">
        <ele>104.6</ele>
        <time>2015-07-20T19:08:41.510Z</time>
      </trkpt>
      <trkpt lat="48.85327" lon="2.37786">
        <ele>104.5</ele>
        <time>2015-07-20T19:08:42.551Z</time>
      </trkpt>
      <trkpt lat="48.85327" lon="2.37777">
        <ele>103.9</ele>
        <time>2015-07-20T19:08:43.486Z</time>
      </trkpt>
      <trkpt lat="48.85327" lon="2.37769">
        <ele>104.1</ele>
        <time>2015-07-20T19:08:44.484Z</time>
      </trkpt>
      <trkpt lat="48.85327" lon="2.3776">
        <ele>103</ele>
        <time>2015-07-20T19:08:45.506Z</time>
      </trkpt>
      <trkpt lat="48.85327" lon="2.37753">
        <ele>103.1</ele>
        <time>2015-07-20T19:08:46.535Z</time>
      </trkpt>
      <trkpt lat="48.85326" lon="2.37743">
        <ele>103</ele>
        <time>2015-07-20T19:08:48.551Z</time>
      </trkpt>
      <trkpt lat="48.85326" lon="2.37739">
        <ele>103.3</ele>
        <time>2015-07-20T19:08:49.564Z</time>
      </trkpt>
      <trkpt lat="48.85329" lon="2.37732">
        <ele>104.8</ele>
        <time>2015-07-20T19:08:58.556Z</time>
      </trkpt>
      <trkpt lat="48.85334" lon="2.37723">
        <ele>109.1</ele>
        <time>2015-07-20T19:08:59.482Z</time>
      </trkpt>
      <trkpt lat="48.85341" lon="2.37723">
        <ele>110.2</ele>
        <time>2015-07-20T19:09:02.477Z</time>
      </trkpt>
      <trkpt lat="48.85343" lon="2.37724">
        <ele>110.4</ele>
        <time>2015-07-20T19:09:03.481Z</time>
      </trkpt>
      <trkpt lat="48.85348" lon="2.37725">
        <ele>110.2</ele>
        <time>2015-07-20T19:09:04.488Z</time>
      </trkpt>
      <trkpt lat="48.85354" lon="2.37726">
        <ele>110.4</ele>
        <time>2015-07-20T19:09:05.557Z</time>
      </trkpt>
      <trkpt lat="48.85359" lon="2.37728">
        <ele>110.7</ele>
        <time>2015-07-20T19:09:06.512Z</time>
      </trkpt>
      <trkpt lat="48.85367" lon="2.37731">
        <ele>111.2</ele>
        <time>2015-07-20T19:09:07.525Z</time>
      </trkpt>
      <trkpt lat="48.85374" lon="2.37737">
        <ele>111.3</ele>
        <time>2015-07-20T19:09:09.540Z</time>
      </trkpt>
      <trkpt lat="48.85377" lon="2.37741">
        <ele>111.6</ele>
        <time>2015-07-20T19:09:10.549Z</time>
      </trkpt>
      <trkpt lat="48.85385" lon="2.37749">
        <ele>111.5</ele>
        <time>2015-07-20T19:09:12.614Z</time>
      </trkpt>
      <trkpt lat="48.85389" lon="2.37751">
        <ele>111.4</ele>
        <time>2015-07-20T19:09:13.507Z</time>
      </trkpt>
      <trkpt lat="48.85397" lon="2.37757">
        <ele>111.4</ele>
        <time>2015-07-20T19:09:15.547Z</time>
      </trkpt>
      <trkpt lat="48.85401" lon="2.37759">
        <ele>111.3</ele>
        <time>2015-07-20T19:09:16.552Z</time>
      </trkpt>
      <trkpt lat="48.85405" lon="2.37762">
        <ele>111</ele>
        <time>2015-07-20T19:09:17.454Z</time>
      </trkpt>
      <trkpt lat="48.8541" lon="2.37765">
        <ele>111</ele>
        <time>2015-07-20T19:09:18.695Z</time>
      </trkpt>
      <trkpt lat="48.85415" lon="2.37768">
        <ele>111</ele>
        <time>2015-07-20T19:09:19.465Z</time>
      </trkpt>
      <trkpt lat="48.8542" lon="2.37773">
        <ele>110.6</ele>
        <time>2015-07-20T19:09:20.485Z</time>
      </trkpt>
      <trkpt lat="48.85425" lon="2.37778">
        <ele>110.2</ele>
        <time>2015-07-20T19:09:21.511Z</time>
      </trkpt>
      <trkpt lat="48.8543" lon="2.37783">
        <ele>110</ele>
        <time>2015-07-20T19:09:22.525Z</time>
      </trkpt>
      <trkpt lat="48.85438" lon="2.37788">
        <ele>110.7</ele>
        <time>2015-07-20T19:09:24.550Z</time>
      </trkpt>
      <trkpt lat="48.85441" lon="2.37791">
        <ele>111</ele>
        <time>2015-07-20T19:09:25.730Z</time>
      </trkpt>
      <trkpt lat="48.85449" lon="2.37798">
        <ele>111.3</ele>
        <time>2015-07-20T19:09:27.466Z</time>
      </trkpt>
      <trkpt lat="48.85453" lon="2.378">
        <ele>111.7</ele>
        <time>2015-07-20T19:09:28.465Z</time>
      </trkpt>
      <trkpt lat="48.85458" lon="2.37805">
        <ele>111.5</ele>
        <time>2015-07-20T19:09:30.528Z</time>
      </trkpt>
      <trkpt lat="48.85462" lon="2.37806">
        <ele>110.7</ele>
        <time>2015-07-20T19:09:31.539Z</time>
      </trkpt>
      <trkpt lat="48.85471" lon="2.37809">
        <ele>110.7</ele>
        <time>2015-07-20T19:09:33.453Z</time>
      </trkpt>
      <trkpt lat="48.85476" lon="2.37811">
        <ele>110.9</ele>
        <time>2015-07-20T19:09:34.457Z</time>
      </trkpt>
      <trkpt lat="48.85482" lon="2.37814">
        <ele>111.1</ele>
        <time>2015-07-20T19:09:35.472Z</time>
      </trkpt>
      <trkpt lat="48.85488" lon="2.37817">
        <ele>111.1</ele>
        <time>2015-07-20T19:09:36.553Z</time>
      </trkpt>
      <trkpt lat="48.85495" lon="2.3782">
        <ele>111.2</ele>
        <time>2015-07-20T19:09:37.449Z</time>
      </trkpt>
      <trkpt lat="48.855" lon="2.37823">
        <ele>111.5</ele>
        <time>2015-07-20T19:09:38.480Z</time>
      </trkpt>
      <trkpt lat="48.85507" lon="2.37826">
        <ele>111.7</ele>
        <time>2015-07-20T19:09:39.491Z</time>
      </trkpt>
      <trkpt lat="48.85514" lon="2.37829">
        <ele>111.8</ele>
        <time>2015-07-20T19:09:40.501Z</time>
      </trkpt>
      <trkpt lat="48.8552" lon="2.37833">
        <ele>112</ele>
        <time>2015-07-20T19:09:41.509Z</time>
      </trkpt>
      <trkpt lat="48.85526" lon="2.37836">
        <ele>111.8</ele>
        <time>2015-07-20T19:09:42.530Z</time>
      </trkpt>
      <trkpt lat="48.85529" lon="2.37841">
        <ele>111.7</ele>
        <time>2015-07-20T19:09:43.524Z</time>
      </trkpt>
      <trkpt lat="48.85535" lon="2.37844">
        <ele>111.6</ele>
        <time>2015-07-20T19:09:44.537Z</time>
      </trkpt>
      <trkpt lat="48.85541" lon="2.37848">
        <ele>111.5</ele>
        <time>2015-07-20T19:09:45.541Z</time>
      </trkpt>
      <trkpt lat="48.85546" lon="2.3785">
        <ele>111.3</ele>
        <time>2015-07-20T19:09:46.557Z</time>
      </trkpt>
      <trkpt lat="48.85552" lon="2.3786">
        <ele>111.1</ele>
        <time>2015-07-20T19:09:49.493Z</time>
      </trkpt>
      <trkpt lat="48.85554" lon="2.37862">
        <ele>111.1</ele>
        <time>2015-07-20T19:09:50.513Z</time>
      </trkpt>
      <trkpt lat="48.85561" lon="2.37867">
        <ele>111</ele>
        <time>2015-07-20T19:09:53.758Z</time>
      </trkpt>
      <trkpt lat="48.85565" lon="2.37868">
        <ele>110.5</ele>
        <time>2015-07-20T19:09:54.559Z</time>
      </trkpt>
      <trkpt lat="48.85569" lon="2.37871">
        <ele>110.3</ele>
        <time>2015-07-20T19:09:55.575Z</time>
      </trkpt>
      <trkpt lat="48.85575" lon="2.37876">
        <ele>109.9</ele>
        <time>2015-07-20T19:09:56.491Z</time>
      </trkpt>
      <trkpt lat="48.85581" lon="2.37882">
        <ele>109.6</ele>
        <time>2015-07-20T19:09:57.499Z</time>
      </trkpt>
      <trkpt lat="48.85588" lon="2.37887">
        <ele>109.3</ele>
        <time>2015-07-20T19:09:58.518Z</time>
      </trkpt>
      <trkpt lat="48.85594" lon="2.37891">
        <ele>109.2</ele>
        <time>2015-07-20T19:09:59.511Z</time>
      </trkpt>
      <trkpt lat="48.85603" lon="2.37895">
        <ele>109.3</ele>
        <time>2015-07-20T19:10:00.538Z</time>
      </trkpt>
      <trkpt lat="48.85611" lon="2.37898">
        <ele>109.4</ele>
        <time>2015-07-20T19:10:01.569Z</time>
      </trkpt>
      <trkpt lat="48.85618" lon="2.37902">
        <ele>109.6</ele>
        <time>2015-07-20T19:10:02.451Z</time>
      </trkpt>
      <trkpt lat="48.85624" lon="2.37905">
        <ele>109.8</ele>
        <time>2015-07-20T19:10:03.952Z</time>
      </trkpt>
      <trkpt lat="48.8563" lon="2.37908">
        <ele>109.9</ele>
        <time>2015-07-20T19:10:04.516Z</time>
      </trkpt>
      <trkpt lat="48.85636" lon="2.37912">
        <ele>109.8</ele>
        <time>2015-07-20T19:10:05.559Z</time>
      </trkpt>
      <trkpt lat="48.85642" lon="2.37916">
        <ele>110.2</ele>
        <time>2015-07-20T19:10:06.588Z</time>
      </trkpt>
      <trkpt lat="48.85649" lon="2.37918">
        <ele>110.3</ele>
        <time>2015-07-20T19:10:07.480Z</time>
      </trkpt>
      <trkpt lat="48.85655" lon="2.3792">
        <ele>110.4</ele>
        <time>2015-07-20T19:10:08.487Z</time>
      </trkpt>
      <trkpt lat="48.85663" lon="2.37925">
        <ele>110.5</ele>
        <time>2015-07-20T19:10:10.506Z</time>
      </trkpt>
      <trkpt lat="48.85667" lon="2.37927">
        <ele>110.9</ele>
        <time>2015-07-20T19:10:11.515Z</time>
      </trkpt>
      <trkpt lat="48.85674" lon="2.37931">
        <ele>111.1</ele>
        <time>2015-07-20T19:10:13.448Z</time>
      </trkpt>
      <trkpt lat="48.85679" lon="2.37932">
        <ele>110.5</ele>
        <time>2015-07-20T19:10:14.523Z</time>
      </trkpt>
      <trkpt lat="48.85683" lon="2.37932">
        <ele>109.3</ele>
        <time>2015-07-20T19:10:15.485Z</time>
      </trkpt>
      <trkpt lat="48.85689" lon="2.37933">
        <ele>108.2</ele>
        <time>2015-07-20T19:10:16.591Z</time>
      </trkpt>
      <trkpt lat="48.85693" lon="2.37935">
        <ele>107.9</ele>
        <time>2015-07-20T19:10:17.483Z</time>
      </trkpt>
      <trkpt lat="48.85697" lon="2.37939">
        <ele>108</ele>
        <time>2015-07-20T19:10:18.527Z</time>
      </trkpt>
      <trkpt lat="48.85702" lon="2.37942">
        <ele>107.9</ele>
        <time>2015-07-20T19:10:19.518Z</time>
      </trkpt>
      <trkpt lat="48.85707" lon="2.37944">
        <ele>108</ele>
        <time>2015-07-20T19:10:20.528Z</time>
      </trkpt>
      <trkpt lat="48.85712" lon="2.37946">
        <ele>108.8</ele>
        <time>2015-07-20T19:10:21.534Z</time>
      </trkpt>
      <trkpt lat="48.85718" lon="2.3795">
        <ele>109.7</ele>
        <time>2015-07-20T19:10:22.539Z</time>
      </trkpt>
      <trkpt lat="48.85726" lon="2.37953">
        <ele>110.6</ele>
        <time>2015-07-20T19:10:23.557Z</time>
      </trkpt>
      <trkpt lat="48.85732" lon="2.37956">
        <ele>111.2</ele>
        <time>2015-07-20T19:10:24.566Z</time>
      </trkpt>
      <trkpt lat="48.85737" lon="2.37958">
        <ele>111.2</ele>
        <time>2015-07-20T19:10:25.481Z</time>
      </trkpt>
      <trkpt lat="48.85743" lon="2.37962">
        <ele>110.2</ele>
        <time>2015-07-20T19:10:26.483Z</time>
      </trkpt>
      <trkpt lat="48.85749" lon="2.37968">
        <ele>108</ele>
        <time>2015-07-20T19:10:27.485Z</time>
      </trkpt>
      <trkpt lat="48.85755" lon="2.37973">
        <ele>106.4</ele>
        <time>2015-07-20T19:10:28.490Z</time>
      </trkpt>
      <trkpt lat="48.85761" lon="2.37981">
        <ele>105.3</ele>
        <time>2015-07-20T19:10:30.546Z</time>
      </trkpt>
      <trkpt lat="48.85764" lon="2.37985">
        <ele>104.8</ele>
        <time>2015-07-20T19:10:31.567Z</time>
      </trkpt>
      <trkpt lat="48.85768" lon="2.37992">
        <ele>104.2</ele>
        <time>2015-07-20T19:10:33.480Z</time>
      </trkpt>
      <trkpt lat="48.8577" lon="2.37995">
        <ele>103.9</ele>
        <time>2015-07-20T19:10:34.513Z</time>
      </trkpt>
      <trkpt lat="48.85777" lon="2.38004">
        <ele>103.3</ele>
        <time>2015-07-20T19:10:37.555Z</time>
      </trkpt>
      <trkpt lat="48.85779" lon="2.38005">
        <ele>102.8</ele>
        <time>2015-07-20T19:10:38.514Z</time>
      </trkpt>
      <trkpt lat="48.85784" lon="2.37997">
        <ele>99</ele>
        <time>2015-07-20T19:10:43.451Z</time>
      </trkpt>
      <trkpt lat="48.85786" lon="2.37995">
        <ele>98.6</ele>
        <time>2015-07-20T19:10:44.499Z</time>
      </trkpt>
      <trkpt lat="48.85791" lon="2.37988">
        <ele>98</ele>
        <time>2015-07-20T19:10:53.503Z</time>
      </trkpt>
      <trkpt lat="48.85796" lon="2.37978">
        <ele>95.1</ele>
        <time>2015-07-20T19:10:54.692Z</time>
      </trkpt>
      <trkpt lat="48.85803" lon="2.37975">
        <ele>94.4</ele>
        <time>2015-07-20T19:11:09.556Z</time>
      </trkpt>
      <trkpt lat="48.85825" lon="2.37975">
        <ele>92.2</ele>
        <time>2015-07-20T19:11:10.595Z</time>
      </trkpt>
      <trkpt lat="48.85833" lon="2.37973">
        <ele>92.9</ele>
        <time>2015-07-20T19:12:18.550Z</time>
      </trkpt>
      <trkpt lat="48.85848" lon="2.37967">
        <ele>97.7</ele>
        <time>2015-07-20T19:12:19.575Z</time>
      </trkpt>
      <trkpt lat="48.85844" lon="2.3796">
        <ele>97.7</ele>
        <time>2015-07-20T19:12:21.500Z</time>
      </trkpt>
      <trkpt lat="48.85841" lon="2.37957">
        <ele>97.6</ele>
        <time>2015-07-20T19:12:22.520Z</time>
      </trkpt>
      <trkpt lat="48.85839" lon="2.37949">
        <ele>96</ele>
        <time>2015-07-20T19:12:24.571Z</time>
      </trkpt>
      <trkpt lat="48.85838" lon="2.37943">
        <ele>96.1</ele>
        <time>2015-07-20T19:12:25.514Z</time>
      </trkpt>
      <trkpt lat="48.8584" lon="2.37933">
        <ele>95.1</ele>
        <time>2015-07-20T19:12:28.511Z</time>
      </trkpt>
      <trkpt lat="48.8584" lon="2.3793">
        <ele>94.9</ele>
        <time>2015-07-20T19:12:29.524Z</time>
      </trkpt>
      <trkpt lat="48.85845" lon="2.37919">
        <ele>93.5</ele>
        <time>2015-07-20T19:13:58.549Z</time>
      </trkpt>
      <trkpt lat="48.85846" lon="2.37917">
        <ele>93.4</ele>
        <time>2015-07-20T19:13:59.466Z</time>
      </trkpt>
      <trkpt lat="48.85847" lon="2.37906">
        <ele>93.8</ele>
        <time>2015-07-20T19:14:02.458Z</time>
      </trkpt>
      <trkpt lat="48.85848" lon="2.37903">
        <ele>94.1</ele>
        <time>2015-07-20T19:14:03.483Z</time>
      </trkpt>
      <trkpt lat="48.85853" lon="2.37893">
        <ele>95.4</ele>
        <time>2015-07-20T19:14:07.456Z</time>
      </trkpt>
      <trkpt lat="48.85854" lon="2.3789">
        <ele>95.4</ele>
        <time>2015-07-20T19:14:08.462Z</time>
      </trkpt>
      <trkpt lat="48.85856" lon="2.37878">
        <ele>96.8</ele>
        <time>2015-07-20T19:14:12.526Z</time>
      </trkpt>
      <trkpt lat="48.85858" lon="2.37876">
        <ele>97.1</ele>
        <time>2015-07-20T19:14:13.533Z</time>
      </trkpt>
      <trkpt lat="48.85861" lon="2.37864">
        <ele>97</ele>
        <time>2015-07-20T19:14:17.493Z</time>
      </trkpt>
      <trkpt lat="48.85863" lon="2.37862">
        <ele>97.2</ele>
        <time>2015-07-20T19:14:18.505Z</time>
      </trkpt>
      <trkpt lat="48.85868" lon="2.37857">
        <ele>97.7</ele>
        <time>2015-07-20T19:14:21.580Z</time>
      </trkpt>
      <trkpt lat="48.85871" lon="2.37857">
        <ele>97.2</ele>
        <time>2015-07-20T19:14:22.446Z</time>
      </trkpt>
      <trkpt lat="48.85876" lon="2.37847">
        <ele>96</ele>
        <time>2015-07-20T19:14:25.506Z</time>
      </trkpt>
      <trkpt lat="48.85878" lon="2.37842">
        <ele>96.2</ele>
        <time>2015-07-20T19:14:26.508Z</time>
      </trkpt>
      <trkpt lat="48.85882" lon="2.37835">
        <ele>95.6</ele>
        <time>2015-07-20T19:14:28.525Z</time>
      </trkpt>
      <trkpt lat="48.85884" lon="2.37831">
        <ele>95.7</ele>
        <time>2015-07-20T19:14:29.718Z</time>
      </trkpt>
      <trkpt lat="48.85889" lon="2.37824">
        <ele>96.1</ele>
        <time>2015-07-20T19:14:31.553Z</time>
      </trkpt>
      <trkpt lat="48.85891" lon="2.37821">
        <ele>96.1</ele>
        <time>2015-07-20T19:14:32.558Z</time>
      </trkpt>
      <trkpt lat="48.85895" lon="2.37813">
        <ele>95.9</ele>
        <time>2015-07-20T19:14:34.470Z</time>
      </trkpt>
      <trkpt lat="48.85898" lon="2.37809">
        <ele>95.8</ele>
        <time>2015-07-20T19:14:35.458Z</time>
      </trkpt>
      <trkpt lat="48.85902" lon="2.37801">
        <ele>96.1</ele>
        <time>2015-07-20T19:14:37.597Z</time>
      </trkpt>
      <trkpt lat="48.85904" lon="2.37798">
        <ele>96</ele>
        <time>2015-07-20T19:14:38.525Z</time>
      </trkpt>
      <trkpt lat="48.85908" lon="2.37792">
        <ele>95.7</ele>
        <time>2015-07-20T19:14:40.446Z</time>
      </trkpt>
      <trkpt lat="48.85911" lon="2.37786">
        <ele>95.7</ele>
        <time>2015-07-20T19:14:41.477Z</time>
      </trkpt>
      <trkpt lat="48.85912" lon="2.37776">
        <ele>96</ele>
        <time>2015-07-20T19:14:42.524Z</time>
      </trkpt>
      <trkpt lat="48.85915" lon="2.3777">
        <ele>95.9</ele>
        <time>2015-07-20T19:14:43.534Z</time>
      </trkpt>
      <trkpt lat="48.85919" lon="2.37764">
        <ele>95.9</ele>
        <time>2015-07-20T19:14:44.460Z</time>
      </trkpt>
      <trkpt lat="48.85921" lon="2.37757">
        <ele>96.2</ele>
        <time>2015-07-20T19:14:45.513Z</time>
      </trkpt>
      <trkpt lat="48.85924" lon="2.3775">
        <ele>96.2</ele>
        <time>2015-07-20T19:14:46.524Z</time>
      </trkpt>
      <trkpt lat="48.85927" lon="2.37742">
        <ele>96.3</ele>
        <time>2015-07-20T19:14:47.526Z</time>
      </trkpt>
      <trkpt lat="48.85931" lon="2.37736">
        <ele>96.3</ele>
        <time>2015-07-20T19:14:48.593Z</time>
      </trkpt>
      <trkpt lat="48.85937" lon="2.37731">
        <ele>96.6</ele>
        <time>2015-07-20T19:14:49.460Z</time>
      </trkpt>
      <trkpt lat="48.85942" lon="2.37725">
        <ele>97</ele>
        <time>2015-07-20T19:14:50.512Z</time>
      </trkpt>
      <trkpt lat="48.85946" lon="2.37718">
        <ele>97.1</ele>
        <time>2015-07-20T19:14:51.515Z</time>
      </trkpt>
      <trkpt lat="48.85952" lon="2.37713">
        <ele>97.2</ele>
        <time>2015-07-20T19:14:52.522Z</time>
      </trkpt>
      <trkpt lat="48.85957" lon="2.37707">
        <ele>97.4</ele>
        <time>2015-07-20T19:14:53.443Z</time>
      </trkpt>
      <trkpt lat="48.85962" lon="2.377">
        <ele>97.4</ele>
        <time>2015-07-20T19:14:54.538Z</time>
      </trkpt>
      <trkpt lat="48.85967" lon="2.37695">
        <ele>97.5</ele>
        <time>2015-07-20T19:14:55.465Z</time>
      </trkpt>
      <trkpt lat="48.85972" lon="2.37688">
        <ele>97.6</ele>
        <time>2015-07-20T19:14:56.457Z</time>
      </trkpt>
      <trkpt lat="48.85977" lon="2.37683">
        <ele>97.8</ele>
        <time>2015-07-20T19:14:57.496Z</time>
      </trkpt>
      <trkpt lat="48.85982" lon="2.37677">
        <ele>97.7</ele>
        <time>2015-07-20T19:14:58.511Z</time>
      </trkpt>
      <trkpt lat="48.85984" lon="2.37671">
        <ele>97.7</ele>
        <time>2015-07-20T19:14:59.523Z</time>
      </trkpt>
      <trkpt lat="48.85988" lon="2.37665">
        <ele>97.7</ele>
        <time>2015-07-20T19:15:00.547Z</time>
      </trkpt>
      <trkpt lat="48.85992" lon="2.37658">
        <ele>97.9</ele>
        <time>2015-07-20T19:15:01.554Z</time>
      </trkpt>
      <trkpt lat="48.85997" lon="2.37651">
        <ele>97.9</ele>
        <time>2015-07-20T19:15:02.442Z</time>
      </trkpt>
      <trkpt lat="48.85999" lon="2.37643">
        <ele>98</ele>
        <time>2015-07-20T19:15:03.455Z</time>
      </trkpt>
      <trkpt lat="48.86003" lon="2.37636">
        <ele>98</ele>
        <time>2015-07-20T19:15:04.499Z</time>
      </trkpt>
      <trkpt lat="48.86006" lon="2.3763">
        <ele>98.1</ele>
        <time>2015-07-20T19:15:05.527Z</time>
      </trkpt>
      <trkpt lat="48.8601" lon="2.37624">
        <ele>98.2</ele>
        <time>2015-07-20T19:15:06.539Z</time>
      </trkpt>
      <trkpt lat="48.86013" lon="2.37617">
        <ele>98.3</ele>
        <time>2015-07-20T19:15:07.556Z</time>
      </trkpt>
      <trkpt lat="48.86017" lon="2.37611">
        <ele>98</ele>
        <time>2015-07-20T19:15:08.454Z</time>
      </trkpt>
      <trkpt lat="48.8602" lon="2.37605">
        <ele>98.4</ele>
        <time>2015-07-20T19:15:09.506Z</time>
      </trkpt>
      <trkpt lat="48.86022" lon="2.37598">
        <ele>98.8</ele>
        <time>2015-07-20T19:15:10.526Z</time>
      </trkpt>
      <trkpt lat="48.86025" lon="2.37591">
        <ele>99.2</ele>
        <time>2015-07-20T19:15:11.476Z</time>
      </trkpt>
      <trkpt lat="48.86025" lon="2.37583">
        <ele>100.1</ele>
        <time>2015-07-20T19:15:12.528Z</time>
      </trkpt>
      <trkpt lat="48.86026" lon="2.37575">
        <ele>100.4</ele>
        <time>2015-07-20T19:15:13.533Z</time>
      </trkpt>
      <trkpt lat="48.86028" lon="2.37566">
        <ele>100.4</ele>
        <time>2015-07-20T19:15:14.536Z</time>
      </trkpt>
      <trkpt lat="48.86029" lon="2.37557">
        <ele>100.6</ele>
        <time>2015-07-20T19:15:15.541Z</time>
      </trkpt>
      <trkpt lat="48.86035" lon="2.3755">
        <ele>101.5</ele>
        <time>2015-07-20T19:15:16.446Z</time>
      </trkpt>
      <trkpt lat="48.8604" lon="2.37542">
        <ele>102.5</ele>
        <time>2015-07-20T19:15:17.458Z</time>
      </trkpt>
      <trkpt lat="48.86044" lon="2.37534">
        <ele>103</ele>
        <time>2015-07-20T19:15:18.520Z</time>
      </trkpt>
      <trkpt lat="48.86046" lon="2.37526">
        <ele>103.2</ele>
        <time>2015-07-20T19:15:19.505Z</time>
      </trkpt>
      <trkpt lat="48.86048" lon="2.37519">
        <ele>103.5</ele>
        <time>2015-07-20T19:15:20.536Z</time>
      </trkpt>
      <trkpt lat="48.86052" lon="2.37513">
        <ele>103.9</ele>
        <time>2015-07-20T19:15:21.479Z</time>
      </trkpt>
      <trkpt lat="48.86056" lon="2.37508">
        <ele>103.9</ele>
        <time>2015-07-20T19:15:22.474Z</time>
      </trkpt>
      <trkpt lat="48.86059" lon="2.37503">
        <ele>103.6</ele>
        <time>2015-07-20T19:15:23.498Z</time>
      </trkpt>
      <trkpt lat="48.86063" lon="2.37499">
        <ele>103.2</ele>
        <time>2015-07-20T19:15:24.535Z</time>
      </trkpt>
      <trkpt lat="48.86068" lon="2.37494">
        <ele>102.5</ele>
        <time>2015-07-20T19:15:25.551Z</time>
      </trkpt>
      <trkpt lat="48.86072" lon="2.37489">
        <ele>102.4</ele>
        <time>2015-07-20T19:15:26.575Z</time>
      </trkpt>
      <trkpt lat="48.86076" lon="2.37483">
        <ele>102.3</ele>
        <time>2015-07-20T19:15:27.492Z</time>
      </trkpt>
      <trkpt lat="48.8608" lon="2.37477">
        <ele>102.7</ele>
        <time>2015-07-20T19:15:28.474Z</time>
      </trkpt>
      <trkpt lat="48.86085" lon="2.37471">
        <ele>102.5</ele>
        <time>2015-07-20T19:15:29.500Z</time>
      </trkpt>
      <trkpt lat="48.86091" lon="2.37467">
        <ele>102.3</ele>
        <time>2015-07-20T19:15:30.516Z</time>
      </trkpt>
      <trkpt lat="48.86096" lon="2.37463">
        <ele>102.2</ele>
        <time>2015-07-20T19:15:31.523Z</time>
      </trkpt>
      <trkpt lat="48.86101" lon="2.37457">
        <ele>102.2</ele>
        <time>2015-07-20T19:15:32.532Z</time>
      </trkpt>
      <trkpt lat="48.86106" lon="2.37451">
        <ele>102.1</ele>
        <time>2015-07-20T19:15:33.542Z</time>
      </trkpt>
      <trkpt lat="48.8611" lon="2.37444">
        <ele>101.9</ele>
        <time>2015-07-20T19:15:34.554Z</time>
      </trkpt>
      <trkpt lat="48.86113" lon="2.37437">
        <ele>101.8</ele>
        <time>2015-07-20T19:15:35.443Z</time>
      </trkpt>
      <trkpt lat="48.86117" lon="2.37429">
        <ele>101.8</ele>
        <time>2015-07-20T19:15:36.528Z</time>
      </trkpt>
      <trkpt lat="48.86121" lon="2.37421">
        <ele>101.8</ele>
        <time>2015-07-20T19:15:37.527Z</time>
      </trkpt>
      <trkpt lat="48.86124" lon="2.37413">
        <ele>101.8</ele>
        <time>2015-07-20T19:15:38.464Z</time>
      </trkpt>
      <trkpt lat="48.86127" lon="2.37405">
        <ele>101.6</ele>
        <time>2015-07-20T19:15:39.752Z</time>
      </trkpt>
      <trkpt lat="48.86129" lon="2.37397">
        <ele>101.7</ele>
        <time>2015-07-20T19:15:40.482Z</time>
      </trkpt>
      <trkpt lat="48.86132" lon="2.3739">
        <ele>101.6</ele>
        <time>2015-07-20T19:15:41.473Z</time>
      </trkpt>
      <trkpt lat="48.86134" lon="2.37381">
        <ele>101.8</ele>
        <time>2015-07-20T19:15:42.579Z</time>
      </trkpt>
      <trkpt lat="48.86137" lon="2.37373">
        <ele>101.9</ele>
        <time>2015-07-20T19:15:43.475Z</time>
      </trkpt>
      <trkpt lat="48.86141" lon="2.37366">
        <ele>102.2</ele>
        <time>2015-07-20T19:15:44.473Z</time>
      </trkpt>
      <trkpt lat="48.86144" lon="2.37358">
        <ele>102.7</ele>
        <time>2015-07-20T19:15:45.482Z</time>
      </trkpt>
      <trkpt lat="48.86149" lon="2.37353">
        <ele>103.1</ele>
        <time>2015-07-20T19:15:46.489Z</time>
      </trkpt>
      <trkpt lat="48.86153" lon="2.37345">
        <ele>103.4</ele>
        <time>2015-07-20T19:15:47.495Z</time>
      </trkpt>
      <trkpt lat="48.86156" lon="2.37338">
        <ele>103.8</ele>
        <time>2015-07-20T19:15:48.542Z</time>
      </trkpt>
      <trkpt lat="48.86158" lon="2.3733">
        <ele>104</ele>
        <time>2015-07-20T19:15:49.547Z</time>
      </trkpt>
      <trkpt lat="48.86161" lon="2.37323">
        <ele>104.1</ele>
        <time>2015-07-20T19:15:50.484Z</time>
      </trkpt>
      <trkpt lat="48.86164" lon="2.37315">
        <ele>104.1</ele>
        <time>2015-07-20T19:15:51.477Z</time>
      </trkpt>
      <trkpt lat="48.86167" lon="2.37309">
        <ele>103.8</ele>
        <time>2015-07-20T19:15:52.470Z</time>
      </trkpt>
      <trkpt lat="48.86172" lon="2.37303">
        <ele>103.6</ele>
        <time>2015-07-20T19:15:53.483Z</time>
      </trkpt>
      <trkpt lat="48.86177" lon="2.37298">
        <ele>103.2</ele>
        <time>2015-07-20T19:15:54.533Z</time>
      </trkpt>
      <trkpt lat="48.8618" lon="2.37292">
        <ele>102.8</ele>
        <time>2015-07-20T19:15:55.543Z</time>
      </trkpt>
      <trkpt lat="48.86184" lon="2.37286">
        <ele>102.6</ele>
        <time>2015-07-20T19:15:56.549Z</time>
      </trkpt>
      <trkpt lat="48.86189" lon="2.37279">
        <ele>102.7</ele>
        <time>2015-07-20T19:15:57.556Z</time>
      </trkpt>
      <trkpt lat="48.86198" lon="2.37276">
        <ele>103.3</ele>
        <time>2015-07-20T19:15:58.551Z</time>
      </trkpt>
      <trkpt lat="48.86203" lon="2.3727">
        <ele>103.4</ele>
        <time>2015-07-20T19:15:59.502Z</time>
      </trkpt>
      <trkpt lat="48.86208" lon="2.37264">
        <ele>103.6</ele>
        <time>2015-07-20T19:16:00.529Z</time>
      </trkpt>
      <trkpt lat="48.86213" lon="2.3726">
        <ele>103.4</ele>
        <time>2015-07-20T19:16:01.536Z</time>
      </trkpt>
      <trkpt lat="48.86217" lon="2.37255">
        <ele>103.2</ele>
        <time>2015-07-20T19:16:02.548Z</time>
      </trkpt>
      <trkpt lat="48.86221" lon="2.3725">
        <ele>102.8</ele>
        <time>2015-07-20T19:16:03.476Z</time>
      </trkpt>
      <trkpt lat="48.86227" lon="2.37245">
        <ele>102.7</ele>
        <time>2015-07-20T19:16:04.473Z</time>
      </trkpt>
      <trkpt lat="48.86231" lon="2.37239">
        <ele>102.8</ele>
        <time>2015-07-20T19:16:05.479Z</time>
      </trkpt>
      <trkpt lat="48.86236" lon="2.37233">
        <ele>102.7</ele>
        <time>2015-07-20T19:16:06.521Z</time>
      </trkpt>
      <trkpt lat="48.8624" lon="2.37227">
        <ele>103.1</ele>
        <time>2015-07-20T19:16:07.530Z</time>
      </trkpt>
      <trkpt lat="48.86244" lon="2.3722">
        <ele>103.6</ele>
        <time>2015-07-20T19:16:08.531Z</time>
      </trkpt>
      <trkpt lat="48.86247" lon="2.37213">
        <ele>104</ele>
        <time>2015-07-20T19:16:09.545Z</time>
      </trkpt>
      <trkpt lat="48.8625" lon="2.37206">
        <ele>104.3</ele>
        <time>2015-07-20T19:16:10.450Z</time>
      </trkpt>
      <trkpt lat="48.86254" lon="2.37198">
        <ele>104.6</ele>
        <time>2015-07-20T19:16:11.461Z</time>
      </trkpt>
      <trkpt lat="48.86257" lon="2.37192">
        <ele>104.6</ele>
        <time>2015-07-20T19:16:12.533Z</time>
      </trkpt>
      <trkpt lat="48.8626" lon="2.37184">
        <ele>105.2</ele>
        <time>2015-07-20T19:16:13.530Z</time>
      </trkpt>
      <trkpt lat="48.86263" lon="2.37176">
        <ele>106.2</ele>
        <time>2015-07-20T19:16:14.541Z</time>
      </trkpt>
      <trkpt lat="48.86264" lon="2.37168">
        <ele>107.1</ele>
        <time>2015-07-20T19:16:15.453Z</time>
      </trkpt>
      <trkpt lat="48.86267" lon="2.37159">
        <ele>108.2</ele>
        <time>2015-07-20T19:16:16.453Z</time>
      </trkpt>
      <trkpt lat="48.86269" lon="2.37151">
        <ele>109</ele>
        <time>2015-07-20T19:16:17.483Z</time>
      </trkpt>
      <trkpt lat="48.86271" lon="2.37145">
        <ele>109.2</ele>
        <time>2015-07-20T19:16:18.540Z</time>
      </trkpt>
      <trkpt lat="48.86274" lon="2.3714">
        <ele>109</ele>
        <time>2015-07-20T19:16:19.547Z</time>
      </trkpt>
      <trkpt lat="48.86278" lon="2.37135">
        <ele>108.9</ele>
        <time>2015-07-20T19:16:20.554Z</time>
      </trkpt>
      <trkpt lat="48.86284" lon="2.37133">
        <ele>108.3</ele>
        <time>2015-07-20T19:16:21.567Z</time>
      </trkpt>
      <trkpt lat="48.86288" lon="2.37131">
        <ele>108.1</ele>
        <time>2015-07-20T19:16:22.463Z</time>
      </trkpt>
      <trkpt lat="48.86295" lon="2.37125">
        <ele>107.3</ele>
        <time>2015-07-20T19:16:25.556Z</time>
      </trkpt>
      <trkpt lat="48.86298" lon="2.37123">
        <ele>107.1</ele>
        <time>2015-07-20T19:16:26.563Z</time>
      </trkpt>
      <trkpt lat="48.86303" lon="2.37118">
        <ele>106.9</ele>
        <time>2015-07-20T19:16:34.539Z</time>
      </trkpt>
      <trkpt lat="48.86308" lon="2.37111">
        <ele>106.6</ele>
        <time>2015-07-20T19:16:35.560Z</time>
      </trkpt>
      <trkpt lat="48.86312" lon="2.37101">
        <ele>105.9</ele>
        <time>2015-07-20T19:16:38.520Z</time>
      </trkpt>
      <trkpt lat="48.86313" lon="2.37097">
        <ele>105.9</ele>
        <time>2015-07-20T19:16:39.529Z</time>
      </trkpt>
      <trkpt lat="48.86315" lon="2.37085">
        <ele>104.7</ele>
        <time>2015-07-20T19:16:41.483Z</time>
      </trkpt>
      <trkpt lat="48.86318" lon="2.37081">
        <ele>104</ele>
        <time>2015-07-20T19:16:42.561Z</time>
      </trkpt>
      <trkpt lat="48.86323" lon="2.37074">
        <ele>103.6</ele>
        <time>2015-07-20T19:16:44.551Z</time>
      </trkpt>
      <trkpt lat="48.86325" lon="2.37068">
        <ele>103.4</ele>
        <time>2015-07-20T19:16:45.595Z</time>
      </trkpt>
      <trkpt lat="48.86329" lon="2.37058">
        <ele>103</ele>
        <time>2015-07-20T19:16:47.488Z</time>
      </trkpt>
      <trkpt lat="48.86333" lon="2.37053">
        <ele>103.1</ele>
        <time>2015-07-20T19:16:48.653Z</time>
      </trkpt>
      <trkpt lat="48.86338" lon="2.37044">
        <ele>102.5</ele>
        <time>2015-07-20T19:16:50.498Z</time>
      </trkpt>
      <trkpt lat="48.86342" lon="2.37038">
        <ele>102.4</ele>
        <time>2015-07-20T19:16:51.582Z</time>
      </trkpt>
      <trkpt lat="48.86345" lon="2.37032">
        <ele>102.1</ele>
        <time>2015-07-20T19:16:52.485Z</time>
      </trkpt>
      <trkpt lat="48.86348" lon="2.37025">
        <ele>102</ele>
        <time>2015-07-20T19:16:53.495Z</time>
      </trkpt>
      <trkpt lat="48.8635" lon="2.37018">
        <ele>102</ele>
        <time>2015-07-20T19:16:54.535Z</time>
      </trkpt>
      <trkpt lat="48.86352" lon="2.37011">
        <ele>101.9</ele>
        <time>2015-07-20T19:16:55.535Z</time>
      </trkpt>
      <trkpt lat="48.86356" lon="2.37004">
        <ele>102.1</ele>
        <time>2015-07-20T19:16:56.554Z</time>
      </trkpt>
      <trkpt lat="48.86359" lon="2.36998">
        <ele>102.2</ele>
        <time>2015-07-20T19:16:57.569Z</time>
      </trkpt>
      <trkpt lat="48.86364" lon="2.36992">
        <ele>102</ele>
        <time>2015-07-20T19:16:58.491Z</time>
      </trkpt>
      <trkpt lat="48.86371" lon="2.36989">
        <ele>101.9</ele>
        <time>2015-07-20T19:16:59.494Z</time>
      </trkpt>
      <trkpt lat="48.86375" lon="2.36983">
        <ele>102</ele>
        <time>2015-07-20T19:17:00.642Z</time>
      </trkpt>
      <trkpt lat="48.8638" lon="2.36978">
        <ele>101.9</ele>
        <time>2015-07-20T19:17:01.621Z</time>
      </trkpt>
      <trkpt lat="48.86384" lon="2.36971">
        <ele>101.9</ele>
        <time>2015-07-20T19:17:02.479Z</time>
      </trkpt>
      <trkpt lat="48.86388" lon="2.36964">
        <ele>102.1</ele>
        <time>2015-07-20T19:17:03.511Z</time>
      </trkpt>
      <trkpt lat="48.86392" lon="2.36956">
        <ele>101.6</ele>
        <time>2015-07-20T19:17:04.507Z</time>
      </trkpt>
      <trkpt lat="48.86398" lon="2.36949">
        <ele>101.2</ele>
        <time>2015-07-20T19:17:05.505Z</time>
      </trkpt>
      <trkpt lat="48.86403" lon="2.3694">
        <ele>101.2</ele>
        <time>2015-07-20T19:17:06.520Z</time>
      </trkpt>
      <trkpt lat="48.86408" lon="2.36931">
        <ele>100.7</ele>
        <time>2015-07-20T19:17:07.529Z</time>
      </trkpt>
      <trkpt lat="48.86414" lon="2.36923">
        <ele>100.2</ele>
        <time>2015-07-20T19:17:08.452Z</time>
      </trkpt>
      <trkpt lat="48.8642" lon="2.36914">
        <ele>99.9</ele>
        <time>2015-07-20T19:17:09.475Z</time>
      </trkpt>
      <trkpt lat="48.86426" lon="2.36906">
        <ele>99.3</ele>
        <time>2015-07-20T19:17:10.497Z</time>
      </trkpt>
      <trkpt lat="48.86431" lon="2.36896">
        <ele>99.3</ele>
        <time>2015-07-20T19:17:11.510Z</time>
      </trkpt>
      <trkpt lat="48.86437" lon="2.36887">
        <ele>98.6</ele>
        <time>2015-07-20T19:17:12.525Z</time>
      </trkpt>
      <trkpt lat="48.86443" lon="2.36879">
        <ele>98</ele>
        <time>2015-07-20T19:17:13.521Z</time>
      </trkpt>
      <trkpt lat="48.86449" lon="2.36869">
        <ele>97.8</ele>
        <time>2015-07-20T19:17:14.534Z</time>
      </trkpt>
      <trkpt lat="48.86454" lon="2.36859">
        <ele>97.7</ele>
        <time>2015-07-20T19:17:15.555Z</time>
      </trkpt>
      <trkpt lat="48.86459" lon="2.36848">
        <ele>98</ele>
        <time>2015-07-20T19:17:16.578Z</time>
      </trkpt>
      <trkpt lat="48.86465" lon="2.36838">
        <ele>98</ele>
        <time>2015-07-20T19:17:17.587Z</time>
      </trkpt>
      <trkpt lat="48.8647" lon="2.36829">
        <ele>97.3</ele>
        <time>2015-07-20T19:17:18.597Z</time>
      </trkpt>
      <trkpt lat="48.86476" lon="2.36819">
        <ele>97.5</ele>
        <time>2015-07-20T19:17:19.471Z</time>
      </trkpt>
      <trkpt lat="48.86482" lon="2.3681">
        <ele>97.7</ele>
        <time>2015-07-20T19:17:20.472Z</time>
      </trkpt>
      <trkpt lat="48.86488" lon="2.36801">
        <ele>97.6</ele>
        <time>2015-07-20T19:17:21.501Z</time>
      </trkpt>
      <trkpt lat="48.86494" lon="2.36792">
        <ele>97.4</ele>
        <time>2015-07-20T19:17:22.539Z</time>
      </trkpt>
      <trkpt lat="48.86499" lon="2.36784">
        <ele>97.3</ele>
        <time>2015-07-20T19:17:23.544Z</time>
      </trkpt>
      <trkpt lat="48.86505" lon="2.36777">
        <ele>97.1</ele>
        <time>2015-07-20T19:17:24.558Z</time>
      </trkpt>
      <trkpt lat="48.8651" lon="2.3677">
        <ele>96.5</ele>
        <time>2015-07-20T19:17:25.567Z</time>
      </trkpt>
      <trkpt lat="48.86515" lon="2.36763">
        <ele>96.2</ele>
        <time>2015-07-20T19:17:26.480Z</time>
      </trkpt>
      <trkpt lat="48.86519" lon="2.36756">
        <ele>96</ele>
        <time>2015-07-20T19:17:27.516Z</time>
      </trkpt>
      <trkpt lat="48.86524" lon="2.36749">
        <ele>96.3</ele>
        <time>2015-07-20T19:17:28.526Z</time>
      </trkpt>
      <trkpt lat="48.86528" lon="2.36741">
        <ele>96.5</ele>
        <time>2015-07-20T19:17:29.535Z</time>
      </trkpt>
      <trkpt lat="48.86532" lon="2.36733">
        <ele>96.2</ele>
        <time>2015-07-20T19:17:30.602Z</time>
      </trkpt>
      <trkpt lat="48.86536" lon="2.36724">
        <ele>95.9</ele>
        <time>2015-07-20T19:17:31.476Z</time>
      </trkpt>
      <trkpt lat="48.86538" lon="2.36716">
        <ele>95.7</ele>
        <time>2015-07-20T19:17:32.502Z</time>
      </trkpt>
      <trkpt lat="48.8654" lon="2.36707">
        <ele>95.3</ele>
        <time>2015-07-20T19:17:33.516Z</time>
      </trkpt>
      <trkpt lat="48.86543" lon="2.36699">
        <ele>95.5</ele>
        <time>2015-07-20T19:17:34.469Z</time>
      </trkpt>
      <trkpt lat="48.86545" lon="2.3669">
        <ele>95.7</ele>
        <time>2015-07-20T19:17:35.479Z</time>
      </trkpt>
      <trkpt lat="48.86548" lon="2.36682">
        <ele>95.8</ele>
        <time>2015-07-20T19:17:36.505Z</time>
      </trkpt>
      <trkpt lat="48.86552" lon="2.36676">
        <ele>95.3</ele>
        <time>2015-07-20T19:17:37.512Z</time>
      </trkpt>
      <trkpt lat="48.86556" lon="2.3667">
        <ele>95</ele>
        <time>2015-07-20T19:17:38.533Z</time>
      </trkpt>
      <trkpt lat="48.8656" lon="2.36664">
        <ele>94.9</ele>
        <time>2015-07-20T19:17:39.539Z</time>
      </trkpt>
      <trkpt lat="48.86565" lon="2.36658">
        <ele>94.7</ele>
        <time>2015-07-20T19:17:40.436Z</time>
      </trkpt>
      <trkpt lat="48.86569" lon="2.36652">
        <ele>94.5</ele>
        <time>2015-07-20T19:17:41.484Z</time>
      </trkpt>
      <trkpt lat="48.86574" lon="2.36646">
        <ele>94.5</ele>
        <time>2015-07-20T19:17:42.502Z</time>
      </trkpt>
      <trkpt lat="48.86578" lon="2.3664">
        <ele>94.3</ele>
        <time>2015-07-20T19:17:43.510Z</time>
      </trkpt>
      <trkpt lat="48.86581" lon="2.36634">
        <ele>94.7</ele>
        <time>2015-07-20T19:17:44.529Z</time>
      </trkpt>
      <trkpt lat="48.86584" lon="2.36626">
        <ele>95.9</ele>
        <time>2015-07-20T19:17:45.536Z</time>
      </trkpt>
      <trkpt lat="48.86589" lon="2.36621">
        <ele>96.6</ele>
        <time>2015-07-20T19:17:46.549Z</time>
      </trkpt>
      <trkpt lat="48.86594" lon="2.36616">
        <ele>96.9</ele>
        <time>2015-07-20T19:17:47.560Z</time>
      </trkpt>
      <trkpt lat="48.86598" lon="2.36609">
        <ele>97.4</ele>
        <time>2015-07-20T19:17:48.611Z</time>
      </trkpt>
      <trkpt lat="48.86601" lon="2.36603">
        <ele>97.6</ele>
        <time>2015-07-20T19:17:49.489Z</time>
      </trkpt>
      <trkpt lat="48.86604" lon="2.36598">
        <ele>97.6</ele>
        <time>2015-07-20T19:17:50.519Z</time>
      </trkpt>
      <trkpt lat="48.86609" lon="2.36594">
        <ele>97.8</ele>
        <time>2015-07-20T19:17:51.564Z</time>
      </trkpt>
      <trkpt lat="48.86614" lon="2.36583">
        <ele>98</ele>
        <time>2015-07-20T19:17:53.480Z</time>
      </trkpt>
      <trkpt lat="48.86616" lon="2.36577">
        <ele>97.9</ele>
        <time>2015-07-20T19:17:54.526Z</time>
      </trkpt>
      <trkpt lat="48.86621" lon="2.36566">
        <ele>98.1</ele>
        <time>2015-07-20T19:17:56.659Z</time>
      </trkpt>
      <trkpt lat="48.86625" lon="2.36562">
        <ele>98.3</ele>
        <time>2015-07-20T19:17:57.566Z</time>
      </trkpt>
      <trkpt lat="48.86631" lon="2.36552">
        <ele>98.7</ele>
        <time>2015-07-20T19:17:59.487Z</time>
      </trkpt>
      <trkpt lat="48.86633" lon="2.36547">
        <ele>99.1</ele>
        <time>2015-07-20T19:18:00.542Z</time>
      </trkpt>
      <trkpt lat="48.86637" lon="2.36536">
        <ele>99.1</ele>
        <time>2015-07-20T19:18:02.566Z</time>
      </trkpt>
      <trkpt lat="48.86638" lon="2.3653">
        <ele>99.1</ele>
        <time>2015-07-20T19:18:03.490Z</time>
      </trkpt>
      <trkpt lat="48.86641" lon="2.36519">
        <ele>99.4</ele>
        <time>2015-07-20T19:18:05.347Z</time>
      </trkpt>
      <trkpt lat="48.86647" lon="2.36518">
        <ele>99.4</ele>
        <time>2015-07-20T19:18:06.552Z</time>
      </trkpt>
      <trkpt lat="48.86653" lon="2.36511">
        <ele>99.7</ele>
        <time>2015-07-20T19:18:08.572Z</time>
      </trkpt>
      <trkpt lat="48.86657" lon="2.36507">
        <ele>99.7</ele>
        <time>2015-07-20T19:18:09.477Z</time>
      </trkpt>
      <trkpt lat="48.86664" lon="2.36502">
        <ele>99.6</ele>
        <time>2015-07-20T19:18:11.545Z</time>
      </trkpt>
      <trkpt lat="48.86667" lon="2.365">
        <ele>99.5</ele>
        <time>2015-07-20T19:18:12.527Z</time>
      </trkpt>
      <trkpt lat="48.86675" lon="2.36493">
        <ele>99.7</ele>
        <time>2015-07-20T19:18:15.551Z</time>
      </trkpt>
      <trkpt lat="48.86677" lon="2.36489">
        <ele>99.8</ele>
        <time>2015-07-20T19:18:16.564Z</time>
      </trkpt>
      <trkpt lat="48.86684" lon="2.36488">
        <ele>97.7</ele>
        <time>2015-07-20T19:18:21.571Z</time>
      </trkpt>
      <trkpt lat="48.86686" lon="2.36493">
        <ele>95.4</ele>
        <time>2015-07-20T19:18:22.481Z</time>
      </trkpt>
      <trkpt lat="48.86686" lon="2.36493">
        <ele>95.4</ele>
        <time>2015-07-20T19:18:59.479Z</time>
      </trkpt>
      <trkpt lat="48.86696" lon="2.36487">
        <ele>93.1</ele>
        <time>2015-07-20T19:19:00.549Z</time>
      </trkpt>
      <trkpt lat="48.86703" lon="2.36481">
        <ele>92.3</ele>
        <time>2015-07-20T19:19:04.470Z</time>
      </trkpt>
      <trkpt lat="48.86704" lon="2.36479">
        <ele>92.1</ele>
        <time>2015-07-20T19:19:05.489Z</time>
      </trkpt>
      <trkpt lat="48.86711" lon="2.36471">
        <ele>91.5</ele>
        <time>2015-07-20T19:19:09.461Z</time>
      </trkpt>
      <trkpt lat="48.86712" lon="2.36469">
        <ele>91.5</ele>
        <time>2015-07-20T19:19:10.490Z</time>
      </trkpt>
      <trkpt lat="48.86716" lon="2.36459">
        <ele>91.7</ele>
        <time>2015-07-20T19:19:14.623Z</time>
      </trkpt>
      <trkpt lat="48.86717" lon="2.36457">
        <ele>91.7</ele>
        <time>2015-07-20T19:19:15.566Z</time>
      </trkpt>
      <trkpt lat="48.86719" lon="2.36451">
        <ele>91.9</ele>
        <time>2015-07-20T19:19:21.568Z</time>
      </trkpt>
      <trkpt lat="48.86723" lon="2.36446">
        <ele>92.5</ele>
        <time>2015-07-20T19:19:22.555Z</time>
      </trkpt>
      <trkpt lat="48.86728" lon="2.36437">
        <ele>92.6</ele>
        <time>2015-07-20T19:19:26.553Z</time>
      </trkpt>
      <trkpt lat="48.86729" lon="2.36435">
        <ele>92.5</ele>
        <time>2015-07-20T19:19:27.574Z</time>
      </trkpt>
      <trkpt lat="48.86734" lon="2.36428">
        <ele>93.2</ele>
        <time>2015-07-20T19:19:30.546Z</time>
      </trkpt>
      <trkpt lat="48.86736" lon="2.36426">
        <ele>93.2</ele>
        <time>2015-07-20T19:19:31.553Z</time>
      </trkpt>
      <trkpt lat="48.86743" lon="2.36422">
        <ele>94</ele>
        <time>2015-07-20T19:19:34.571Z</time>
      </trkpt>
      <trkpt lat="48.86745" lon="2.3642">
        <ele>94.3</ele>
        <time>2015-07-20T19:19:35.496Z</time>
      </trkpt>
      <trkpt lat="48.86751" lon="2.36413">
        <ele>94.9</ele>
        <time>2015-07-20T19:19:38.688Z</time>
      </trkpt>
      <trkpt lat="48.86753" lon="2.36409">
        <ele>95.4</ele>
        <time>2015-07-20T19:19:39.561Z</time>
      </trkpt>
      <trkpt lat="48.86757" lon="2.36397">
        <ele>96.3</ele>
        <time>2015-07-20T19:19:42.570Z</time>
      </trkpt>
      <trkpt lat="48.86759" lon="2.36394">
        <ele>96.2</ele>
        <time>2015-07-20T19:19:43.497Z</time>
      </trkpt>
      <trkpt lat="48.86762" lon="2.36387">
        <ele>96</ele>
        <time>2015-07-20T19:19:45.505Z</time>
      </trkpt>
      <trkpt lat="48.86764" lon="2.36383">
        <ele>95.8</ele>
        <time>2015-07-20T19:19:46.510Z</time>
      </trkpt>
      <trkpt lat="48.86767" lon="2.36375">
        <ele>95.4</ele>
        <time>2015-07-20T19:19:48.778Z</time>
      </trkpt>
      <trkpt lat="48.86769" lon="2.36371">
        <ele>95.2</ele>
        <time>2015-07-20T19:19:49.541Z</time>
      </trkpt>
      <trkpt lat="48.86771" lon="2.36362">
        <ele>96.1</ele>
        <time>2015-07-20T19:19:51.553Z</time>
      </trkpt>
      <trkpt lat="48.86772" lon="2.36358">
        <ele>96</ele>
        <time>2015-07-20T19:19:52.471Z</time>
      </trkpt>
      <trkpt lat="48.86775" lon="2.36346">
        <ele>95.7</ele>
        <time>2015-07-20T19:19:55.543Z</time>
      </trkpt>
      <trkpt lat="48.86777" lon="2.36342">
        <ele>95.9</ele>
        <time>2015-07-20T19:19:56.616Z</time>
      </trkpt>
      <trkpt lat="48.86781" lon="2.3633">
        <ele>96.7</ele>
        <time>2015-07-20T19:19:59.517Z</time>
      </trkpt>
      <trkpt lat="48.86782" lon="2.36326">
        <ele>97.1</ele>
        <time>2015-07-20T19:20:00.540Z</time>
      </trkpt>
      <trkpt lat="48.86784" lon="2.36315">
        <ele>97.7</ele>
        <time>2015-07-20T19:20:03.995Z</time>
      </trkpt>
      <trkpt lat="48.86786" lon="2.36312">
        <ele>97.9</ele>
        <time>2015-07-20T19:20:04.448Z</time>
      </trkpt>
      <trkpt lat="48.8679" lon="2.36303">
        <ele>98.8</ele>
        <time>2015-07-20T19:20:07.513Z</time>
      </trkpt>
      <trkpt lat="48.86792" lon="2.36301">
        <ele>99.1</ele>
        <time>2015-07-20T19:20:08.528Z</time>
      </trkpt>
      <trkpt lat="48.86799" lon="2.36294">
        <ele>98.7</ele>
        <time>2015-07-20T19:20:11.586Z</time>
      </trkpt>
      <trkpt lat="48.86802" lon="2.36291">
        <ele>98.5</ele>
        <time>2015-07-20T19:20:12.614Z</time>
      </trkpt>
      <trkpt lat="48.8681" lon="2.36288">
        <ele>98.2</ele>
        <time>2015-07-20T19:20:15.481Z</time>
      </trkpt>
      <trkpt lat="48.86812" lon="2.36286">
        <ele>98.2</ele>
        <time>2015-07-20T19:20:16.508Z</time>
      </trkpt>
      <trkpt lat="48.86819" lon="2.36289">
        <ele>98</ele>
        <time>2015-07-20T19:20:19.452Z</time>
      </trkpt>
      <trkpt lat="48.86822" lon="2.3629">
        <ele>97.9</ele>
        <time>2015-07-20T19:20:20.457Z</time>
      </trkpt>
      <trkpt lat="48.86823" lon="2.36291">
        <ele>98</ele>
        <time>2015-07-20T19:21:00.511Z</time>
      </trkpt>
      <trkpt lat="48.86831" lon="2.36268">
        <ele>96.4</ele>
        <time>2015-07-20T19:21:01.521Z</time>
      </trkpt>
      <trkpt lat="48.86836" lon="2.36263">
        <ele>98</ele>
        <time>2015-07-20T19:21:17.556Z</time>
      </trkpt>
      <trkpt lat="48.86857" lon="2.36279">
        <ele>94.9</ele>
        <time>2015-07-20T19:21:18.571Z</time>
      </trkpt>
      <trkpt lat="48.86863" lon="2.36275">
        <ele>96.3</ele>
        <time>2015-07-20T19:21:25.504Z</time>
      </trkpt>
      <trkpt lat="48.86872" lon="2.36272">
        <ele>97.3</ele>
        <time>2015-07-20T19:21:26.513Z</time>
      </trkpt>
      <trkpt lat="48.8688" lon="2.3627">
        <ele>97.8</ele>
        <time>2015-07-20T19:21:28.480Z</time>
      </trkpt>
      <trkpt lat="48.86883" lon="2.36268">
        <ele>97.8</ele>
        <time>2015-07-20T19:21:29.506Z</time>
      </trkpt>
      <trkpt lat="48.86888" lon="2.36267">
        <ele>98.1</ele>
        <time>2015-07-20T19:21:30.564Z</time>
      </trkpt>
      <trkpt lat="48.86892" lon="2.36265">
        <ele>98.3</ele>
        <time>2015-07-20T19:21:31.568Z</time>
      </trkpt>
      <trkpt lat="48.86899" lon="2.36259">
        <ele>98.4</ele>
        <time>2015-07-20T19:21:33.483Z</time>
      </trkpt>
      <trkpt lat="48.86902" lon="2.36256">
        <ele>98.8</ele>
        <time>2015-07-20T19:21:34.506Z</time>
      </trkpt>
      <trkpt lat="48.86905" lon="2.36253">
        <ele>99.1</ele>
        <time>2015-07-20T19:21:35.501Z</time>
      </trkpt>
      <trkpt lat="48.86911" lon="2.3625">
        <ele>99.4</ele>
        <time>2015-07-20T19:21:36.529Z</time>
      </trkpt>
      <trkpt lat="48.86916" lon="2.36246">
        <ele>99.5</ele>
        <time>2015-07-20T19:21:37.551Z</time>
      </trkpt>
      <trkpt lat="48.86921" lon="2.36241">
        <ele>99.1</ele>
        <time>2015-07-20T19:21:38.474Z</time>
      </trkpt>
      <trkpt lat="48.86927" lon="2.36233">
        <ele>99</ele>
        <time>2015-07-20T19:21:40.505Z</time>
      </trkpt>
      <trkpt lat="48.8693" lon="2.3623">
        <ele>99.2</ele>
        <time>2015-07-20T19:21:41.495Z</time>
      </trkpt>
      <trkpt lat="48.86935" lon="2.36222">
        <ele>99.3</ele>
        <time>2015-07-20T19:21:43.553Z</time>
      </trkpt>
      <trkpt lat="48.86936" lon="2.36218">
        <ele>99</ele>
        <time>2015-07-20T19:21:44.493Z</time>
      </trkpt>
      <trkpt lat="48.86937" lon="2.36209">
        <ele>98.5</ele>
        <time>2015-07-20T19:21:46.463Z</time>
      </trkpt>
      <trkpt lat="48.86939" lon="2.36204">
        <ele>98.4</ele>
        <time>2015-07-20T19:21:47.476Z</time>
      </trkpt>
      <trkpt lat="48.86944" lon="2.36194">
        <ele>98.2</ele>
        <time>2015-07-20T19:21:49.523Z</time>
      </trkpt>
      <trkpt lat="48.86947" lon="2.36189">
        <ele>98.1</ele>
        <time>2015-07-20T19:21:50.529Z</time>
      </trkpt>
      <trkpt lat="48.86951" lon="2.36184">
        <ele>98</ele>
        <time>2015-07-20T19:21:51.560Z</time>
      </trkpt>
      <trkpt lat="48.86953" lon="2.36177">
        <ele>97.8</ele>
        <time>2015-07-20T19:21:52.458Z</time>
      </trkpt>
      <trkpt lat="48.86956" lon="2.36171">
        <ele>97.9</ele>
        <time>2015-07-20T19:21:53.488Z</time>
      </trkpt>
      <trkpt lat="48.8696" lon="2.36165">
        <ele>98</ele>
        <time>2015-07-20T19:21:54.507Z</time>
      </trkpt>
      <trkpt lat="48.86963" lon="2.36159">
        <ele>97.9</ele>
        <time>2015-07-20T19:21:55.524Z</time>
      </trkpt>
      <trkpt lat="48.86966" lon="2.36153">
        <ele>97.8</ele>
        <time>2015-07-20T19:21:56.534Z</time>
      </trkpt>
      <trkpt lat="48.86969" lon="2.36148">
        <ele>97.6</ele>
        <time>2015-07-20T19:21:57.461Z</time>
      </trkpt>
      <trkpt lat="48.86972" lon="2.36141">
        <ele>97.4</ele>
        <time>2015-07-20T19:21:58.467Z</time>
      </trkpt>
      <trkpt lat="48.86975" lon="2.36135">
        <ele>97.3</ele>
        <time>2015-07-20T19:21:59.480Z</time>
      </trkpt>
      <trkpt lat="48.86977" lon="2.36128">
        <ele>97.3</ele>
        <time>2015-07-20T19:22:00.523Z</time>
      </trkpt>
      <trkpt lat="48.86979" lon="2.36121">
        <ele>97.4</ele>
        <time>2015-07-20T19:22:01.459Z</time>
      </trkpt>
      <trkpt lat="48.86981" lon="2.36113">
        <ele>97.1</ele>
        <time>2015-07-20T19:22:02.454Z</time>
      </trkpt>
      <trkpt lat="48.86984" lon="2.36106">
        <ele>96.8</ele>
        <time>2015-07-20T19:22:03.459Z</time>
      </trkpt>
      <trkpt lat="48.86984" lon="2.36099">
        <ele>96.9</ele>
        <time>2015-07-20T19:22:04.468Z</time>
      </trkpt>
      <trkpt lat="48.86985" lon="2.36091">
        <ele>97.8</ele>
        <time>2015-07-20T19:22:05.494Z</time>
      </trkpt>
      <trkpt lat="48.86984" lon="2.36082">
        <ele>98.3</ele>
        <time>2015-07-20T19:22:06.506Z</time>
      </trkpt>
      <trkpt lat="48.86988" lon="2.3607">
        <ele>99</ele>
        <time>2015-07-20T19:22:08.522Z</time>
      </trkpt>
      <trkpt lat="48.8699" lon="2.36063">
        <ele>98.9</ele>
        <time>2015-07-20T19:22:09.534Z</time>
      </trkpt>
      <trkpt lat="48.86994" lon="2.36056">
        <ele>98.8</ele>
        <time>2015-07-20T19:22:10.464Z</time>
      </trkpt>
      <trkpt lat="48.86997" lon="2.36049">
        <ele>99</ele>
        <time>2015-07-20T19:22:11.432Z</time>
      </trkpt>
      <trkpt lat="48.87002" lon="2.36043">
        <ele>98.9</ele>
        <time>2015-07-20T19:22:12.500Z</time>
      </trkpt>
      <trkpt lat="48.87006" lon="2.36037">
        <ele>99</ele>
        <time>2015-07-20T19:22:13.495Z</time>
      </trkpt>
      <trkpt lat="48.8701" lon="2.36032">
        <ele>99.1</ele>
        <time>2015-07-20T19:22:14.503Z</time>
      </trkpt>
      <trkpt lat="48.87014" lon="2.36025">
        <ele>98.9</ele>
        <time>2015-07-20T19:22:15.500Z</time>
      </trkpt>
      <trkpt lat="48.87019" lon="2.3602">
        <ele>98.4</ele>
        <time>2015-07-20T19:22:16.512Z</time>
      </trkpt>
      <trkpt lat="48.87023" lon="2.36013">
        <ele>98.2</ele>
        <time>2015-07-20T19:22:17.593Z</time>
      </trkpt>
      <trkpt lat="48.87027" lon="2.36008">
        <ele>97.8</ele>
        <time>2015-07-20T19:22:18.473Z</time>
      </trkpt>
      <trkpt lat="48.87031" lon="2.36002">
        <ele>97.6</ele>
        <time>2015-07-20T19:22:19.472Z</time>
      </trkpt>
      <trkpt lat="48.87035" lon="2.35995">
        <ele>97.2</ele>
        <time>2015-07-20T19:22:20.595Z</time>
      </trkpt>
      <trkpt lat="48.87038" lon="2.3599">
        <ele>97.2</ele>
        <time>2015-07-20T19:22:21.486Z</time>
      </trkpt>
      <trkpt lat="48.87042" lon="2.35985">
        <ele>97.3</ele>
        <time>2015-07-20T19:22:22.497Z</time>
      </trkpt>
      <trkpt lat="48.87045" lon="2.3598">
        <ele>97.5</ele>
        <time>2015-07-20T19:22:23.511Z</time>
      </trkpt>
      <trkpt lat="48.87047" lon="2.3597">
        <ele>98.4</ele>
        <time>2015-07-20T19:22:25.431Z</time>
      </trkpt>
      <trkpt lat="48.87048" lon="2.35966">
        <ele>98.9</ele>
        <time>2015-07-20T19:22:26.487Z</time>
      </trkpt>
      <trkpt lat="48.87052" lon="2.35959">
        <ele>99.3</ele>
        <time>2015-07-20T19:22:28.522Z</time>
      </trkpt>
      <trkpt lat="48.87055" lon="2.35957">
        <ele>99.6</ele>
        <time>2015-07-20T19:22:29.432Z</time>
      </trkpt>
      <trkpt lat="48.87059" lon="2.35947">
        <ele>100</ele>
        <time>2015-07-20T19:22:32.461Z</time>
      </trkpt>
      <trkpt lat="48.87061" lon="2.35944">
        <ele>99.8</ele>
        <time>2015-07-20T19:22:33.483Z</time>
      </trkpt>
      <trkpt lat="48.87065" lon="2.35937">
        <ele>100.3</ele>
        <time>2015-07-20T19:22:35.425Z</time>
      </trkpt>
      <trkpt lat="48.87068" lon="2.35934">
        <ele>100.1</ele>
        <time>2015-07-20T19:22:36.593Z</time>
      </trkpt>
      <trkpt lat="48.87073" lon="2.35927">
        <ele>100.3</ele>
        <time>2015-07-20T19:22:38.559Z</time>
      </trkpt>
      <trkpt lat="48.87075" lon="2.35924">
        <ele>100.3</ele>
        <time>2015-07-20T19:22:39.481Z</time>
      </trkpt>
      <trkpt lat="48.87078" lon="2.35913">
        <ele>100</ele>
        <time>2015-07-20T19:22:41.487Z</time>
      </trkpt>
      <trkpt lat="48.8708" lon="2.35908">
        <ele>100</ele>
        <time>2015-07-20T19:22:42.569Z</time>
      </trkpt>
      <trkpt lat="48.87083" lon="2.35903">
        <ele>99.7</ele>
        <time>2015-07-20T19:22:43.465Z</time>
      </trkpt>
      <trkpt lat="48.87086" lon="2.35897">
        <ele>99.4</ele>
        <time>2015-07-20T19:22:44.473Z</time>
      </trkpt>
      <trkpt lat="48.87089" lon="2.35886">
        <ele>99</ele>
        <time>2015-07-20T19:22:46.498Z</time>
      </trkpt>
      <trkpt lat="48.8709" lon="2.3588">
        <ele>99</ele>
        <time>2015-07-20T19:22:47.519Z</time>
      </trkpt>
      <trkpt lat="48.87096" lon="2.3587">
        <ele>98.2</ele>
        <time>2015-07-20T19:22:49.466Z</time>
      </trkpt>
      <trkpt lat="48.87099" lon="2.35865">
        <ele>98.1</ele>
        <time>2015-07-20T19:22:50.539Z</time>
      </trkpt>
      <trkpt lat="48.87103" lon="2.35859">
        <ele>98.1</ele>
        <time>2015-07-20T19:22:51.461Z</time>
      </trkpt>
      <trkpt lat="48.87107" lon="2.35854">
        <ele>97.7</ele>
        <time>2015-07-20T19:22:52.473Z</time>
      </trkpt>
      <trkpt lat="48.8711" lon="2.35848">
        <ele>97.6</ele>
        <time>2015-07-20T19:22:53.475Z</time>
      </trkpt>
      <trkpt lat="48.87113" lon="2.35843">
        <ele>97.6</ele>
        <time>2015-07-20T19:22:54.564Z</time>
      </trkpt>
      <trkpt lat="48.87116" lon="2.35835">
        <ele>98</ele>
        <time>2015-07-20T19:22:56.466Z</time>
      </trkpt>
      <trkpt lat="48.87119" lon="2.35831">
        <ele>98.2</ele>
        <time>2015-07-20T19:22:57.538Z</time>
      </trkpt>
      <trkpt lat="48.87122" lon="2.35821">
        <ele>98.4</ele>
        <time>2015-07-20T19:22:59.467Z</time>
      </trkpt>
      <trkpt lat="48.87123" lon="2.35816">
        <ele>99</ele>
        <time>2015-07-20T19:23:00.531Z</time>
      </trkpt>
      <trkpt lat="48.87127" lon="2.35804">
        <ele>99.2</ele>
        <time>2015-07-20T19:23:03.469Z</time>
      </trkpt>
      <trkpt lat="48.87131" lon="2.35803">
        <ele>99.3</ele>
        <time>2015-07-20T19:23:04.491Z</time>
      </trkpt>
      <trkpt lat="48.87136" lon="2.35802">
        <ele>99.6</ele>
        <time>2015-07-20T19:23:05.516Z</time>
      </trkpt>
      <trkpt lat="48.8714" lon="2.35799">
        <ele>99.5</ele>
        <time>2015-07-20T19:23:06.603Z</time>
      </trkpt>
      <trkpt lat="48.87146" lon="2.35792">
        <ele>100</ele>
        <time>2015-07-20T19:23:08.425Z</time>
      </trkpt>
      <trkpt lat="48.87149" lon="2.35787">
        <ele>100.3</ele>
        <time>2015-07-20T19:23:09.490Z</time>
      </trkpt>
      <trkpt lat="48.87154" lon="2.35779">
        <ele>100.7</ele>
        <time>2015-07-20T19:23:11.503Z</time>
      </trkpt>
      <trkpt lat="48.87158" lon="2.35776">
        <ele>100.7</ele>
        <time>2015-07-20T19:23:12.598Z</time>
      </trkpt>
      <trkpt lat="48.87165" lon="2.35769">
        <ele>100.2</ele>
        <time>2015-07-20T19:23:14.497Z</time>
      </trkpt>
      <trkpt lat="48.87168" lon="2.35765">
        <ele>100</ele>
        <time>2015-07-20T19:23:15.515Z</time>
      </trkpt>
      <trkpt lat="48.87171" lon="2.35753">
        <ele>99.4</ele>
        <time>2015-07-20T19:23:18.551Z</time>
      </trkpt>
      <trkpt lat="48.87172" lon="2.3575">
        <ele>99.4</ele>
        <time>2015-07-20T19:23:19.561Z</time>
      </trkpt>
      <trkpt lat="48.87171" lon="2.35748">
        <ele>99.3</ele>
        <time>2015-07-20T19:23:30.579Z</time>
      </trkpt>
      <trkpt lat="48.8716" lon="2.35759">
        <ele>99.6</ele>
        <time>2015-07-20T19:23:31.475Z</time>
      </trkpt>
      <trkpt lat="48.87154" lon="2.35768">
        <ele>99.4</ele>
        <time>2015-07-20T19:23:34.477Z</time>
      </trkpt>
      <trkpt lat="48.87151" lon="2.3577">
        <ele>99</ele>
        <time>2015-07-20T19:23:35.481Z</time>
      </trkpt>
      <trkpt lat="48.87147" lon="2.35779">
        <ele>98.6</ele>
        <time>2015-07-20T19:23:38.746Z</time>
      </trkpt>
      <trkpt lat="48.87147" lon="2.35782">
        <ele>98.1</ele>
        <time>2015-07-20T19:23:39.542Z</time>
      </trkpt>
      <trkpt lat="48.87142" lon="2.35771">
        <ele>99.9</ele>
        <time>2015-07-20T19:24:57.546Z</time>
      </trkpt>
      <trkpt lat="48.87144" lon="2.35768">
        <ele>99.8</ele>
        <time>2015-07-20T19:24:58.464Z</time>
      </trkpt>
      <trkpt lat="48.87149" lon="2.35761">
        <ele>99.6</ele>
        <time>2015-07-20T19:25:00.547Z</time>
      </trkpt>
      <trkpt lat="48.87151" lon="2.35759">
        <ele>99.4</ele>
        <time>2015-07-20T19:25:01.471Z</time>
      </trkpt>
      <trkpt lat="48.87156" lon="2.3575">
        <ele>99.4</ele>
        <time>2015-07-20T19:25:04.548Z</time>
      </trkpt>
      <trkpt lat="48.87158" lon="2.35747">
        <ele>99.5</ele>
        <time>2015-07-20T19:25:05.456Z</time>
      </trkpt>
      <trkpt lat="48.87163" lon="2.35741">
        <ele>99.8</ele>
        <time>2015-07-20T19:25:07.498Z</time>
      </trkpt>
      <trkpt lat="48.87165" lon="2.35738">
        <ele>99.9</ele>
        <time>2015-07-20T19:25:08.508Z</time>
      </trkpt>
      <trkpt lat="48.87165" lon="2.35728">
        <ele>100.1</ele>
        <time>2015-07-20T19:25:11.565Z</time>
      </trkpt>
      <trkpt lat="48.87166" lon="2.35724">
        <ele>99.7</ele>
        <time>2015-07-20T19:25:12.564Z</time>
      </trkpt>
      <trkpt lat="48.8717" lon="2.35712">
        <ele>99.9</ele>
        <time>2015-07-20T19:25:15.540Z</time>
      </trkpt>
      <trkpt lat="48.87171" lon="2.3571">
        <ele>99.7</ele>
        <time>2015-07-20T19:25:16.465Z</time>
      </trkpt>
    </trkseg>
  </trk>
</gpx>